[[{"header":{"parameterUnit":"m.s-1","parameterCategory":1,"la1":31.0,"la2":29.5877,"lo1":-88.7671,"lo2":-86.6584,"dy":0.0162,"dx":0.0185,"nx":115,"ny":88,"refTime":"2023-09-23T06:00:00:Z","depth":0,"parameterNumber":2,"parameterNumberName":"U-component_of_WINDS"},"data":[0.0,0.0,0.0,0.0,0.0,0.0,0.0,0.0,0.0,0.0,0.0,0.0,0.0,0.0,0.0,0.0,0.0,0.0,0.0,0.0,0.0,0.0,0.0,0.0,0.0,0.0,0.0,0.0,0.0,0.0,0.0,0.0,0.0,0.0,0.0,0.0,0.0,0.0,0.0,0.0,0.0,0.0,0.0,0.0,0.0,0.0,0.0,0.0,0.0,0.0,0.0,0.0,0.0,0.0,0.0,0.0,0.0,0.0,0.0,0.0,0.0,0.0,0.0,0.0,0.0,0.0,0.0,0.0,0.0,0.0,0.0,0.0,0.0,0.0,0.0,0.0,0.0,0.0,0.0,0.0,0.0,0.0,0.0,0.0,0.0,0.0,0.0,0.0,0.0,0.0,0.0,0.0,0.0,0.0,0.0,0.0,0.0,0.0,0.0,0.0,0.0,0.0,0.0,0.0,0.0,0.0,0.0,0.0,0.0,0.0,0.0,0.0,0.0,0.0,0.0,0.0,0.0,0.0,0.0,0.0,0.0,0.0,0.0,0.0,0.0,0.0,0.0,0.0,0.0,0.0,0.0,0.0,0.0,0.0,0.0,0.0,0.0,0.0,0.0,0.0,0.0,0.0,0.0,0.0,0.0,0.0,0.0,0.0,0.0,0.0,0.0,0.0,0.0,0.0,0.0,0.0,0.0,0.0,0.0,0.0,0.0,0.0,0.0,0.0,0.0,0.0,0.0,0.0,0.0,0.0,0.0,0.0,0.0,0.0,0.0,0.0,0.0,0.0,0.0,0.0,0.0,0.0,0.0,0.0,0.0,0.0,0.0,0.0,0.0,0.0,0.0,0.0,0.0,0.0,0.0,0.0,0.0,0.0,0.0,0.0,0.0,0.0,0.0,0.0,0.0,0.0,0.0,0.0,0.0,0.0,0.0,0.0,0.0,0.0,0.0,0.0,0.0,0.0,0.0,0.0,0.0,0.0,0.0,0.0,0.0,0.0,0.0,0.0,0.0,0.0,0.0,0.0,0.0,0.0,0.0,0.0,0.0,0.0,0.0,0.0,0.0,0.0,0.0,0.0,0.0,0.0,0.0,0.0,0.0,0.0,0.0,0.0,0.0,0.0,0.0,0.0,0.0,0.0,0.0,0.0,0.0,0.0,0.0,0.0,0.0,0.0,0.0,0.0,0.0,0.0,0.0,0.0,0.0,0.0,0.0,0.0,0.0,0.0,0.0,0.0,0.0,0.0,0.0,0.0,0.0,0.0,0.0,0.0,0.0,0.0,0.0,0.0,0.0,0.0,0.0,0.0,0.0,0.0,0.0,0.0,0.0,0.0,0.0,0.0,0.0,0.0,0.0,0.0,0.0,0.0,0.0,0.0,0.0,0.0,0.0,0.0,0.0,0.0,0.0,0.0,0.0,0.0,0.0,0.0,0.0,0.0,0.0,0.0,0.0,0.0,0.0,0.0,0.0,0.0,0.0,0.0,0.0,0.0,0.0,0.0,0.0,0.0,0.0,0.0,0.0,0.0,0.0,0.0,0.0,0.0,0.0,0.0,0.0,0.0,0.0,0.0,0.0,0.0,0.0,0.0,0.0,0.0,0.0,0.0,0.0,0.0,0.0,0.0,0.0,0.0,0.0,0.0,0.0,0.0,0.0,0.0,0.0,0.0,0.0,0.0,0.0,0.0,0.0,0.0,0.0,0.0,0.0,0.0,0.0,0.0,0.0,0.0,0.0,0.0,0.0,0.0,0.0,0.0,0.0,0.0,0.0,0.0,0.0,0.0,0.0,0.0,0.0,0.0,0.0,0.0,0.0,0.0,0.0,0.0,0.0,0.0,0.0,0.0,0.0,0.0,0.0,0.0,0.0,0.0,0.0,0.0,0.0,0.0,0.0,0.0,0.0,0.0,0.0,0.0,0.0,0.0,0.0,0.0,0.0,0.0,0.0,0.0,0.0,0.0,0.0,0.0,0.0,0.0,0.0,0.0,0.0,0.0,0.0,0.0,0.0,0.0,0.0,0.0,0.0,0.0,0.0,0.0,0.0,0.0,0.0,0.0,0.0,0.0,0.0,0.0,0.0,0.0,0.0,0.0,0.0,0.0,0.0,0.0,0.0,0.0,0.0,0.0,0.0,0.0,0.0,0.0,0.0,0.0,0.0,0.0,0.0,0.0,0.0,0.0,0.0,0.0,0.0,0.0,0.0,0.0,0.0,0.0,0.0,0.0,0.0,0.0,0.0,0.0,0.0,0.0,0.0,0.0,0.0,0.0,0.0,0.0,0.0,0.0,0.0,0.0,0.0,0.0,0.0,0.0,0.0,0.0,0.0,0.0,0.0,0.0,0.0,0.0,0.0,0.0,0.0,0.0,0.0,0.0,0.0,0.0,0.0,0.0,0.0,0.0,0.0,0.0,0.0,0.0,0.0,0.0,0.0,0.0,0.0,0.0,0.0,0.0,0.0,0.0,0.0,0.0,0.0,0.0,0.0,0.0,0.0,0.0,0.0,0.0,0.0,0.0,0.0,0.0,0.0,0.0,0.0,0.0,0.0,0.0,0.0,0.0,0.0,0.0,0.0,0.0,0.0,0.0,0.0,0.0,0.0,0.0,0.0,0.0,0.0,0.0,0.0,0.0,0.0,0.0,0.0,0.0,0.0,0.0,0.0,0.0,0.0,0.0,0.0,0.0,0.0,0.0,0.0,0.0,0.0,0.0,0.0,0.0,0.0,0.0,0.0,0.0,0.0,0.0,0.0,0.0,0.0,0.0,0.0,0.0,0.0,0.0,0.0,0.0,0.0,0.0,0.0,0.0,0.0,0.0,0.0,0.0,0.0,0.0,0.0,0.0,0.0,0.0,0.0,0.0,0.0,0.0,0.0,0.0,0.0,0.0,0.0,0.0,0.0,0.0,0.0,0.0,0.0,0.0,0.0,0.0,0.0,0.0,0.0,0.0,0.0,0.0,0.0,0.0,0.0,0.0,0.0,0.0,0.0,0.0,0.0,0.0,0.0,0.0,0.0,0.0,0.0,0.0,0.0,0.0,0.0,0.0,0.0,0.0,0.0,0.0,0.0,0.0,0.0,0.0,0.0,0.0,0.0,0.0,0.0,0.0,0.0,0.0,0.0,0.0,0.0,0.0,0.0,0.0,0.0,0.0,0.0,0.0,0.0,0.0,0.0,0.0,0.0,0.0,0.0,0.0,0.0,0.0,0.0,0.0,0.0,0.0,0.0,0.0,0.0,0.0,0.0,0.0,0.0,0.0,0.0,0.0,0.0,0.0,0.0,0.0,0.0,0.0,0.0,0.0,0.0,0.0,0.0,0.0,0.0,0.0,0.0,0.0,0.0,0.0,0.0,0.0,0.0,0.0,0.0,0.0,0.0,0.0,0.0,0.0,0.0,0.0,0.0,0.0,0.0,0.0,0.0,0.0,0.0,0.0,0.0,0.0,0.0,0.0,0.0,0.0,0.0,0.0,0.0,0.0,0.0,0.0,0.0,0.0,0.0,0.0,0.0,0.0,0.0,0.0,0.0,0.0,0.0,0.0,0.0,0.0,0.0,0.0,0.0,0.0,0.0,0.0,0.0,0.0,0.0,0.0,0.0,0.0,0.0,0.0,0.0,0.0,0.0,0.0,0.0,0.0,0.0,0.0,0.0,0.0,0.0,0.0,0.0,0.0,0.0,0.0,0.0,0.0,0.0,0.0,0.0,0.0,0.0,0.0,0.0,0.0,0.0,0.0,0.0,0.0,0.0,0.0,0.0,0.0,0.0,0.0,0.0,0.0,0.0,0.0,0.0,0.0,0.0,0.0,0.0,0.0,0.0,0.0,0.0,0.0,0.0,0.0,0.0,0.0,0.0,0.0,0.0,0.0,0.0,0.0,0.0,0.0,0.0,0.0,0.0,0.0,0.0,0.0,0.0,0.0,0.0,0.0,0.0,0.0,0.0,0.0,0.0,0.0,0.0,0.0,0.0,0.0,0.0,0.0,0.0,0.0,0.0,0.0,0.0,0.0,0.0,0.0,0.0,0.0,0.0,0.0,0.0,0.0,0.0,0.0,0.0,0.0,0.0,0.0,0.0,0.0,0.0,0.0,0.0,0.0,0.0,0.0,0.0,0.0,0.0,0.0,0.0,0.0,0.0,0.0,0.0,0.0,0.0,0.0,0.0,0.0,0.0,0.0,0.0,0.0,0.0,0.0,0.0,0.0,0.0,0.0,0.0,0.0,0.0,0.0,0.0,0.0,0.0,0.0,0.0,0.0,0.0,0.0,1.8722,0.0,0.0,0.0,0.0,0.0,0.0,0.0,0.0,0.0,0.0,0.0,0.0,0.0,0.0,0.0,0.0,0.0,0.0,0.0,0.0,0.0,0.0,0.0,0.0,0.0,0.0,0.0,0.0,0.0,0.0,0.0,0.0,0.0,0.0,0.0,0.0,0.0,0.0,0.0,0.0,0.0,0.0,0.0,0.0,0.0,0.0,0.0,0.0,0.0,0.0,0.0,0.0,0.0,0.0,0.0,0.0,0.0,0.0,0.0,0.0,0.0,0.0,0.0,0.0,0.0,0.0,0.0,0.0,0.0,0.0,0.0,0.0,0.0,0.0,0.0,0.0,0.0,0.0,0.0,0.0,0.0,0.0,0.0,0.0,0.0,0.0,0.0,0.0,0.0,0.0,0.0,0.0,0.0,0.0,0.0,0.0,0.0,0.0,0.0,0.0,0.0,0.0,0.0,0.0,0.0,0.0,0.0,0.0,0.0,0.0,1.8936,1.873,1.8877,1.8854,1.8638,0.0,0.0,0.0,0.0,0.0,0.0,0.0,0.0,0.0,0.0,0.0,0.0,0.0,0.0,0.0,0.0,0.0,0.0,0.0,0.0,0.0,0.0,0.0,0.0,0.0,0.0,0.0,0.0,0.0,0.0,0.0,0.0,0.0,0.0,0.0,0.0,0.0,0.0,0.0,0.0,0.0,0.0,0.0,0.0,0.0,0.0,0.0,0.0,0.0,0.0,0.0,0.0,0.0,0.0,0.0,0.0,0.0,0.0,0.0,0.0,0.0,0.0,0.0,0.0,0.0,0.0,0.0,0.0,0.0,0.0,0.0,0.0,0.0,0.0,0.0,0.0,0.0,0.0,0.0,0.0,0.0,0.0,0.0,0.0,0.0,0.0,0.0,0.0,0.0,0.0,0.0,0.0,0.0,0.0,0.0,0.0,0.0,0.0,0.0,0.0,0.0,0.0,0.0,0.0,0.0,0.0,0.0,0.0,0.0,0.0,0.0,0.0,1.9191,1.8926,1.8494,0.0,0.0,0.0,0.0,0.0,0.0,0.0,0.0,0.0,0.0,0.0,0.0,0.0,0.0,0.0,0.0,0.0,0.0,0.0,0.0,0.0,0.0,0.0,0.0,0.0,0.0,0.0,0.0,0.0,0.0,0.0,0.0,0.0,0.0,0.0,0.0,0.0,0.0,0.0,0.0,0.0,0.0,0.0,0.0,0.0,0.0,0.0,0.0,0.0,0.0,0.0,0.0,0.0,0.0,0.0,0.0,0.0,0.0,0.0,0.0,0.0,0.0,0.0,0.0,0.0,0.0,0.0,0.0,0.0,0.0,0.0,0.0,0.0,0.0,0.0,0.0,0.0,0.0,0.0,0.0,0.0,0.0,0.0,0.0,0.0,0.0,0.0,0.0,0.0,0.0,0.0,0.0,0.0,0.0,0.0,0.0,0.0,0.0,0.0,0.0,0.0,0.0,0.0,0.0,0.0,0.0,0.0,0.0,0.0,0.0,1.9326,1.9297,1.8901,0.0,1.808,0.0,0.0,0.0,0.0,0.0,0.0,0.0,0.0,0.0,0.0,0.0,0.0,0.0,0.0,0.0,0.0,0.0,0.0,0.0,0.0,0.0,0.0,0.0,0.0,0.0,0.0,0.0,0.0,0.0,0.0,0.0,0.0,0.0,0.0,0.0,0.0,0.0,0.0,0.0,0.0,0.0,0.0,0.0,0.0,0.0,0.0,0.0,0.0,0.0,0.0,0.0,0.0,0.0,0.0,0.0,0.0,0.0,0.0,0.0,0.0,0.0,0.0,0.0,0.0,0.0,0.0,0.0,0.0,0.0,0.0,0.0,0.0,0.0,0.0,0.0,0.0,0.0,0.0,0.0,0.0,0.0,0.0,0.0,0.0,0.0,0.0,0.0,0.0,0.0,0.0,0.0,0.0,0.0,0.0,0.0,0.0,0.0,0.0,0.0,0.0,0.0,0.0,0.0,0.0,0.0,0.0,0.0,0.0,0.0,0.0,1.9564,2.0068,1.9379,1.8459,0.0,0.0,0.0,0.0,0.0,0.0,0.0,0.0,0.0,0.0,0.0,0.0,0.0,0.0,0.0,0.0,0.0,0.0,0.0,0.0,0.0,0.0,0.0,0.0,0.0,0.0,0.0,0.0,0.0,0.0,0.0,0.0,0.0,0.0,0.0,0.0,0.0,0.0,0.0,0.0,0.0,0.0,0.0,0.0,0.0,0.0,0.0,0.0,0.0,0.0,0.0,0.0,0.0,0.0,0.0,0.0,0.0,0.0,0.0,0.0,0.0,0.0,0.0,0.0,0.0,0.0,0.0,0.0,0.0,0.0,0.0,0.0,0.0,0.0,0.0,0.0,0.0,0.0,0.0,0.0,0.0,0.0,0.0,0.0,0.0,0.0,0.0,0.0,0.0,0.0,0.0,0.0,0.0,0.0,0.0,0.0,0.0,0.0,0.0,0.0,0.0,0.0,0.0,0.0,0.0,0.0,0.0,0.0,0.0,0.0,1.9292,1.9371,1.9491,1.8917,1.7885,1.6386,0.0,0.0,0.0,0.0,0.0,0.0,0.0,0.0,0.0,0.0,0.0,0.0,0.0,0.0,0.0,0.0,0.0,0.0,0.0,0.0,0.0,0.0,0.0,0.0,0.0,0.0,0.0,0.0,0.0,0.0,0.0,0.0,0.0,0.0,0.0,0.0,0.0,0.0,0.0,0.0,0.0,0.0,0.0,0.0,0.0,0.0,0.0,0.0,0.0,0.0,0.0,0.0,0.0,0.0,0.0,0.0,0.0,0.0,0.0,0.0,0.0,0.0,0.0,0.0,0.0,0.0,0.0,0.0,0.0,0.0,0.0,0.0,0.0,0.0,0.0,0.0,0.0,0.0,0.0,0.0,0.0,0.0,0.0,0.0,0.0,0.0,0.0,0.0,0.0,0.0,0.0,0.0,0.0,0.0,0.0,0.0,0.0,0.0,0.0,0.0,0.0,0.0,0.0,0.0,0.0,0.0,0.0,0.0,1.9253,1.9282,1.8527,1.7021,1.6841,1.6407,0.0,0.0,0.0,0.0,0.0,0.0,0.0,0.0,0.0,0.0,0.0,0.0,0.0,0.0,0.0,0.0,0.0,0.0,0.0,0.0,0.0,0.0,0.0,0.0,0.0,0.0,0.0,0.0,0.0,0.0,0.0,0.0,0.0,0.0,0.0,0.0,0.0,0.0,0.0,0.0,0.0,0.0,0.0,0.0,0.0,0.0,0.0,0.0,0.0,0.0,0.0,0.0,0.0,0.0,0.0,0.0,0.0,0.0,0.0,0.0,0.0,0.0,0.0,0.0,0.0,0.0,0.0,0.0,0.0,0.0,0.0,0.0,0.0,0.0,0.0,0.0,0.0,0.0,0.0,0.0,0.0,0.0,0.0,0.0,0.0,0.0,0.0,0.0,0.0,0.0,0.0,0.0,0.0,0.0,0.0,0.0,0.0,0.0,0.0,0.0,0.0,0.0,0.0,0.0,0.0,0.0,0.0,0.0,0.0,1.7703,1.838,1.8332,1.7422,1.7875,1.7764,0.0,0.0,0.0,0.0,0.0,0.0,0.0,0.0,0.0,0.0,0.0,0.0,0.0,0.0,0.0,0.0,0.0,0.0,0.0,0.0,0.0,0.0,0.0,0.0,0.0,0.0,0.0,0.0,0.0,0.0,0.0,0.0,0.0,0.0,0.0,0.0,0.0,0.0,0.0,0.0,0.0,0.0,0.0,0.0,0.0,0.0,0.0,0.0,0.0,0.0,0.0,0.0,0.0,0.0,0.0,0.0,0.0,0.0,0.0,0.0,0.0,0.0,0.0,0.0,0.0,0.0,0.0,0.0,0.0,0.0,0.0,0.0,0.0,0.0,0.0,0.0,0.0,0.0,0.0,0.0,0.0,0.0,0.0,0.0,0.0,0.0,0.0,0.0,0.0,0.0,0.0,0.0,0.0,0.0,0.0,0.0,0.0,0.0,0.0,0.0,0.0,0.0,0.0,0.0,0.0,0.0,0.0,0.0,0.0,1.709,0.0,1.7937,1.7303,1.7763,1.7733,0.0,0.0,0.0,0.0,0.0,0.0,0.0,0.0,0.0,0.0,0.0,0.0,0.0,0.0,0.0,0.0,0.0,0.0,0.0,0.0,0.0,0.0,0.0,0.0,0.0,0.0,0.0,0.0,0.0,0.0,0.0,0.0,0.0,0.0,0.0,0.0,0.0,0.0,0.0,0.0,0.0,0.0,0.0,0.0,0.0,0.0,0.0,0.0,0.0,0.0,0.0,0.0,0.0,0.0,0.0,0.0,0.0,0.0,0.0,0.0,0.0,0.0,0.0,0.0,0.0,0.0,0.0,0.0,0.0,0.0,0.0,0.0,0.0,0.0,0.0,0.0,0.0,0.0,0.0,0.0,0.0,0.0,0.0,0.0,0.0,0.0,0.0,0.0,0.0,0.0,0.0,0.0,0.0,0.0,0.0,0.0,0.0,0.0,0.0,0.0,0.0,0.0,0.0,0.0,0.0,0.0,0.0,0.0,1.7668,1.7668,1.7646,1.7276,1.6448,1.6234,1.6049,0.0,0.0,0.0,0.0,0.0,0.0,0.0,0.0,0.0,0.0,0.0,0.0,0.0,0.0,0.0,0.0,0.0,0.0,0.0,0.0,0.0,0.0,0.0,0.0,0.0,0.0,0.0,0.0,0.0,0.0,0.0,0.0,0.0,0.0,0.0,0.0,0.0,0.0,0.0,0.0,0.0,0.0,0.0,0.0,0.0,0.0,0.0,0.0,0.0,0.0,0.0,0.0,0.0,0.0,0.0,0.0,0.0,0.0,0.0,0.0,0.0,0.0,0.0,0.0,0.0,0.0,0.0,0.0,0.0,0.0,0.0,0.0,0.0,0.0,0.0,0.0,0.0,0.0,0.0,0.0,0.0,0.0,0.0,0.0,0.0,0.0,0.0,0.0,0.0,0.0,0.0,0.0,0.0,0.0,0.0,0.0,0.0,0.0,0.0,0.0,0.0,0.0,0.0,0.0,0.0,0.0,0.0,0.0,0.0,1.7131,1.6779,1.667,1.681,1.6556,1.6417,0.0,0.0,0.0,0.0,0.0,0.0,0.0,0.0,0.0,0.0,0.0,0.0,0.0,0.0,0.0,0.0,0.0,0.0,0.0,0.0,0.0,0.0,0.0,0.0,0.0,0.0,0.0,0.0,0.0,0.0,0.0,0.0,0.0,0.0,0.0,0.0,0.0,0.0,0.0,0.0,0.0,0.0,0.0,0.0,0.0,0.0,0.0,0.0,0.0,0.0,0.0,0.0,0.0,0.0,0.0,0.0,0.0,0.0,0.0,0.0,0.0,0.0,0.0,0.0,0.0,0.0,0.0,0.0,0.0,0.0,0.0,0.0,0.0,0.0,0.0,0.0,0.0,0.0,0.0,0.0,0.0,0.0,0.0,0.0,0.0,0.0,0.0,0.0,0.0,0.0,0.0,0.0,0.0,0.0,0.0,0.0,0.0,0.0,0.0,0.0,0.0,0.0,0.0,0.0,0.0,0.0,0.0,0.0,0.0,1.6771,1.6456,1.6455,1.6847,1.6595,1.6447,1.6447,0.0,0.0,0.0,0.0,0.0,0.0,0.0,0.0,0.0,0.0,0.0,0.0,0.0,0.0,0.0,0.0,0.0,0.0,0.0,0.0,0.0,0.0,0.0,0.0,0.0,0.0,0.0,0.0,0.0,0.0,0.0,0.0,0.0,0.0,0.0,0.0,0.0,0.0,0.0,0.0,0.0,0.0,0.0,0.0,0.0,0.0,0.0,0.0,0.0,0.0,0.0,0.0,0.0,0.0,0.0,0.0,0.0,0.0,0.0,0.0,0.0,0.0,0.0,0.0,0.0,0.0,0.0,0.0,0.0,0.0,0.0,0.0,0.0,0.0,0.0,0.0,0.0,0.0,0.0,0.0,0.0,0.0,0.0,0.0,0.0,0.0,0.0,0.0,0.0,0.0,0.0,0.0,0.0,0.0,0.0,0.0,0.0,0.0,0.0,0.0,0.0,0.0,0.0,0.0,0.0,0.0,0.0,0.0,1.6541,1.6558,1.6558,1.6588,1.6312,1.617,0.0,0.0,0.0,0.0,0.0,0.0,0.0,0.0,0.0,0.0,0.0,0.0,0.0,0.0,0.0,0.0,0.0,0.0,0.0,0.0,0.0,0.0,0.0,0.0,0.0,0.0,0.0,0.0,0.0,0.0,0.0,0.0,0.0,0.0,0.0,0.0,0.0,0.0,0.0,0.0,0.0,0.0,0.0,0.0,0.0,0.0,0.0,0.0,0.0,0.0,0.0,0.0,0.0,0.0,0.0,0.0,0.0,0.0,0.0,0.0,0.0,0.0,0.0,0.0,0.0,0.0,0.0,0.0,0.0,0.0,0.0,0.0,0.0,0.0,0.0,0.0,0.0,0.0,0.0,0.0,0.0,0.0,0.0,0.0,0.0,0.0,0.0,0.0,0.0,0.0,0.0,0.0,0.0,0.0,0.0,0.0,0.0,0.0,0.0,0.0,0.0,0.0,0.0,0.0,0.0,0.0,0.0,0.0,0.0,1.6015,1.6015,1.6116,1.6289,1.6045,1.5903,0.0,0.0,0.0,0.0,0.0,0.0,0.0,0.0,0.0,0.0,0.0,0.0,0.0,0.0,0.0,0.0,0.0,0.0,0.0,0.0,0.0,0.0,0.0,0.0,0.0,0.0,0.0,0.0,0.0,0.0,0.0,0.0,0.0,0.0,0.0,0.0,0.0,0.0,0.0,0.0,0.0,0.0,0.0,0.0,0.0,0.0,0.0,0.0,0.0,0.0,0.0,0.0,0.0,0.0,0.0,0.0,0.0,0.0,0.0,0.0,0.0,0.0,0.0,0.0,0.0,0.0,0.0,0.0,0.0,0.0,0.0,0.0,0.0,0.0,0.0,0.0,0.0,0.0,0.0,0.0,0.0,0.0,0.0,0.0,0.0,0.0,0.0,0.0,0.0,0.0,0.0,0.0,0.0,0.0,0.0,0.0,0.0,0.0,0.0,0.0,0.0,0.0,0.0,0.0,0.0,0.0,0.0,0.0,1.4758,1.4352,1.4232,1.4502,1.5207,1.5618,1.5801,0.0,0.0,0.0,0.0,0.0,0.0,0.0,0.0,0.0,0.0,0.0,0.0,0.0,0.0,0.0,0.0,0.0,0.0,0.0,0.0,0.0,0.0,0.0,0.0,0.0,0.0,0.0,0.0,0.0,0.0,0.0,0.0,0.0,0.0,0.0,0.0,0.0,0.0,0.0,0.0,0.0,0.0,0.0,0.0,0.0,0.0,0.0,0.0,0.0,0.0,0.0,0.0,0.0,0.0,0.0,0.0,0.0,0.0,0.0,0.0,0.0,0.0,0.0,0.0,0.0,0.0,0.0,0.0,0.0,0.0,0.0,0.0,0.0,0.0,0.0,0.0,0.0,0.0,0.0,0.0,0.0,0.0,0.0,0.0,0.0,0.0,0.0,0.0,0.0,0.0,0.0,0.0,0.0,0.0,0.0,0.0,0.0,0.0,0.0,0.0,0.0,0.0,0.0,0.0,0.0,0.0,0.0,0.0,1.3229,1.2285,1.2023,1.2484,1.3661,1.4884,1.5635,0.0,0.0,0.0,0.0,0.0,0.0,0.0,0.0,0.0,0.0,0.0,0.0,0.0,0.0,0.0,0.0,0.0,0.0,0.0,0.0,0.0,0.0,0.0,0.0,0.0,0.0,0.0,0.0,0.0,0.0,0.0,0.0,0.0,0.0,0.0,0.0,0.0,0.0,0.0,0.0,0.0,0.0,0.0,0.0,0.0,0.0,0.0,0.0,0.0,0.0,0.0,0.0,0.0,0.0,0.0,0.0,0.0,0.0,0.0,0.0,0.0,0.0,0.0,0.0,0.0,0.0,0.0,0.0,0.0,0.0,0.0,0.0,0.0,0.0,0.0,0.0,0.0,0.0,0.0,0.0,0.0,0.0,0.0,0.0,0.0,0.0,0.0,0.0,0.0,0.0,0.0,0.0,0.0,0.0,0.0,0.0,0.0,0.0,0.0,0.0,0.0,0.0,0.0,0.0,0.0,0.0,0.0,0.0,1.2212,1.1999,1.1921,1.2023,1.2334,1.3409,1.4502,0.0,0.0,0.0,0.0,0.0,0.0,0.0,0.0,0.0,0.0,0.0,0.0,0.0,0.0,0.0,0.0,0.0,0.0,0.0,0.0,0.0,0.0,0.0,0.0,0.0,0.0,0.0,0.0,0.0,0.0,0.0,0.0,0.0,0.0,0.0,0.0,0.0,0.0,0.0,0.0,0.0,0.0,0.0,0.0,0.0,0.0,0.0,0.0,2.1798,0.0,0.0,0.0,0.0,0.0,0.0,0.0,0.0,0.0,0.0,0.0,0.0,0.0,0.0,0.0,0.0,0.0,0.0,0.0,0.0,0.0,0.0,0.0,0.0,0.0,0.0,0.0,0.0,0.0,0.0,0.0,0.0,0.0,0.0,0.0,0.0,0.0,0.0,0.0,0.0,0.0,0.0,0.0,0.0,0.0,0.0,0.0,0.0,0.0,0.0,0.0,0.0,0.0,0.0,0.0,0.0,0.0,0.0,0.0,1.0774,1.0293,1.0121,1.0362,1.097,1.1439,1.2649,0.0,0.0,0.0,0.0,0.0,0.0,0.0,0.0,0.0,0.0,0.0,0.0,0.0,0.0,0.0,0.0,0.0,0.0,0.0,0.0,0.0,0.0,0.0,0.0,0.0,0.0,0.0,0.0,0.0,0.0,0.0,0.0,0.0,0.0,0.0,0.0,0.0,0.0,0.0,0.0,0.0,0.0,0.0,0.0,0.0,0.0,0.0,0.0,0.0,0.0,0.0,0.0,0.0,0.0,0.0,0.0,0.0,0.0,0.0,0.0,0.0,0.0,0.0,0.0,0.0,0.0,0.0,0.0,0.0,0.0,0.0,0.0,0.0,0.0,0.0,0.0,0.0,0.0,0.0,0.0,0.0,0.0,0.0,0.0,0.0,0.0,0.0,0.0,0.0,0.0,0.0,0.0,0.0,0.0,0.0,0.0,0.0,0.0,0.0,0.0,0.0,0.0,0.0,0.0,0.0,0.0,0.0,1.0313,0.9439,0.8382,0.8113,0.8552,0.9657,0.946,1.0676,1.3416,0.0,0.0,0.0,0.0,0.0,0.0,0.0,0.0,0.0,0.0,0.0,0.0,0.0,0.0,0.0,0.0,0.0,0.0,0.0,0.0,0.0,0.0,0.0,0.0,0.0,0.0,0.0,0.0,0.0,0.0,0.0,0.0,0.0,0.0,0.0,0.0,0.0,0.0,2.0885,2.0907,0.0,0.0,0.0,0.0,0.0,0.0,0.0,0.0,2.1833,0.0,0.0,0.0,0.0,0.0,0.0,0.0,0.0,0.0,0.0,0.0,0.0,0.0,0.0,0.0,0.0,0.0,0.0,0.0,0.0,0.0,0.0,0.0,0.0,0.0,0.0,0.0,0.0,0.0,0.0,0.0,0.0,0.0,0.0,0.0,0.0,0.0,0.0,0.0,0.0,0.0,0.0,0.0,0.0,0.0,0.0,0.0,0.0,0.0,0.0,0.0,0.0,0.0,0.0,0.0,0.0,0.863,0.9291,0.9167,0.8088,0.8013,0.8113,0.8311,0.8287,0.9435,1.1823,0.0,0.0,0.0,0.0,0.0,0.0,0.0,0.0,0.0,0.0,0.0,0.0,0.0,0.0,0.0,0.0,0.0,0.0,0.0,0.0,0.0,0.0,0.0,0.0,0.0,0.0,0.0,0.0,0.0,0.0,0.0,0.0,0.0,0.0,0.0,0.0,0.0,0.0,0.0,2.0419,2.0419,0.0,0.0,0.0,0.0,0.0,0.0,0.0,0.0,2.2712,0.0,0.0,0.0,0.0,0.0,0.0,0.0,0.0,0.0,0.0,0.0,0.0,0.0,0.0,0.0,0.0,0.0,0.0,0.0,0.0,0.0,0.0,0.0,0.0,0.0,0.0,0.0,0.0,0.0,0.0,0.0,0.0,0.0,0.0,0.0,0.0,0.0,0.0,0.0,0.0,0.0,0.0,0.0,0.0,0.0,0.0,0.0,0.0,0.0,0.0,0.0,0.0,0.0,0.0,0.0,0.8651,0.8577,0.8382,0.8013,0.7988,0.7988,0.7988,0.7988,0.88,0.0,0.0,0.0,0.0,0.0,0.0,0.0,0.0,0.0,0.0,0.0,0.0,0.0,0.0,0.0,0.0,0.0,0.0,0.0,0.0,0.0,0.0,0.0,0.0,0.0,0.0,0.0,0.0,0.0,0.0,0.0,0.0,0.0,0.0,0.0,0.0,0.0,0.0,0.0,0.0,2.0214,2.0258,2.0443,0.0,0.0,0.0,0.0,0.0,0.0,2.235,2.2588,0.0,0.0,0.0,0.0,0.0,0.0,0.0,0.0,0.0,0.0,0.0,0.0,0.0,0.0,0.0,0.0,0.0,0.0,0.0,0.0,0.0,0.0,0.0,0.0,0.0,0.0,0.0,0.0,0.0,0.0,0.0,0.0,0.0,0.0,0.0,0.0,0.0,0.0,0.0,0.0,0.0,0.0,0.0,0.0,0.0,0.0,0.0,0.0,0.0,0.0,0.0,0.0,0.0,0.0,0.0,0.8747,0.8184,0.7839,0.7839,0.7892,0.7917,0.7917,0.7963,0.8503,0.0,0.0,0.0,0.0,0.0,0.0,0.0,0.0,0.0,0.0,0.0,0.0,0.0,0.0,0.0,0.0,0.0,0.0,0.0,0.0,0.0,0.0,0.0,0.0,0.0,0.0,0.0,0.0,0.0,0.0,0.0,0.0,0.0,0.0,0.0,0.0,0.0,0.0,0.0,0.0,0.0,2.0147,2.0418,2.0451,0.0,0.0,0.0,0.0,2.1987,2.2129,0.0,0.0,0.0,0.0,0.0,0.0,0.0,0.0,0.0,0.0,0.0,0.0,0.0,0.0,0.0,0.0,0.0,0.0,0.0,0.0,0.0,0.0,0.0,0.0,0.0,0.0,0.0,0.0,0.0,0.0,0.0,0.0,0.0,0.0,0.0,0.0,0.0,0.0,0.0,0.0,0.0,0.0,0.0,0.0,0.0,0.0,0.0,0.0,0.0,0.0,0.0,0.0,0.0,0.0,0.0,0.0,0.7509,0.8244,0.8223,0.7363,0.7519,0.7646,0.7646,0.7864,0.8503,0.0,0.0,0.0,0.0,0.0,0.0,0.0,0.0,0.0,0.0,0.0,0.0,0.0,0.0,0.0,0.0,0.0,0.0,0.0,0.0,0.0,0.0,0.0,0.0,0.0,0.0,0.0,0.0,0.0,0.0,0.0,0.0,0.0,0.0,0.0,0.0,0.0,0.0,0.0,0.0,0.0,1.9942,1.9982,1.999,2.016,0.0,0.0,2.1386,2.1836,2.2234,0.0,0.0,0.0,0.0,0.0,0.0,0.0,0.0,0.0,0.0,0.0,0.0,0.0,0.0,0.0,0.0,0.0,0.0,0.0,0.0,0.0,0.0,0.0,0.0,0.0,0.0,0.0,0.0,0.0,0.0,0.0,0.0,0.0,0.0,0.0,0.0,0.0,0.0,0.0,0.0,0.0,0.0,0.0,0.0,0.0,0.0,0.0,0.0,0.0,0.0,0.0,0.0,0.0,0.0,0.0,0.7279,0.7017,0.7431,0.7506,0.721,0.7313,0.7363,0.7363,0.749,0.7985,0.0,0.0,0.0,0.0,0.0,0.0,0.0,0.0,0.0,0.0,0.0,0.0,0.0,0.0,0.0,0.0,0.0,0.0,0.0,0.0,0.0,0.0,0.0,0.0,0.0,0.0,0.0,0.0,0.0,0.0,0.0,0.0,0.0,0.0,0.0,0.0,0.0,0.0,0.0,0.0,0.0,0.0,2.0432,2.0464,0.0,0.0,0.0,2.1217,2.172,0.0,0.0,0.0,0.0,0.0,0.0,0.0,0.0,0.0,0.0,0.0,0.0,0.0,0.0,0.0,0.0,0.0,0.0,0.0,0.0,0.0,0.0,0.0,0.0,0.0,0.0,0.0,0.0,0.0,0.0,0.0,0.0,0.0,0.0,0.0,0.0,0.0,0.0,0.0,0.0,0.0,0.0,0.0,0.0,0.0,0.0,0.0,0.0,0.0,0.0,0.0,0.0,0.0,0.0,0.0,0.0,0.0,0.6762,0.674,0.6855,0.7086,0.7162,0.7213,0.7213,0.7263,0.0,0.0,0.0,0.0,0.0,0.0,0.0,0.0,0.0,0.0,0.0,0.0,0.0,0.0,0.0,0.0,0.0,0.0,0.0,0.0,0.0,0.0,0.0,0.0,0.0,0.0,0.0,1.5155,0.0,0.0,0.0,0.0,0.0,0.0,0.0,0.0,0.0,0.0,0.0,0.0,0.0,0.0,2.0235,2.0261,2.0343,2.0364,0.0,0.0,2.0893,2.1025,2.1474,2.1895,0.0,0.0,0.0,0.0,0.0,0.0,0.0,0.0,0.0,0.0,0.0,0.0,0.0,0.0,0.0,0.0,0.0,0.0,0.0,0.0,0.0,0.0,0.0,0.0,0.0,0.0,0.0,0.0,0.0,0.0,0.0,0.0,0.0,0.0,0.0,0.0,0.0,0.0,0.0,0.0,0.0,0.0,0.0,0.0,0.0,0.0,0.0,0.0,0.0,0.0,0.0,0.0,0.0,0.0,0.0,0.6603,0.6605,0.6688,0.6824,0.7089,0.7191,0.7191,0.7433,0.7591,0.0,0.0,0.0,0.0,0.0,0.0,0.0,0.0,0.0,0.0,0.0,0.0,0.0,0.0,0.0,0.0,0.0,0.0,0.0,0.0,0.0,0.0,0.0,0.0,0.0,0.0,0.0,0.0,0.0,0.0,0.0,0.0,0.0,0.0,0.0,0.0,0.0,0.0,0.0,0.0,0.0,1.9469,1.8684,1.88,1.8949,0.0,0.0,2.0347,1.9508,2.084,2.1886,2.154,0.0,0.0,0.0,0.0,0.0,0.0,0.0,0.0,0.0,0.0,0.0,0.0,0.0,0.0,0.0,0.0,0.0,0.0,0.0,0.0,0.0,0.0,0.0,0.0,0.0,0.0,0.0,0.0,0.0,0.0,0.0,0.0,0.0,0.0,0.0,0.0,0.0,0.0,0.0,0.0,0.0,0.0,0.0,0.0,0.0,0.0,0.0,0.0,0.0,0.0,0.0,0.0,0.0,0.6658,0.6733,0.6704,0.6755,0.6798,0.6907,0.6959,0.6959,0.7068,0.7331,0.0,0.0,0.0,0.0,0.0,0.0,0.0,0.0,0.0,0.0,0.0,0.0,0.0,0.0,0.0,0.0,0.0,0.0,0.0,0.0,0.0,0.0,0.0,0.0,0.0,0.0,0.0,0.0,1.5101,1.5428,1.5958,0.0,0.0,0.0,0.0,0.0,0.0,0.0,0.0,0.0,0.0,1.9279,1.8928,1.8972,0.0,0.0,1.9447,1.9607,1.9243,2.029,2.1086,2.0943,2.1202,0.0,0.0,0.0,0.0,0.0,0.0,0.0,0.0,0.0,0.0,0.0,0.0,0.0,0.0,0.0,0.0,0.0,0.0,0.0,0.0,0.0,0.0,0.0,0.0,0.0,0.0,0.0,0.0,0.0,0.0,0.0,0.0,0.0,0.0,0.0,0.0,0.0,0.0,0.0,0.0,0.0,0.0,0.0,0.0,0.0,0.0,0.0,0.0,0.0,0.0,0.0,0.0,0.6823,0.6858,0.6855,0.6872,0.6934,0.6907,0.6907,0.6934,0.6934,0.7175,0.0,0.0,0.0,0.0,0.0,0.0,0.0,0.0,0.0,0.0,0.0,0.0,0.0,0.0,0.0,0.0,0.0,0.0,0.0,0.0,0.0,0.0,0.0,0.0,0.0,0.0,0.0,0.0,1.5437,1.5722,1.5976,0.0,0.0,0.0,0.0,0.0,0.0,0.0,0.0,0.0,0.0,1.8727,1.8478,1.8773,1.8973,1.9001,1.9521,1.9828,1.9556,2.03,2.0805,2.0536,0.0,0.0,0.0,0.0,0.0,0.0,0.0,0.0,0.0,0.0,0.0,0.0,0.0,0.0,0.0,0.0,0.0,0.0,0.0,0.0,0.0,0.0,0.0,0.0,0.0,0.0,0.0,0.5687,0.0,0.0,0.4985,0.0,0.0,0.0,0.0,0.0,0.0,0.0,0.0,0.0,0.0,0.0,0.0,0.0,0.0,0.0,0.0,0.0,0.0,0.0,0.0,0.0,0.0,0.6864,0.6978,0.701,0.7062,0.7193,0.7202,0.7196,0.7196,0.7202,0.7202,0.7227,0.0,0.0,0.0,0.0,0.0,0.0,0.0,0.0,0.0,0.0,0.0,0.0,0.0,0.0,0.0,0.0,0.0,0.0,0.0,0.0,0.0,0.0,0.0,0.0,0.0,0.0,1.5475,1.5761,1.6015,0.0,0.0,0.0,0.0,0.0,0.0,0.0,0.0,0.0,0.0,1.7952,1.7659,1.6908,1.7767,1.8501,1.8507,2.0181,2.1202,2.0335,2.0952,2.1295,0.0,0.0,0.0,0.0,0.0,0.0,0.0,0.0,0.0,0.0,0.0,0.0,0.0,0.0,0.0,0.0,0.0,0.0,0.0,0.0,0.0,0.0,0.0,0.0,0.0,0.0,0.0,0.5857,0.5636,0.0,0.0,0.0,0.0,0.0,0.0,0.0,0.0,0.0,0.0,0.0,0.6139,0.5804,0.0,0.0,0.0,0.0,0.0,0.0,0.0,0.0,0.0,0.0,0.0,0.0,0.7084,0.7152,0.7152,0.7141,0.721,0.721,0.721,0.721,0.721,0.721,0.721,0.0,0.0,0.0,0.0,0.0,0.0,0.0,0.0,0.0,0.0,0.0,0.0,0.0,0.0,0.0,0.0,0.0,0.0,0.0,0.0,0.0,0.0,0.0,0.0,0.0,1.5728,0.0,0.0,0.0,0.0,0.0,0.0,0.0,0.0,0.0,0.0,0.0,1.7906,1.8125,1.7865,1.7531,1.7277,1.7553,1.7908,0.0,0.0,0.0,0.0,0.0,0.0,0.0,0.0,0.0,0.0,0.0,0.0,0.0,0.0,1.8544,1.8407,1.809,1.7924,1.8193,0.0,0.0,0.0,0.0,0.0,0.0,0.0,0.0,0.0,0.0,0.0,0.0,0.0,0.0,0.571,0.0,0.595,0.0,0.0,0.0,0.0,0.0,0.0,0.0,0.0,0.5325,0.5554,0.6248,0.5721,0.5766,0.0,0.6089,0.5712,0.0,0.0,0.0,0.0,0.0,0.0,0.0,0.0,0.7009,0.7217,0.7245,0.7267,0.7308,0.7282,0.731,0.731,0.7308,0.7279,0.731,0.7269,0.7245,0.0,0.0,0.0,0.0,0.0,0.0,0.0,0.0,0.0,0.0,0.0,0.0,0.0,0.0,0.0,0.0,0.0,0.0,0.0,0.0,0.0,0.0,0.0,1.5896,0.0,0.0,0.0,0.0,0.0,0.0,0.0,0.0,0.0,1.7597,1.7399,1.7458,1.8089,1.7855,1.7654,1.7744,0.0,0.0,0.0,0.0,0.0,0.0,0.0,1.9722,1.9722,1.9424,1.94,1.9971,1.9576,1.9004,1.8416,0.0,0.0,1.8146,1.8108,1.8185,1.8476,1.8506,1.8589,1.879,1.9003,1.9217,0.0,0.0,0.0,0.0,0.0,0.0,0.0,0.0,0.5801,0.5881,0.0,0.6503,0.0,0.0,0.0,0.0,0.0,0.4377,0.0,0.0,0.5312,0.5322,0.5249,0.4751,0.4791,0.5268,0.4735,0.4707,0.532,0.6314,0.0,0.0,0.0,0.0,0.0,0.0,0.6661,0.728,0.7313,0.7368,0.7479,0.7513,0.7516,0.7513,0.7513,0.7484,0.7484,0.7373,0.7311,0.7311,0.8043,0.0,0.0,0.0,0.0,0.0,0.0,0.0,0.0,0.0,0.0,0.0,0.0,0.0,0.0,0.0,0.0,0.0,0.0,0.0,0.0,1.5523,0.0,0.0,0.0,0.0,0.0,0.0,0.0,0.0,0.0,0.0,1.7242,1.7387,1.7629,1.7877,0.0,0.0,0.0,0.0,1.9624,1.9613,2.0365,2.0879,2.0869,2.021,1.967,1.967,0.0,0.0,1.8354,1.8354,1.8367,1.8324,1.8348,1.8324,1.8318,1.8312,1.8386,1.8594,1.8667,1.8692,1.8753,1.9227,1.9581,0.3309,0.0,0.0,0.0,0.0,0.4194,0.4861,0.5936,0.5934,0.5979,0.6008,0.6169,0.0,0.0,0.0,0.0,0.0,0.0,0.5406,0.5957,0.5569,0.5252,0.4995,0.4428,0.3892,0.3412,0.3211,0.3211,0.3412,0.3947,0.472,0.5747,0.0,0.0,0.0,0.0,0.7259,0.7435,0.7435,0.7454,0.7519,0.7519,0.7519,0.7519,0.7519,0.7519,0.7519,0.7457,0.7438,0.7435,0.7665,0.0,0.0,0.0,0.0,0.0,0.0,0.0,0.0,0.0,0.0,0.0,0.0,0.0,0.0,0.0,0.0,0.0,0.0,0.0,1.4857,1.5182,1.5525,0.0,0.0,0.0,0.0,0.0,0.0,0.0,0.0,0.0,1.8004,1.801,1.8088,0.0,0.0,1.8197,1.8281,1.8533,1.8778,1.897,1.9212,0.0,1.9632,1.9436,1.9285,1.9279,1.9064,1.8886,1.8886,1.8886,1.888,1.8886,1.888,1.888,1.8862,1.8541,1.8354,1.8416,1.841,1.8588,1.9041,1.9322,1.9517,0.3424,0.3392,0.3381,0.3864,0.4606,0.4604,0.5288,0.6394,0.6394,0.6414,0.6481,0.6484,0.6158,0.5597,0.4942,0.0,0.0,0.0,0.445,0.5017,0.4502,0.4181,0.3956,0.3353,0.2935,0.2608,0.2375,0.2346,0.2609,0.2865,0.348,0.45,0.0,0.0,0.623,0.6552,0.6896,0.7174,0.7177,0.7345,0.7657,0.766,0.7657,0.7657,0.7657,0.7657,0.766,0.7584,0.756,0.7589,0.7543,0.7892,0.0,0.0,0.0,0.0,0.0,0.0,0.0,0.0,0.0,0.0,0.0,1.2913,1.2913,0.0,0.0,0.0,1.3972,1.411,1.4341,1.5053,0.0,0.0,0.0,0.0,0.0,0.0,0.0,1.804,1.8281,1.8481,1.8456,1.8541,1.8596,1.8463,1.8444,1.8487,1.862,0.0,1.8729,1.8957,1.9026,1.9122,1.9382,1.9431,1.9392,1.9431,1.9425,1.9431,1.9431,1.9431,1.9431,1.9425,1.9431,1.9431,1.9431,1.9126,1.8885,1.8788,1.8849,1.9106,1.9644,1.9732,1.989,0.3291,0.3287,0.3245,0.397,0.5102,0.5128,0.5849,0.697,0.6926,0.6933,0.7054,0.6956,0.6593,0.5986,0.4366,0.0,0.2706,0.2396,0.2586,0.3055,0.2699,0.2494,0.238,0.1793,0.1765,0.2178,0.1679,0.1679,0.2181,0.236,0.2558,0.2766,0.3923,0.4842,0.546,0.5607,0.6002,0.672,0.6723,0.7097,0.7867,0.7903,0.7903,0.79,0.7903,0.79,0.7897,0.7769,0.7717,0.7712,0.7579,0.7894,0.867,0.0,0.0,0.0,0.0,0.0,0.0,0.0,0.0,0.0,0.0,0.0,0.0,0.0,0.0,0.0,1.408,0.0,1.3777,1.5059,0.0,0.0,0.0,1.8238,1.8324,1.8324,1.8336,1.8354,0.0,0.0,1.8778,1.9007,1.908,1.8844,1.8796,1.8874,1.9134,1.9145,1.9261,1.9485,1.9527,1.9618,1.979,1.9839,1.9833,1.9833,1.9881,1.9857,1.9851,1.989,1.9875,1.9851,1.9875,1.9869,1.9875,1.9878,1.9872,1.9594,1.9694,1.9951,2.0261,2.0348,2.0435,0.1506,0.1535,0.1719,0.3143,0.531,0.5308,0.6012,0.7066,0.6175,0.5795,0.5762,0.485,0.4385,0.4212,0.3791,0.339,0.2981,0.2933,0.2819,0.2698,0.217,0.1536,0.0837,0.0239,-0.0362,-0.0884,-0.1068,-0.1037,-0.0885,-0.0612,0.0429,0.2143,0.2807,0.3634,0.469,0.5447,0.6159,0.6853,0.6853,0.72,0.7869,0.7903,0.7903,0.7903,0.7903,0.7903,0.7903,0.7875,0.7862,0.7862,0.7834,0.7906,0.8087,0.8117,0.0,0.0,0.0,0.0,0.0,0.0,0.0,0.0,0.0,1.3344,1.3344,0.0,1.3601,0.0,1.3916,1.4066,1.4147,1.4948,0.0,0.0,1.703,1.7798,1.8534,1.8589,1.8668,1.8899,1.9152,1.9316,1.931,1.9551,1.9676,1.9603,1.9449,1.9412,1.9678,1.9727,1.9712,1.9805,1.979,1.9842,1.9887,1.9881,1.9899,1.9881,1.9887,1.9881,1.9887,1.9881,1.9881,1.9881,1.9881,1.9881,1.9899,2.0077,2.0192,2.0126,2.0017,1.9987,2.0314,2.0381,2.0574,0.1308,0.1309,0.1467,0.2561,0.4176,0.4206,0.4749,0.5547,0.4879,0.4581,0.4554,0.3891,0.332,0.2824,0.2784,0.2407,0.1754,0.1556,0.1411,0.12,0.072,0.0211,-0.0304,-0.0609,-0.1044,-0.1559,-0.156,-0.1565,-0.1511,-0.0692,0.0377,0.1664,0.2943,0.3924,0.4583,0.5211,0.5747,0.6089,0.6717,0.7344,0.8001,0.8032,0.8035,0.8032,0.8035,0.8032,0.8032,0.8032,0.8032,0.8035,0.8035,0.8032,0.8035,0.8032,0.8035,0.0,0.0,0.0,0.0,0.0,0.0,0.0,0.0,0.0,0.0,0.0,1.3967,1.3967,1.4076,1.4189,1.4271,1.499,1.561,1.6019,1.6701,1.7524,1.8457,1.8576,1.8811,1.9404,1.96,1.9691,1.9652,1.9824,1.9963,2.0044,1.9963,1.9872,1.9869,1.9881,1.9923,2.0071,2.009,2.011,2.0247,2.0231,2.0271,2.0265,2.0231,2.0231,2.0271,2.0265,2.0265,2.0237,2.0265,2.0231,2.0277,2.038,2.0483,2.0464,2.0374,2.0413,2.07,2.0632,2.0733,0.1448,0.1448,0.1511,0.1807,0.228,0.2339,0.2833,0.3586,0.3446,0.3276,0.3135,0.3165,0.2544,0.16,0.1561,0.0967,-0.0061,-0.0369,-0.0526,-0.0588,-0.0869,-0.0994,-0.0993,-0.0994,-0.1,-0.1013,-0.1013,-0.102,-0.0967,0.0483,0.1255,0.148,0.3671,0.4867,0.4997,0.5205,0.53,0.541,0.6597,0.7527,0.8202,0.8106,0.8108,0.8202,0.8202,0.8202,0.8202,0.8202,0.8202,0.8202,0.8202,0.8202,0.8202,0.8202,0.8202,0.0,0.9026,0.0,0.0,0.0,0.0,0.0,0.0,0.0,0.0,1.3608,1.4322,1.4314,1.435,1.4342,1.4426,1.5233,1.5779,1.5846,1.6586,1.7435,1.8323,1.8423,1.8812,1.979,1.9917,1.9941,1.9941,1.9959,2.0114,2.0285,2.035,2.0271,2.0083,2.0014,2.0138,2.0337,2.0362,2.0434,2.0609,2.0676,2.0676,2.0688,2.0664,2.07,2.067,2.0676,2.0688,2.0682,2.0664,2.0676,2.07,2.0688,2.0694,2.0682,2.0664,2.0727,2.0969,2.0894,2.0943,-0.039,-0.0361,-0.0152,0.0,0.0122,0.0398,0.1687,0.3529,0.2563,0.16,0.0703,0.0703,0.055,0.0337,0.0338,0.0061,-0.04,-0.0468,-0.066,-0.0913,-0.0954,-0.0991,-0.0991,-0.0992,-0.0993,-0.0996,-0.0995,-0.0997,-0.0967,0.0483,0.1577,0.2383,0.4035,0.5301,0.6064,0.0,0.0,0.0,0.7079,0.7527,0.8138,0.7658,0.7658,0.817,0.8202,0.0,0.8202,0.8202,0.8202,0.8202,0.8202,0.0,0.0,0.0,0.0,0.0,0.0,0.0,0.0,0.0,0.0,0.0,1.0735,1.2171,1.2655,1.3653,1.4352,1.4521,1.454,1.4672,1.4993,1.5728,1.6262,1.6434,1.7049,1.7794,1.8552,1.8618,1.8981,1.9781,2.0108,2.0235,2.0253,2.0416,2.0561,2.0603,2.0628,2.0616,2.0549,2.0525,2.0567,2.0622,2.0603,2.064,2.0694,2.07,2.07,2.07,2.07,2.07,2.07,2.07,2.07,2.07,2.07,2.07,2.07,2.07,2.07,2.07,2.07,2.07,2.077,2.0741,2.0839,-0.0458,-0.0458,-0.0308,-0.0247,0.0,-0.0062,0.068,0.1797,0.1158,0.0582,0.0,0.0,0.0,0.0,0.0,-0.0095,-0.0253,-0.0255,-0.0351,-0.0511,-0.0515,-0.0484,-0.0484,-0.0516,-0.0518,-0.0489,-0.0489,-0.0491,-0.0395,0.1676,0.2957,0.3484,0.5655,0.6971,0.7441,0.7493,0.7467,0.7392,0.736,0.7687,0.8345,0.8048,0.8048,0.8378,0.841,0.0,0.0,0.0,0.0,0.0,0.0,0.0,0.0,0.841,0.0,0.841,0.8375,0.8375,0.841,0.8897,0.8988,0.856,1.0036,1.1354,1.2209,1.2791,1.3411,1.4104,1.4194,1.4527,1.5299,1.5187,1.5331,1.6011,1.622,1.6831,1.8168,1.8744,1.931,2.0119,2.0422,2.0501,2.0507,2.0609,2.07,2.07,2.07,2.07,2.07,2.07,2.07,2.07,2.07,2.07,2.07,2.07,2.07,2.07,2.07,2.07,2.07,2.07,2.07,2.07,2.07,2.07,2.07,2.07,2.07,2.07,2.07,2.07,2.07,2.07,2.0804,0.0,0.0,0.0,0.0,0.0,0.0,0.0,0.0,0.0,0.0,0.0,0.0,0.0,0.0,0.0,0.0,0.0,0.0,0.0,0.0,0.0,0.0,0.0,0.0,0.0,0.0,0.0265,0.0233,0.0135,0.292,0.4166,0.4175,0.6564,0.7955,0.8241,0.8515,0.8347,0.7773,0.762,0.7888,0.8619,0.8549,0.8551,0.8649,0.8649,0.8649,0.8652,0.8652,0.8652,0.8649,0.8652,0.8652,0.8652,0.8652,0.8652,0.8649,0.8652,0.8649,0.8652,0.8652,0.8696,0.883,0.9684,1.0608,1.1499,1.1772,1.2326,1.3343,1.3475,1.3912,1.4914,1.44,1.4276,1.5282,1.5414,1.6196,1.7922,1.878,1.9622,2.0485,2.0688,2.07,2.0688,2.0694,2.07,2.07,2.07,2.07,2.07,2.07,2.07,2.07,2.07,2.07,2.07,2.07,2.07,2.07,2.07,2.07,2.07,2.07,2.07,2.07,2.07,2.07,2.07,2.07,2.07,2.07,2.07,2.07,2.07,2.07,2.077,0.0,0.0,0.0,0.0,0.0,0.0,0.0,0.0,0.0,0.0,0.0,0.0,0.0,0.0,0.0,0.0,0.0,0.0,0.0,0.0,0.0,0.0,0.0,0.0,0.0,0.0,0.1207,0.1175,0.0437,0.2887,0.368,0.2767,0.4099,0.563,0.6869,0.8203,0.8796,0.869,0.8042,0.804,0.8828,0.8275,0.8277,0.883,0.8862,0.8868,0.8868,0.8862,0.8868,0.8865,0.8865,0.8865,0.8865,0.8859,0.8865,0.8865,0.8865,0.8865,0.8862,0.8865,0.8873,0.8889,0.9044,0.9553,1.0585,1.1523,1.2155,1.2327,1.236,1.2455,1.2855,1.3583,1.4134,1.4696,1.6039,1.7328,1.8103,1.887,1.9588,2.0341,2.07,2.0561,2.0417,2.0527,2.0561,2.0631,2.0631,2.07,2.07,2.07,2.07,2.07,2.07,2.07,2.07,2.07,2.07,2.07,2.07,2.07,2.07,2.07,2.07,2.07,2.07,2.07,2.07,2.07,2.07,2.07,2.07,2.07,2.07,2.07,2.0706,0.0,0.0,0.0,0.0,0.0,0.0,0.0,0.0,0.0,0.0,0.0,0.0,0.0,0.0,0.0,0.0,0.0,0.0,0.0,0.0,0.0,0.0,0.0,0.0,0.0,0.0,0.0652,0.0619,0.0241,0.2096,0.2757,0.2289,0.4399,0.632,0.7789,0.8566,0.8949,0.9011,0.8583,0.8514,0.8879,0.8604,0.8601,0.8916,0.8916,0.8916,0.8916,0.8916,0.8916,0.8916,0.8916,0.8916,0.8916,0.8916,0.8916,0.8916,0.8916,0.8916,0.8916,0.8979,0.9014,0.8984,0.9073,0.9319,0.9812,1.024,1.0718,1.1312,1.145,1.1811,1.2449,1.2492,1.2734,1.3452,1.4311,1.5186,1.6136,1.7087,1.7789,1.811,1.8221,1.8221,1.8215,1.8931,1.9431,1.95,2.0063,2.0631,2.0665,2.0665,2.0665,2.07,2.07,2.07,2.07,2.07,2.07,2.07,2.07,2.07,2.07,2.07,2.07,2.07,2.07,2.07,2.07,2.07,2.07,2.07,2.07,2.07,2.07,2.07,2.07,0.0,0.0,0.0,0.0,0.0,0.0,0.0,0.0,0.0,0.0,0.0,0.0,0.0,0.0,0.0,0.0,0.0,0.0,0.0,0.0,0.0,0.0,0.0,0.0,0.0,0.0,0.0314,0.0316,0.0245,0.1751,0.2665,0.2954,0.5387,0.7297,0.8431,0.882,0.9044,0.9125,0.9044,0.8998,0.8995,0.8995,0.8998,0.8998,0.8998,0.8995,0.8998,0.8998,0.8998,0.8998,0.8998,0.8998,0.896,0.8995,0.8995,0.8995,0.8995,0.8995,0.9,0.9082,0.9136,0.9138,0.9253,0.9302,0.9296,0.919,0.9489,1.0306,1.0564,1.0982,1.1592,1.1456,1.1351,1.2248,1.2809,1.3614,1.4357,1.542,1.6131,1.6131,1.6131,1.6202,1.6308,1.7127,1.7835,1.8045,1.8931,1.9709,2.0063,2.0208,2.0243,2.0631,2.07,2.07,2.07,2.07,2.07,2.07,2.07,2.07,2.07,2.07,2.07,2.07,2.07,2.07,2.07,2.07,2.07,2.07,2.07,2.07,2.07,2.07,2.07,0.0,0.0,0.0,0.0,0.0,0.0,0.0,0.0,0.0,0.0,0.0,0.0,0.0,0.0,0.0,0.0,0.0,0.0,0.0,0.0,0.0,0.0,0.0,0.0,0.0,0.0,0.1227,0.1194,0.0316,0.2874,0.4296,0.463,0.6159,0.7056,0.7384,0.8578,0.9275,0.9288,0.9277,0.9272,0.9272,0.9272,0.9272,0.9272,0.9269,0.9272,0.9256,0.9272,0.9269,0.9272,0.9264,0.9269,0.9266,0.9266,0.9269,0.9266,0.9266,0.9272,0.9269,0.9283,0.9283,0.9288,0.9294,0.9304,0.9304,0.9294,0.9321,0.9499,0.9474,0.9627,0.9663,1.038,1.092,1.1208,1.2802,1.4286,1.4326,1.542,1.6131,1.6131,1.5778,1.6096,1.5778,1.6101,1.6343,1.6559,1.6871,1.7439,1.8366,1.8616,1.9151,2.0208,2.0637,2.0631,2.0665,2.07,2.07,2.07,2.07,2.07,2.07,2.07,2.07,2.07,2.07,2.07,2.07,2.07,2.07,2.07,2.07,2.07,2.07,2.07,2.07,0.0,0.0,0.0,0.0,0.0,0.0,0.0,0.0,0.0,0.0,0.0,0.0,0.0,0.0,0.0,0.0,0.0,0.0,0.0,0.0,0.0,0.0,0.0,0.0,0.0,0.0,0.15,0.1936,0.1828,0.3581,0.5097,0.6022,0.6709,0.7451,0.8321,0.8977,0.9304,0.9304,0.9304,0.9304,0.9304,0.9304,0.9304,0.9304,0.9304,0.9304,0.9304,0.9304,0.9304,0.9304,0.9304,0.9304,0.9304,0.9304,0.9304,0.9304,0.9304,0.9304,0.9304,0.9304,0.9304,0.9304,0.9304,0.9304,0.9304,0.9304,0.9304,0.9304,0.9304,0.9304,0.9341,0.9735,0.9987,1.0164,1.1273,1.2126,1.209,1.2917,1.3456,1.342,1.3456,1.3492,1.3599,1.4231,1.5115,1.5813,1.6096,1.6312,1.6947,1.7022,1.773,1.8936,1.9361,1.9785,2.0417,2.07,2.07,2.07,2.07,2.07,2.07,2.07,2.07,2.07,2.07,2.07,2.07,2.07,2.07,2.07,2.07,2.07,2.07,2.07,2.07,0.0,0.0,0.0,0.0,0.0,0.0,0.0,0.0,0.0,0.0,0.0,0.0,0.0,0.0,0.0,0.0,0.0,0.0,0.0,0.0,0.0,0.0,0.0,0.0,0.0216,0.0756,0.1739,0.2728,0.3564,0.4692,0.6108,0.7415,0.7632,0.8179,0.9193,0.9304,0.9304,0.9304,0.9304,0.9304,0.9304,0.9304,0.9304,0.9304,0.9304,0.9304,0.9304,0.9304,0.9304,0.9304,0.9304,0.9304,0.9304,0.9304,0.9304,0.9304,0.9304,0.9304,0.9304,0.9304,0.9304,0.9304,0.9304,0.9304,0.9304,0.9304,0.9304,0.9304,0.9304,0.9304,0.9304,0.9304,0.9341,0.9482,1.0095,1.0491,1.0746,1.1217,1.1688,1.158,1.19,1.158,1.176,1.261,1.3634,1.4441,1.4756,1.5146,1.5394,1.5535,1.6035,1.7484,1.777,1.8611,2.0208,2.07,2.07,2.07,2.07,2.07,2.07,2.07,2.07,2.07,2.07,2.07,2.07,2.07,2.07,2.07,2.07,2.07,2.07,2.07,2.07,0.0,0.0,0.0,0.0,0.0,0.0,0.0,0.0,0.0,0.0,0.0,0.0,0.0,0.0,0.0,0.0,0.0,0.0,0.0,0.0,0.0,0.0,0.0,0.0,0.0765,0.1961,0.2544,0.4037,0.658,0.6869,0.767,0.9046,0.9049,0.9196,0.9304,0.9304,0.9304,0.9304,0.9304,0.9304,0.9304,0.9304,0.9304,0.9304,0.9304,0.9304,0.9304,0.9304,0.9304,0.9304,0.9304,0.9304,0.9304,0.9304,0.9304,0.9304,0.9304,0.9304,0.9304,0.9304,0.9304,0.9304,0.9304,0.9304,0.9304,0.9304,0.9304,0.9304,0.9304,0.9304,0.9304,0.9304,0.9449,0.981,1.0239,1.0603,1.0936,1.1293,1.158,1.158,1.158,1.158,1.158,1.1619,1.19,1.2112,1.1972,1.2434,1.3666,1.3987,1.4658,1.5712,1.6383,1.7228,1.9883,1.9953,2.0133,2.0063,1.9675,2.0417,2.0631,2.07,2.0596,2.0665,2.07,2.07,2.07,2.07,2.07,2.07,2.07,2.07,2.07,2.07,2.07,0.0,0.0,0.0,0.0,0.0,0.0,0.0,0.0,0.0,0.0,0.0,0.0,0.0,0.0,0.0,0.0,0.0,0.0,0.0,0.0,0.0,0.0,0.0,0.0984,0.1712,0.2474,0.4326,0.636,0.8213,0.8468,0.8721,0.9157,0.9304,0.9304,0.9304,0.9304,0.9304,0.9304,0.9304,0.9304,0.9304,0.9304,0.9304,0.9304,0.9304,0.9304,0.9304,0.9304,0.9304,0.9304,0.9304,0.9304,0.9304,0.9304,0.9304,0.9304,0.9304,0.9304,0.9304,0.9304,0.9304,0.9304,0.9304,0.9304,0.9304,0.9304,0.9304,0.9304,0.9304,0.9304,0.9304,0.9304,0.9485,0.9882,1.0275,1.0639,1.0969,1.1332,1.158,1.158,1.158,1.158,1.158,1.158,1.158,1.158,1.158,1.1903,1.2219,1.2434,1.3031,1.4267,1.476,1.5394,1.7298,1.7684,1.7719,1.7725,1.776,1.8366,1.8716,1.9111,1.9111,2.0208,2.0451,2.0561,2.0527,2.07,2.07,2.07,2.07,2.07,2.07,2.07,2.07,0.0,0.0,0.0,0.0,0.0,0.0,0.0,0.0,0.0,0.0,0.0,0.0,0.0,0.0,0.0,0.0,0.0,0.0,0.0,0.0,0.051,0.0729,0.0984,0.233,0.3347,0.4146,0.6469,0.8321,0.9196,0.9304,0.9304,0.9304,0.9304,0.9304,0.9304,0.9304,0.9304,0.9304,0.9304,0.9304,0.9304,0.9304,0.9304,0.9304,0.9304,0.9304,0.9304,0.9304,0.9304,0.9304,0.9304,0.9304,0.9304,0.9304,0.9304,0.9304,0.9304,0.9304,0.9304,0.9304,0.9304,0.9304,0.9304,0.9304,0.9304,0.9304,0.9304,0.9304,0.9304,0.9304,0.9304,0.9304,0.9518,0.9987,1.0347,1.0707,1.1152,1.144,1.158,1.158,1.158,1.158,1.158,1.158,1.158,1.158,1.158,1.158,1.158,1.1616,1.1868,1.2928,1.3139,1.3527,1.4445,1.4689,1.5919,1.6171,1.6312,1.674,1.7092,1.7479,1.8261,1.9425,2.0098,2.0278,2.0457,2.0631,2.07,2.07,2.07,2.07,2.07,2.07,2.07,0.0,0.0,0.0,0.0,0.0,0.0,0.0,0.0,0.0,0.0,0.0,0.0,0.0,0.0,0.0,0.0,0.0,0.0,0.0,0.0365,0.153,0.2184,0.2402,0.3965,0.549,0.6759,0.8466,0.923,0.9302,0.9304,0.9304,0.9304,0.9304,0.9304,0.9304,0.9304,0.9304,0.9304,0.9304,0.9304,0.9304,0.9304,0.9304,0.9304,0.9304,0.9304,0.9304,0.9304,0.9304,0.9304,0.9304,0.9304,0.9304,0.9304,0.9304,0.9304,0.9304,0.9304,0.9304,0.9304,0.9304,0.9304,0.9304,0.9304,0.9304,0.9304,0.9304,0.9304,0.9304,0.9304,0.9304,0.9338,0.9629,1.0347,1.0491,1.0779,1.1364,1.1584,1.158,1.158,1.158,1.158,1.158,1.158,1.158,1.158,1.158,1.158,1.158,1.158,1.1619,1.1724,1.1972,1.2395,1.2043,1.1864,1.3595,1.5008,1.5217,1.554,1.5818,1.6171,1.7163,1.8331,1.9675,1.9924,2.0527,2.07,2.07,2.07,2.07,2.07,2.07,2.07,2.07,0.0,0.0,0.0,0.0,0.0,0.0,0.0,0.0,0.0,0.0,0.0,0.0,0.0,0.0,0.0,0.0,0.0,0.102,0.1566,0.1712,0.2147,0.2984,0.4111,0.5564,0.7087,0.843,0.9049,0.9304,0.9304,0.9304,0.9304,0.9304,0.9304,0.9304,0.9304,0.9304,0.9304,0.9304,0.9304,0.9304,0.9304,0.9304,0.9304,0.9304,0.9304,0.9304,0.9304,0.9304,0.9304,0.9304,0.9304,0.9304,0.9304,0.9304,0.9304,0.9304,0.9304,0.9304,0.9304,0.9304,0.9304,0.9304,0.9304,0.9304,0.9304,0.9304,0.9304,0.9304,0.9304,0.9304,0.9341,0.9557,0.9915,1.0419,1.0491,1.0782,1.1364,1.158,1.158,1.158,1.158,1.158,1.158,1.158,1.158,1.158,1.158,1.158,1.158,1.158,1.158,1.158,1.158,1.158,1.158,1.158,1.2466,1.3456,1.3702,1.4129,1.4409,1.476,1.5858,1.7409,1.8721,1.9785,2.0382,2.07,2.07,2.07,2.07,2.07,2.07,2.07,2.07,0.0,0.0,0.0,0.0,0.0,0.0,0.0,0.0,0.0,0.0,0.0,0.0,0.0,0.0,0.0,0.0,0.0911,0.1929,0.2947,0.389,0.4073,0.4654,0.5708,0.7123,0.8285,0.9121,0.9304,0.9304,0.9304,0.9304,0.9304,0.9304,0.9304,0.9304,0.9304,0.9304,0.9304,0.9304,0.9304,0.9304,0.9304,0.9304,0.9304,0.9304,0.9304,0.9304,0.9304,0.9304,0.9304,0.9304,0.9304,0.9304,0.9304,0.9304,0.9304,0.9304,0.9304,0.9304,0.9304,0.9304,0.9304,0.9304,0.9304,0.9304,0.9304,0.9304,0.9304,0.9304,0.9304,0.9304,0.9338,0.9482,0.9843,1.0239,1.0419,1.0711,1.1109,1.1293,1.1368,1.1368,1.1476,1.158,1.158,1.158,1.158,1.158,1.158,1.158,1.158,1.158,1.158,1.158,1.158,1.158,1.158,1.158,1.158,1.1864,1.2043,1.2502,1.2928,1.3067,1.3812,1.6388,1.8115,1.95,2.0243,2.0561,2.07,2.07,2.07,2.07,2.07,2.07,2.07,0.0,0.0,0.0,0.0,0.0,0.0,0.0,0.0,0.0,0.0,0.0,0.0,0.0,0.0,0.0,0.102,0.2147,0.2875,0.429,0.6107,0.6797,0.7014,0.7342,0.8468,0.9085,0.9266,0.9304,0.9304,0.9304,0.9304,0.9304,0.9304,0.9304,0.9304,0.9304,0.9304,0.9304,0.9304,0.9304,0.9304,0.9304,0.9304,0.9304,0.9304,0.9304,0.9304,0.9304,0.9304,0.9304,0.9304,0.9304,0.9304,0.9304,0.9304,0.9304,0.9304,0.9304,0.9304,0.9304,0.9304,0.9304,0.9304,0.9304,0.9304,0.9304,0.9304,0.9304,0.9304,0.9304,0.9304,0.9304,0.941,0.959,0.9879,1.0275,1.0527,1.0527,1.0822,1.1044,1.1116,1.1332,1.158,1.158,1.158,1.158,1.158,1.158,1.158,1.158,1.158,1.158,1.158,1.158,1.158,1.158,1.158,1.158,1.158,1.158,1.176,1.2187,1.2363,1.2749,1.5257,1.7444,1.8861,1.9889,2.0208,2.0561,2.07,2.07,2.07,2.07,2.07,2.07,0.0,0.0,0.0,0.0,0.0,0.0,0.0,0.0,0.0,0.0,0.0,0.0,0.0,0.0,0.1166,0.1966,0.2766,0.4654,0.5998,0.705,0.8249,0.8649,0.8721,0.9049,0.9304,0.9304,0.9304,0.9304,0.9304,0.9304,0.9304,0.9304,0.9304,0.9304,0.9304,0.9304,0.9304,0.9304,0.9304,0.9304,0.9304,0.9304,0.9304,0.9304,0.9304,0.9304,0.9304,0.9304,0.9304,0.9304,0.9304,0.9304,0.9304,0.9304,0.9304,0.9304,0.9304,0.9304,0.9304,0.9304,0.9304,0.9304,0.9304,0.9304,0.9304,0.9304,0.9304,0.9304,0.9304,0.9304,0.9341,0.9557,0.9738,0.9918,1.0203,1.0455,1.053,1.0789,1.0972,1.1044,1.1364,1.1544,1.158,1.158,1.158,1.158,1.158,1.158,1.158,1.158,1.158,1.158,1.158,1.158,1.158,1.158,1.158,1.158,1.158,1.1616,1.2112,1.261,1.321,1.4551,1.6428,1.7981,1.9006,1.968,2.0069,2.0527,2.07,2.07,2.07,2.07,2.07,0.0,0.0,0.0,0.0,0.0,0.0,0.0,0.0,0.0,0.0,0.0,0.0,0.0,0.0,0.1566,0.2693,0.3602,0.5853,0.7304,0.8068,0.8866,0.923,0.9266,0.9304,0.9304,0.9304,0.9304,0.9304,0.9304,0.9304,0.9304,0.9304,0.9304,0.9304,0.9304,0.9304,0.9304,0.9304,0.9304,0.9304,0.9304,0.9304,0.9304,0.9304,0.9304,0.9304,0.9304,0.9304,0.9304,0.9304,0.9304,0.9304,0.9304,0.9304,0.9304,0.9304,0.9304,0.9304,0.9304,0.9304,0.9304,0.9304,0.9304,0.9304,0.9304,0.9304,0.9304,0.9304,0.9304,0.9304,0.9341,0.9521,0.9627,0.9663,1.0023,1.0239,1.0239,1.053,1.0825,1.1044,1.1332,1.158,1.158,1.158,1.158,1.158,1.158,1.158,1.158,1.158,1.158,1.158,1.158,1.158,1.158,1.158,1.158,1.158,1.158,1.158,1.19,1.2538,1.3031,1.3884,1.5544,1.6997,1.8126,1.9111,1.9715,2.0104,2.0457,2.07,2.07,2.07,2.07,0.0,0.0,0.0,0.0,0.0,0.0,0.0,0.0,0.0,0.0,0.0,0.0,0.0,0.0328,0.2148,0.3456,0.5018,0.6727,0.7957,0.883,0.9302,0.9304,0.9304,0.9304,0.9304,0.9304,0.9304,0.9304,0.9304,0.9304,0.9304,0.9304,0.9304,0.9304,0.9304,0.9304,0.9304,0.9304,0.9304,0.9304,0.9304,0.9304,0.9304,0.9304,0.9304,0.9304,0.9304,0.9304,0.9304,0.9304,0.9304,0.9304,0.9304,0.9304,0.9304,0.9304,0.9304,0.9304,0.9304,0.9304,0.9304,0.9304,0.9304,0.9304,0.9304,0.9304,0.9304,0.9304,0.9304,0.9304,0.9341,0.9377,0.9485,0.959,0.9807,0.9951,1.0059,1.035,1.0678,1.0972,1.1368,1.1544,1.158,1.158,1.158,1.158,1.158,1.158,1.158,1.158,1.158,1.158,1.158,1.158,1.158,1.158,1.158,1.158,1.158,1.158,1.158,1.2079,1.2502,1.3353,1.452,1.5969,1.7519,1.8366,1.9146,2.0034,2.0596,2.07,2.07,2.07,2.07,0.0,0.0,0.0,0.0,0.0,0.0,0.0,0.0,0.0,0.0,0.0,0.0,0.0,0.182,0.3312,0.5055,0.6433,0.7887,0.9085,0.9193,0.9304,0.9304,0.9304,0.9304,0.9304,0.9304,0.9304,0.9304,0.9304,0.9304,0.9304,0.9304,0.9304,0.9304,0.9304,0.9304,0.9304,0.9304,0.9304,0.9304,0.9304,0.9304,0.9304,0.9304,0.9304,0.9304,0.9304,0.9304,0.9304,0.9304,0.9304,0.9304,0.9304,0.9304,0.9304,0.9304,0.9304,0.9304,0.9304,0.9304,0.9304,0.9304,0.9304,0.9304,0.9304,0.9304,0.9304,0.9304,0.9304,0.9338,0.9413,0.9627,0.9735,0.9843,1.0131,1.0458,1.0678,1.0825,1.09,1.108,1.1368,1.158,1.158,1.158,1.158,1.158,1.158,1.158,1.158,1.158,1.158,1.158,1.158,1.158,1.158,1.158,1.158,1.158,1.158,1.158,1.158,1.1616,1.2079,1.261,1.3246,1.4835,1.6599,1.7765,1.8581,1.964,2.07,2.07,2.07,2.07,2.07,0.0,0.0,0.0,0.0,0.0,0.0,0.0,0.0,0.0,0.0,0.0,0.0,0.0,0.2366,0.3966,0.5528,0.705,0.8577,0.9302,0.9304,0.9304,0.9304,0.9304,0.9304,0.9304,0.9304,0.9304,0.9304,0.9304,0.9304,0.9304,0.9304,0.9304,0.9304,0.9304,0.9304,0.9304,0.9304,0.9304,0.9304,0.9304,0.9304,0.9304,0.9304,0.9304,0.9304,0.9304,0.9304,0.9304,0.9304,0.9304,0.9304,0.9304,0.9304,0.9304,0.9304,0.9304,0.9304,0.9304,0.9304,0.9304,0.9304,0.9304,0.9304,0.9304,0.9304,0.9304,0.9341,0.9485,0.9663,0.9843,1.0023,1.0167,1.0239,1.053,1.0825,1.0936,1.1008,1.1116,1.126,1.1476,1.1584,1.158,1.158,1.158,1.158,1.158,1.158,1.158,1.158,1.158,1.158,1.158,1.158,1.158,1.158,1.158,1.158,1.158,1.158,1.158,1.158,1.1652,1.2148,1.2646,1.3987,1.5641,1.6775,1.8226,1.9785,2.0631,2.0665,2.07,2.07,2.07,0.0,0.0,0.0,0.0,0.0,0.0,0.0,0.0,0.0,0.0,0.0,0.0182,0.1457,0.2838,0.4438,0.5925,0.7415,0.8541,0.9304,0.9304,0.9304,0.9304,0.9304,0.9304,0.9304,0.9304,0.9304,0.9304,0.9304,0.9304,0.9304,0.9304,0.9304,0.9304,0.9304,0.9304,0.9304,0.9304,0.9304,0.9304,0.9304,0.9304,0.9304,0.9304,0.9304,0.9304,0.9304,0.9304,0.9304,0.9304,0.9304,0.9304,0.9304,0.9304,0.9304,0.9304,0.9304,0.9304,0.9304,0.9304,0.9304,0.9304,0.9304,0.9304,0.9304,0.9338,0.9374,0.9554,0.9771,1.0131,1.0455,1.053,1.053,1.0639,1.0894,1.1077,1.1113,1.108,1.1296,1.1476,1.1548,1.158,1.158,1.158,1.158,1.158,1.158,1.158,1.158,1.158,1.158,1.158,1.158,1.158,1.158,1.158,1.158,1.158,1.158,1.158,1.158,1.158,1.158,1.158,1.2255,1.3527,1.4725,1.5959,1.7619,1.9675,2.0631,2.0665,2.07,2.07,2.07,0.0,0.0,0.0,0.0,0.0,0.0,0.0,0.0,0.0,0.0,0.0,0.1312,0.2549,0.4257,0.5889,0.7415,0.8468,0.9193,0.9304,0.9304,0.9304,0.9304,0.9304,0.9304,0.9304,0.9304,0.9304,0.9304,0.9304,0.9304,0.9304,0.9304,0.9304,0.9304,0.9304,0.9304,0.9304,0.9304,0.9304,0.9304,0.9304,0.9304,0.9304,0.9304,0.9304,0.9304,0.9304,0.9304,0.9304,0.9304,0.9304,0.9304,0.9304,0.9304,0.9304,0.9304,0.9304,0.9304,0.9304,0.9304,0.9304,0.9304,0.9304,0.9304,0.9304,0.9377,0.9518,0.9882,1.017,1.0455,1.0491,1.0786,1.0897,1.1005,1.1221,1.1436,1.1476,1.1472,1.1472,1.158,1.158,1.158,1.158,1.158,1.158,1.158,1.158,1.158,1.158,1.158,1.158,1.158,1.158,1.158,1.158,1.158,1.158,1.158,1.158,1.158,1.158,1.158,1.158,1.158,1.1832,1.2681,1.388,1.5257,1.6916,1.8861,1.9785,2.0631,2.07,2.07,2.07,0.0,0.0,0.0,0.0,0.0,0.0,0.0,0.0,0.0,0.0,0.0,0.0875,0.2476,0.4366,0.5383,0.7053,0.8832,0.9304,0.9304,0.9304,0.9304,0.9304,0.9304,0.9304,0.9304,0.9304,0.9304,0.9304,0.9304,0.9304,0.9304,0.9304,0.9304,0.9304,0.9304,0.9304,0.9304,0.9304,0.9304,0.9304,0.9304,0.9304,0.9304,0.9304,0.9304,0.9304,0.9304,0.9304,0.9304,0.9304,0.9304,0.9304,0.9304,0.9304,0.9304,0.9304,0.9304,0.9304,0.9304,0.9304,0.9304,0.9304,0.9302,0.9304,0.9374,0.9518,0.9846,1.0317,1.057,1.0858,1.1074,1.1221,1.1296,1.1364,1.1476,1.1584,1.158,1.158,1.158,1.158,1.158,1.158,1.158,1.158,1.158,1.158,1.158,1.158,1.158,1.158,1.158,1.158,1.158,1.158,1.158,1.158,1.158,1.158,1.158,1.158,1.158,1.158,1.158,1.158,1.1936,1.2187,1.3563,1.5115,1.6599,1.8051,1.9361,2.0382,2.0596,2.07,2.07,0.0,0.0,0.0,0.0,0.0,0.0,0.0,0.0,0.0,0.0,0.0,0.0875,0.2549,0.4402,0.5673,0.7125,0.9304,0.9304,0.9304,0.9304,0.9304,0.9304,0.9304,0.9304,0.9304,0.9304,0.9304,0.9304,0.9304,0.9304,0.9304,0.9304,0.9304,0.9304,0.9304,0.9304,0.9304,0.9304,0.9304,0.9304,0.9304,0.9304,0.9304,0.9304,0.9304,0.9304,0.9304,0.9304,0.9304,0.9304,0.9304,0.9304,0.9304,0.9304,0.9304,0.9304,0.9304,0.9304,0.9304,0.9304,0.9341,0.9485,0.9446,0.9482,0.9663,1.0026,1.0386,1.09,1.1116,1.1185,1.144,1.158,1.1584,1.1584,1.158,1.158,1.158,1.158,1.158,1.158,1.158,1.158,1.158,1.158,1.158,1.158,1.158,1.158,1.158,1.158,1.158,1.158,1.158,1.158,1.158,1.158,1.158,1.158,1.158,1.158,1.158,1.158,1.158,1.158,1.1652,1.2079,1.3527,1.4689,1.5787,1.7203,1.9041,2.0173,2.0492,2.0665,2.07,0.0,0.0,0.0,0.0,0.0,0.0,0.0,0.0,0.0,0.0,0.0,0.2622,0.3895,0.5129,0.7559,0.876,0.9196,0.9304,0.9304,0.9304,0.9304,0.9304,0.9304,0.9304,0.9304,0.9304,0.9304,0.9304,0.9304,0.9304,0.9304,0.9304,0.9304,0.9304,0.9304,0.9304,0.9304,0.9304,0.9304,0.9304,0.9304,0.9304,0.9304,0.9304,0.9304,0.9304,0.9304,0.9304,0.9304,0.9304,0.9304,0.9304,0.9304,0.9304,0.9304,0.9304,0.9304,0.9304,0.9304,0.9377,0.9485,0.9701,0.9807,1.0023,1.0278,1.0534,1.0825,1.0936,1.1296,1.1472,1.1584,1.158,1.158,1.158,1.158,1.158,1.158,1.158,1.158,1.158,1.158,1.158,1.158,1.158,1.158,1.158,1.158,1.158,1.158,1.158,1.158,1.158,1.158,1.158,1.158,1.158,1.158,1.158,1.158,1.158,1.158,1.158,1.158,1.158,1.158,1.1616,1.2466,1.3563,1.4729,1.6247,1.794,1.932,2.0486,2.0596,2.0665,0.0,0.0,0.0,0.0,0.0,0.0,0.0,0.0,0.0,0.0,0.0,0.1312,0.2949,0.5164,0.7923,0.9266,0.9304,0.9304,0.9304,0.9304,0.9304,0.9304,0.9304,0.9304,0.9304,0.9304,0.9304,0.9304,0.9304,0.9304,0.9304,0.9304,0.9304,0.9304,0.9304,0.9304,0.9304,0.9304,0.9304,0.9304,0.9304,0.9304,0.9304,0.9304,0.9304,0.9304,0.9304,0.9304,0.9304,0.9304,0.9304,0.9304,0.9304,0.9304,0.9304,0.9341,0.9554,0.9521,0.9377,0.9557,0.9738,0.9915,1.0131,1.0383,1.0714,1.0933,1.1152,1.1332,1.1472,1.158,1.158,1.158,1.158,1.158,1.158,1.158,1.158,1.158,1.158,1.158,1.158,1.158,1.158,1.158,1.158,1.158,1.158,1.158,1.158,1.158,1.158,1.158,1.158,1.158,1.158,1.158,1.158,1.158,1.158,1.158,1.158,1.158,1.158,1.158,1.158,1.1652,1.1724,1.2717,1.4164,1.5469,1.6775,1.8331,1.9849,2.0561,2.0631,0.0,0.0,0.0,0.0,0.0,0.0,0.0,0.0,0.0,0.0,0.0,0.1057,0.313,0.5672,0.8213,0.9304,0.9304,0.9304,0.9304,0.9304,0.9304,0.9304,0.9304,0.9304,0.9304,0.9304,0.9304,0.9304,0.9304,0.9304,0.9304,0.9304,0.9304,0.9304,0.9304,0.9304,0.9304,0.9304,0.9304,0.9304,0.9304,0.9304,0.9304,0.9304,0.9304,0.9304,0.9304,0.9304,0.9304,0.9304,0.9304,0.9304,0.9302,0.9449,0.9482,0.959,0.9843,0.9951,0.9843,0.9915,1.0059,1.0275,1.0527,1.0926,1.1077,1.1149,1.1224,1.1548,1.1584,1.158,1.158,1.158,1.158,1.158,1.158,1.158,1.158,1.158,1.158,1.158,1.158,1.158,1.158,1.158,1.158,1.158,1.158,1.158,1.158,1.158,1.158,1.158,1.158,1.158,1.158,1.158,1.158,1.158,1.158,1.158,1.158,1.158,1.158,1.158,1.158,1.1616,1.1652,1.2646,1.367,1.5221,1.67,1.7905,1.9111,1.9994,2.0596,0.0,0.0,0.0,0.0,0.0,0.0,0.0,0.0,0.0,0.0,0.0,0.2913,0.5635,0.8177,0.8796,0.9304,0.9304,0.9304,0.9304,0.9304,0.9304,0.9304,0.9304,0.9304,0.9304,0.9304,0.9304,0.9304,0.9304,0.9304,0.9304,0.9304,0.9304,0.9304,0.9304,0.9304,0.9304,0.9304,0.9304,0.9304,0.9304,0.9304,0.9304,0.9304,0.9304,0.9304,0.9304,0.9304,0.9304,0.9304,0.9304,0.9374,0.9446,0.9627,0.9735,0.9951,1.0242,1.035,1.035,1.0386,1.0606,1.0897,1.1185,1.14,1.1436,1.1508,1.158,1.158,1.158,1.158,1.158,1.158,1.158,1.158,1.158,1.158,1.158,1.158,1.158,1.158,1.158,1.158,1.158,1.158,1.158,1.158,1.158,1.158,1.158,1.158,1.158,1.158,1.158,1.158,1.158,1.158,1.158,1.158,1.158,1.158,1.158,1.158,1.158,1.158,1.158,1.158,1.1616,1.2183,1.321,1.511,1.6625,1.7725,1.907,2.0312,2.0665,0.0,0.0,0.0,0.0,0.0,0.0,0.0,0.0,0.0,0.0583,0.1566,0.3748,0.5855,0.767,0.9013,0.9304,0.9304,0.9304,0.9304,0.9304,0.9304,0.9304,0.9304,0.9304,0.9304,0.9304,0.9304,0.9304,0.9304,0.9304,0.9304,0.9304,0.9304,0.9304,0.9304,0.9304,0.9304,0.9304,0.9304,0.9304,0.9304,0.9304,0.9304,0.9304,0.9304,0.9304,0.9304,0.9304,0.9304,0.9304,0.9304,0.9446,0.9627,0.9843,1.0059,1.0278,1.0603,1.0786,1.0822,1.0822,1.0969,1.1296,1.1512,1.158,1.158,1.158,1.158,1.158,1.158,1.158,1.158,1.158,1.158,1.158,1.158,1.158,1.158,1.158,1.158,1.158,1.158,1.158,1.158,1.158,1.158,1.158,1.158,1.158,1.158,1.158,1.158,1.158,1.158,1.158,1.158,1.158,1.158,1.158,1.158,1.158,1.158,1.158,1.158,1.158,1.158,1.158,1.158,1.158,1.2749,1.4725,1.6202,1.7404,1.8855,2.0527,2.07,0.0,0.0,0.0,0.0,0.0,0.0,0.0,0.0,0.0,0.0,0.3092,0.4692,0.6255,0.7706,0.8685,0.9302,0.9304,0.9304,0.9304,0.9304,0.9304,0.9304,0.9304,0.9304,0.9304,0.9304,0.9304,0.9304,0.9304,0.9304,0.9304,0.9304,0.9304,0.9304,0.9304,0.9304,0.9304,0.9304,0.9304,0.9304,0.9304,0.9304,0.9304,0.9304,0.9304,0.9304,0.9304,0.9304,0.9304,0.9341,0.9449,0.9627,0.9879,1.0131,1.035,1.0639,1.093,1.1152,1.1152,1.1224,1.1296,1.1512,1.1584,1.158,1.158,1.158,1.158,1.158,1.158,1.158,1.158,1.158,1.158,1.158,1.158,1.158,1.158,1.158,1.158,1.158,1.158,1.158,1.158,1.158,1.158,1.158,1.158,1.158,1.158,1.158,1.158,1.158,1.158,1.158,1.158,1.158,1.158,1.158,1.158,1.158,1.158,1.158,1.158,1.158,1.158,1.158,1.1616,1.1652,1.2821,1.4445,1.6312,1.857,1.921,2.07,2.07,0.0,0.0,0.0,0.0,0.0,0.0,0.0,0.0,0.0,0.1785,0.4401,0.607,0.7598,0.883,0.923,0.9302,0.9304,0.9304,0.9304,0.9304,0.9304,0.9304,0.9304,0.9304,0.9304,0.9304,0.9304,0.9304,0.9304,0.9304,0.9304,0.9304,0.9304,0.9304,0.9304,0.9304,0.9304,0.9304,0.9304,0.9304,0.9304,0.9304,0.9304,0.9304,0.9304,0.9304,0.9413,0.9413,0.9449,0.9557,0.9771,0.9951,1.0095,1.0606,1.0861,1.1005,1.1332,1.1512,1.1544,1.1584,1.1584,1.158,1.158,1.158,1.158,1.158,1.158,1.158,1.158,1.158,1.158,1.158,1.158,1.158,1.158,1.158,1.158,1.158,1.158,1.158,1.158,1.158,1.158,1.158,1.158,1.158,1.158,1.158,1.158,1.158,1.158,1.158,1.158,1.158,1.158,1.158,1.158,1.158,1.158,1.158,1.158,1.158,1.158,1.158,1.158,1.158,1.1652,1.1724,1.3456,1.5394,1.8256,2.0202,2.0596,2.07,2.07,0.0,0.0,0.0,0.0,0.0,0.0,0.0,0.0,0.113,0.273,0.4693,0.6326,0.7851,0.8904,0.9304,0.9304,0.9304,0.9304,0.9304,0.9304,0.9304,0.9304,0.9304,0.9304,0.9304,0.9304,0.9304,0.9304,0.9304,0.9304,0.9304,0.9304,0.9304,0.9304,0.9304,0.9304,0.9304,0.9304,0.9304,0.9304,0.9304,0.9304,0.9304,0.9304,0.9304,0.9449,0.9665,0.9665,0.9807,0.9987,1.0239,1.035,1.0534,1.0969,1.1116,1.1293,1.1584,1.1584,1.158,1.1584,1.1584,1.158,1.158,1.158,1.158,1.158,1.158,1.158,1.158,1.158,1.158,1.158,1.158,1.158,1.158,1.158,1.158,1.158,1.158,1.158,1.158,1.158,1.158,1.158,1.158,1.158,1.158,1.158,1.158,1.158,1.158,1.158,1.158,1.158,1.158,1.158,1.158,1.158,1.158,1.158,1.158,1.158,1.158,1.158,1.158,1.1616,1.1828,1.2431,1.4405,1.663,1.8786,2.0382,2.07,2.07,2.07,0.0,0.0,0.0,0.0,0.0,0.0,0.0,0.0,0.2148,0.3748,0.4984,0.6833,0.8321,0.9121,0.9304,0.9304,0.9304,0.9304,0.9304,0.9304,0.9304,0.9304,0.9304,0.9304,0.9304,0.9304,0.9304,0.9304,0.9304,0.9304,0.9304,0.9304,0.9304,0.9304,0.9304,0.9304,0.9304,0.9304,0.9304,0.9304,0.9304,0.9304,0.9304,0.9341,0.9449,0.9627,0.9843,1.0059,1.0236,1.0455,1.0639,1.075,1.0969,1.1149,1.1293,1.1544,1.158,1.158,1.158,1.158,1.158,1.158,1.158,1.158,1.158,1.158,1.158,1.158,1.158,1.158,1.158,1.158,1.158,1.158,1.158,1.158,1.157,1.1567,1.156,1.156,1.1563,1.157,1.158,1.158,1.158,1.158,1.158,1.158,1.158,1.158,1.158,1.158,1.158,1.158,1.158,1.158,1.158,1.158,1.158,1.158,1.158,1.158,1.158,1.158,1.158,1.1724,1.2148,1.3139,1.4725,1.6348,1.808,1.9431,2.0417,2.07,2.07,0.0,0.0,0.0,0.0,0.0,0.0,0.0,0.0,0.3167,0.4511,0.4875,0.7706,0.8977,0.923,0.9304,0.9304,0.9304,0.9304,0.9304,0.9304,0.9304,0.9304,0.9304,0.9304,0.9304,0.9304,0.9304,0.9304,0.9304,0.9304,0.9304,0.9304,0.9304,0.9304,0.9304,0.9377,0.9377,0.9341,0.9304,0.9338,0.941,0.941,0.9482,0.959,0.9771,0.9951,1.017,1.035,1.0527,1.0711,1.0858,1.0969,1.1149,1.14,1.1544,1.158,1.158,1.158,1.158,1.158,1.158,1.158,1.158,1.158,1.158,1.158,1.158,1.158,1.158,1.158,1.158,1.158,1.158,1.158,1.158,1.157,1.1589,1.1579,1.1565,1.1526,1.1529,1.1543,1.1573,1.158,1.1567,1.158,1.158,1.158,1.158,1.158,1.158,1.158,1.158,1.158,1.158,1.158,1.158,1.158,1.158,1.158,1.158,1.158,1.158,1.158,1.158,1.176,1.2008,1.3067,1.4689,1.6277,1.7975,1.9355,2.0596,2.0665,2.07,0.0,0.0,0.0,0.0,0.0,0.0,0.0,0.0,0.2185,0.3529,0.4838,0.6761,0.8432,0.923,0.9304,0.9304,0.9304,0.9304,0.9304,0.9304,0.9304,0.9304,0.9304,0.9304,0.9304,0.9304,0.9304,0.9338,0.9341,0.9341,0.9338,0.9304,0.9374,0.9338,0.9449,0.9593,0.9521,0.9449,0.941,0.9554,0.9663,0.9735,0.9843,1.0059,1.0203,1.0386,1.0606,1.075,1.0966,1.1257,1.1329,1.1436,1.1472,1.1544,1.158,1.158,1.158,1.158,1.158,1.158,1.158,1.158,1.158,1.158,1.158,1.158,1.158,1.158,1.158,1.158,1.158,1.158,1.158,1.158,1.1577,1.1592,1.1565,1.1508,1.1487,1.1402,1.1409,1.1484,1.1525,1.1589,1.1579,1.1567,1.158,1.158,1.158,1.158,1.158,1.158,1.158,1.158,1.158,1.158,1.158,1.158,1.158,1.158,1.158,1.158,1.158,1.158,1.158,1.158,1.1652,1.3067,1.4831,1.6489,1.815,1.946,2.0521,2.0631,2.07,0.0,0.0,0.0,0.0,0.0,0.0,0.0073,0.0584,0.2366,0.3856,0.4911,0.705,0.843,0.9157,0.9304,0.9304,0.9304,0.9304,0.9304,0.9304,0.9341,0.9304,0.9304,0.9341,0.9304,0.9341,0.9446,0.959,0.9518,0.9518,0.9554,0.9554,0.9554,0.9518,0.9663,0.9915,0.9987,0.9879,0.9843,0.9951,1.0059,1.0131,1.0311,1.0491,1.0603,1.0825,1.1008,1.1113,1.1368,1.1584,1.158,1.158,1.158,1.158,1.158,1.158,1.158,1.158,1.158,1.158,1.158,1.158,1.158,1.158,1.158,1.158,1.158,1.158,1.158,1.158,1.158,1.158,1.158,1.158,1.1599,1.1579,1.1511,1.144,1.1341,1.1226,1.1281,1.1328,1.1402,1.1484,1.1538,1.1531,1.1565,1.158,1.158,1.158,1.158,1.158,1.158,1.158,1.158,1.158,1.158,1.158,1.158,1.158,1.158,1.158,1.158,1.158,1.158,1.1652,1.1796,1.3385,1.5079,1.6705,1.815,1.9355,2.0278,2.0631,2.07,0.0,0.0,0.0073,0.0,0.0,0.0,0.0328,0.0948,0.3495,0.4802,0.5383,0.7668,0.8904,0.941,0.959,0.9554,0.959,0.959,0.9627,0.941,0.9557,0.9593,0.9557,0.9449,0.9627,0.9629,0.9701,0.9951,0.9948,0.9951,0.9951,0.9951,0.9951,0.9951,0.9987,1.035,1.0458,1.0422,1.0494,1.0603,1.053,1.053,1.0567,1.0675,1.0858,1.108,1.1149,1.1329,1.158,1.158,1.158,1.158,1.158,1.158,1.158,1.158,1.158,1.158,1.158,1.158,1.158,1.158,1.158,1.158,1.158,1.158,1.158,1.158,1.158,1.158,1.158,1.158,1.158,1.158,1.1606,1.1562,1.1491,1.1372,1.1164,1.1111,1.1114,1.1192,1.1302,1.1341,1.1375,1.1402,1.1477,1.1555,1.1582,1.1582,1.1603,1.1606,1.158,1.158,1.158,1.158,1.158,1.158,1.158,1.158,1.158,1.158,1.158,1.158,1.1616,1.1864,1.2327,1.3951,1.5469,1.6811,1.8156,1.9216,1.9959,2.0561,2.07,0.0182,0.0511,0.0766,0.0912,0.0912,0.0912,0.0949,0.135,0.4257,0.5528,0.5746,0.6543,0.8138,0.9987,1.0095,1.0095,1.0131,1.0059,1.0203,1.0131,1.0131,1.0023,1.0167,1.0062,1.0131,1.0239,1.0311,1.0347,1.0383,1.0383,1.0347,1.0347,1.0347,1.035,1.0386,1.0714,1.0897,1.0897,1.1077,1.1077,1.0897,1.0933,1.0969,1.1185,1.1436,1.14,1.1436,1.1508,1.158,1.158,1.158,1.158,1.158,1.158,1.158,1.158,1.158,1.158,1.158,1.158,1.158,1.158,1.158,1.158,1.158,1.158,1.158,1.158,1.158,1.158,1.158,1.158,1.158,1.158,1.1573,1.1541,1.147,1.1277,1.1046,1.0992,1.0972,1.105,1.1121,1.121,1.1206,1.1277,1.1407,1.1443,1.1477,1.1494,1.1555,1.1572,1.1573,1.158,1.158,1.158,1.158,1.158,1.158,1.158,1.158,1.158,1.158,1.158,1.1652,1.2043,1.2928,1.4689,1.6101,1.7268,1.8576,1.982,2.0208,2.0665,2.07,0.0657,0.0876,0.1095,0.1204,0.1204,0.1204,0.1678,0.2732,0.4329,0.5925,0.7302,0.7844,0.8933,1.0455,1.0491,1.0527,1.0527,1.0491,1.0419,1.0455,1.0563,1.0455,1.0491,1.0563,1.0455,1.0527,1.0675,1.0782,1.089,1.0786,1.0714,1.0714,1.0714,1.075,1.0786,1.1044,1.126,1.1296,1.1512,1.144,1.1224,1.1296,1.1332,1.1584,1.158,1.158,1.158,1.158,1.158,1.158,1.158,1.158,1.158,1.158,1.158,1.158,1.158,1.158,1.158,1.158,1.158,1.158,1.158,1.158,1.158,1.158,1.158,1.158,1.158,1.158,1.158,1.158,1.158,1.158,1.1589,1.1535,1.1396,1.1209,1.1012,1.0823,1.0813,1.0826,1.0934,1.0985,1.1019,1.1097,1.1202,1.1319,1.1363,1.1385,1.1453,1.1511,1.1531,1.1592,1.158,1.158,1.158,1.158,1.158,1.158,1.158,1.158,1.158,1.1616,1.1864,1.2398,1.3527,1.5287,1.6635,1.7765,1.9181,2.0561,2.07,2.07,2.07,0.1204,0.1277,0.135,0.135,0.135,0.135,0.2405,0.4003,0.4473,0.6357,0.9002,1.0053,1.0596,1.0635,1.0639,1.0635,1.0707,1.0818,1.0746,1.0711,1.0746,1.0818,1.0818,1.0711,1.0782,1.0854,1.1002,1.1217,1.1436,1.1257,1.1077,1.1077,1.1077,1.1077,1.1188,1.1368,1.1544,1.1508,1.1584,1.1584,1.158,1.158,1.1584,1.1584,1.158,1.158,1.158,1.158,1.158,1.158,1.158,1.158,1.158,1.158,1.158,1.158,1.158,1.158,1.158,1.158,1.158,1.158,1.158,1.158,1.158,1.158,1.158,1.158,1.158,1.158,1.158,1.158,1.158,1.1577,1.1575,1.1504,1.1363,1.12,1.0978,1.0778,1.0704,1.0704,1.0755,1.0836,1.0877,1.0917,1.0978,1.1084,1.1193,1.1268,1.1304,1.1362,1.1399,1.147,1.1582,1.1606,1.1603,1.158,1.158,1.158,1.158,1.158,1.1616,1.1688,1.2008,1.2928,1.42,1.5858,1.7132,1.8476,1.9535,2.07,2.07,2.07,2.07,0.1386,0.1713,0.1968,0.2078,0.2078,0.2115,0.3059,0.4657,0.5958,0.7587,0.9363,1.0746,1.14,1.14,1.14,1.1325,1.1217,1.1257,1.1364,1.14,1.1253,1.1329,1.1329,1.1181,1.1364,1.1364,1.1364,1.1508,1.158,1.1512,1.1476,1.1436,1.1436,1.1436,1.1476,1.158,1.158,1.158,1.158,1.158,1.158,1.158,1.158,1.158,1.158,1.158,1.158,1.158,1.158,1.158,1.158,1.158,1.158,1.158,1.158,1.158,1.158,1.158,1.158,1.158,1.158,1.158,1.158,1.158,1.158,1.158,1.158,1.158,1.158,1.158,1.158,1.158,1.158,1.158,1.1596,1.1443,1.1315,1.12,1.1067,1.086,1.0701,1.0698,1.0734,1.0745,1.0748,1.0799,1.087,1.0968,1.0995,1.1073,1.1186,1.1202,1.1253,1.1419,1.1558,1.1579,1.1582,1.1603,1.158,1.158,1.158,1.158,1.1652,1.2079,1.2964,1.3987,1.5327,1.674,1.8121,1.9431,2.0028,2.07,2.07,2.07,2.07]},{"header":{"parameterUnit":"m.s-1","parameterCategory":1,"la1":31.0,"la2":29.5877,"lo1":-88.7671,"lo2":-86.6584,"dy":0.0162,"dx":0.0185,"nx":115,"ny":88,"refTime":"2023-09-23T06:00:00:Z","depth":0,"parameterNumber":3,"parameterNumberName":"V-component_of_WINDS"},"data":[0.0,0.0,0.0,0.0,0.0,0.0,0.0,0.0,0.0,0.0,0.0,0.0,0.0,0.0,0.0,0.0,0.0,0.0,0.0,0.0,0.0,0.0,0.0,0.0,0.0,0.0,0.0,0.0,0.0,0.0,0.0,0.0,0.0,0.0,0.0,0.0,0.0,0.0,0.0,0.0,0.0,0.0,0.0,0.0,0.0,0.0,0.0,0.0,0.0,0.0,0.0,0.0,0.0,0.0,0.0,0.0,0.0,0.0,0.0,0.0,0.0,0.0,0.0,0.0,0.0,0.0,0.0,0.0,0.0,0.0,0.0,0.0,0.0,0.0,0.0,0.0,0.0,0.0,0.0,0.0,0.0,0.0,0.0,0.0,0.0,0.0,0.0,0.0,0.0,0.0,0.0,0.0,0.0,0.0,0.0,0.0,0.0,0.0,0.0,0.0,0.0,0.0,0.0,0.0,0.0,0.0,0.0,0.0,0.0,0.0,0.0,0.0,0.0,0.0,0.0,0.0,0.0,0.0,0.0,0.0,0.0,0.0,0.0,0.0,0.0,0.0,0.0,0.0,0.0,0.0,0.0,0.0,0.0,0.0,0.0,0.0,0.0,0.0,0.0,0.0,0.0,0.0,0.0,0.0,0.0,0.0,0.0,0.0,0.0,0.0,0.0,0.0,0.0,0.0,0.0,0.0,0.0,0.0,0.0,0.0,0.0,0.0,0.0,0.0,0.0,0.0,0.0,0.0,0.0,0.0,0.0,0.0,0.0,0.0,0.0,0.0,0.0,0.0,0.0,0.0,0.0,0.0,0.0,0.0,0.0,0.0,0.0,0.0,0.0,0.0,0.0,0.0,0.0,0.0,0.0,0.0,0.0,0.0,0.0,0.0,0.0,0.0,0.0,0.0,0.0,0.0,0.0,0.0,0.0,0.0,0.0,0.0,0.0,0.0,0.0,0.0,0.0,0.0,0.0,0.0,0.0,0.0,0.0,0.0,0.0,0.0,0.0,0.0,0.0,0.0,0.0,0.0,0.0,0.0,0.0,0.0,0.0,0.0,0.0,0.0,0.0,0.0,0.0,0.0,0.0,0.0,0.0,0.0,0.0,0.0,0.0,0.0,0.0,0.0,0.0,0.0,0.0,0.0,0.0,0.0,0.0,0.0,0.0,0.0,0.0,0.0,0.0,0.0,0.0,0.0,0.0,0.0,0.0,0.0,0.0,0.0,0.0,0.0,0.0,0.0,0.0,0.0,0.0,0.0,0.0,0.0,0.0,0.0,0.0,0.0,0.0,0.0,0.0,0.0,0.0,0.0,0.0,0.0,0.0,0.0,0.0,0.0,0.0,0.0,0.0,0.0,0.0,0.0,0.0,0.0,0.0,0.0,0.0,0.0,0.0,0.0,0.0,0.0,0.0,0.0,0.0,0.0,0.0,0.0,0.0,0.0,0.0,0.0,0.0,0.0,0.0,0.0,0.0,0.0,0.0,0.0,0.0,0.0,0.0,0.0,0.0,0.0,0.0,0.0,0.0,0.0,0.0,0.0,0.0,0.0,0.0,0.0,0.0,0.0,0.0,0.0,0.0,0.0,0.0,0.0,0.0,0.0,0.0,0.0,0.0,0.0,0.0,0.0,0.0,0.0,0.0,0.0,0.0,0.0,0.0,0.0,0.0,0.0,0.0,0.0,0.0,0.0,0.0,0.0,0.0,0.0,0.0,0.0,0.0,0.0,0.0,0.0,0.0,0.0,0.0,0.0,0.0,0.0,0.0,0.0,0.0,0.0,0.0,0.0,0.0,0.0,0.0,0.0,0.0,0.0,0.0,0.0,0.0,0.0,0.0,0.0,0.0,0.0,0.0,0.0,0.0,0.0,0.0,0.0,0.0,0.0,0.0,0.0,0.0,0.0,0.0,0.0,0.0,0.0,0.0,0.0,0.0,0.0,0.0,0.0,0.0,0.0,0.0,0.0,0.0,0.0,0.0,0.0,0.0,0.0,0.0,0.0,0.0,0.0,0.0,0.0,0.0,0.0,0.0,0.0,0.0,0.0,0.0,0.0,0.0,0.0,0.0,0.0,0.0,0.0,0.0,0.0,0.0,0.0,0.0,0.0,0.0,0.0,0.0,0.0,0.0,0.0,0.0,0.0,0.0,0.0,0.0,0.0,0.0,0.0,0.0,0.0,0.0,0.0,0.0,0.0,0.0,0.0,0.0,0.0,0.0,0.0,0.0,0.0,0.0,0.0,0.0,0.0,0.0,0.0,0.0,0.0,0.0,0.0,0.0,0.0,0.0,0.0,0.0,0.0,0.0,0.0,0.0,0.0,0.0,0.0,0.0,0.0,0.0,0.0,0.0,0.0,0.0,0.0,0.0,0.0,0.0,0.0,0.0,0.0,0.0,0.0,0.0,0.0,0.0,0.0,0.0,0.0,0.0,0.0,0.0,0.0,0.0,0.0,0.0,0.0,0.0,0.0,0.0,0.0,0.0,0.0,0.0,0.0,0.0,0.0,0.0,0.0,0.0,0.0,0.0,0.0,0.0,0.0,0.0,0.0,0.0,0.0,0.0,0.0,0.0,0.0,0.0,0.0,0.0,0.0,0.0,0.0,0.0,0.0,0.0,0.0,0.0,0.0,0.0,0.0,0.0,0.0,0.0,0.0,0.0,0.0,0.0,0.0,0.0,0.0,0.0,0.0,0.0,0.0,0.0,0.0,0.0,0.0,0.0,0.0,0.0,0.0,0.0,0.0,0.0,0.0,0.0,0.0,0.0,0.0,0.0,0.0,0.0,0.0,0.0,0.0,0.0,0.0,0.0,0.0,0.0,0.0,0.0,0.0,0.0,0.0,0.0,0.0,0.0,0.0,0.0,0.0,0.0,0.0,0.0,0.0,0.0,0.0,0.0,0.0,0.0,0.0,0.0,0.0,0.0,0.0,0.0,0.0,0.0,0.0,0.0,0.0,0.0,0.0,0.0,0.0,0.0,0.0,0.0,0.0,0.0,0.0,0.0,0.0,0.0,0.0,0.0,0.0,0.0,0.0,0.0,0.0,0.0,0.0,0.0,0.0,0.0,0.0,0.0,0.0,0.0,0.0,0.0,0.0,0.0,0.0,0.0,0.0,0.0,0.0,0.0,0.0,0.0,0.0,0.0,0.0,0.0,0.0,0.0,0.0,0.0,0.0,0.0,0.0,0.0,0.0,0.0,0.0,0.0,0.0,0.0,0.0,0.0,0.0,0.0,0.0,0.0,0.0,0.0,0.0,0.0,0.0,0.0,0.0,0.0,0.0,0.0,0.0,0.0,0.0,0.0,0.0,0.0,0.0,0.0,0.0,0.0,0.0,0.0,0.0,0.0,0.0,0.0,0.0,0.0,0.0,0.0,0.0,0.0,0.0,0.0,0.0,0.0,0.0,0.0,0.0,0.0,0.0,0.0,0.0,0.0,0.0,0.0,0.0,0.0,0.0,0.0,0.0,0.0,0.0,0.0,0.0,0.0,0.0,0.0,0.0,0.0,0.0,0.0,0.0,0.0,0.0,0.0,0.0,0.0,0.0,0.0,0.0,0.0,0.0,0.0,0.0,0.0,0.0,0.0,0.0,0.0,0.0,0.0,0.0,0.0,0.0,0.0,0.0,0.0,0.0,0.0,0.0,0.0,0.0,0.0,0.0,0.0,0.0,0.0,0.0,0.0,0.0,0.0,0.0,0.0,0.0,0.0,0.0,0.0,0.0,0.0,0.0,0.0,0.0,0.0,0.0,0.0,0.0,0.0,0.0,0.0,0.0,0.0,0.0,0.0,0.0,0.0,0.0,0.0,0.0,0.0,0.0,0.0,0.0,0.0,0.0,0.0,0.0,0.0,0.0,0.0,0.0,0.0,0.0,0.0,0.0,0.0,0.0,0.0,0.0,0.0,0.0,0.0,0.0,0.0,0.0,0.0,0.0,0.0,0.0,0.0,0.0,0.0,0.0,0.0,0.0,0.0,0.0,0.0,0.0,0.0,0.0,0.0,0.0,0.0,0.0,0.0,0.0,0.0,0.0,0.0,0.0,0.0,0.0,0.0,0.0,0.0,0.0,0.0,0.0,0.0,0.0,0.0,0.0,0.0,0.0,0.0,0.0,0.0,0.0,0.0,0.0,0.0,0.0,0.0,0.0,0.0,0.0,0.0,0.0,0.0,0.0,0.0,0.0,0.0,0.0,0.0,0.0,0.0,0.0,0.0,0.0,0.0,0.0,0.0,0.0,0.0,0.0,0.0,0.0,0.0,0.0,0.0,0.0,3.2469,0.0,0.0,0.0,0.0,0.0,0.0,0.0,0.0,0.0,0.0,0.0,0.0,0.0,0.0,0.0,0.0,0.0,0.0,0.0,0.0,0.0,0.0,0.0,0.0,0.0,0.0,0.0,0.0,0.0,0.0,0.0,0.0,0.0,0.0,0.0,0.0,0.0,0.0,0.0,0.0,0.0,0.0,0.0,0.0,0.0,0.0,0.0,0.0,0.0,0.0,0.0,0.0,0.0,0.0,0.0,0.0,0.0,0.0,0.0,0.0,0.0,0.0,0.0,0.0,0.0,0.0,0.0,0.0,0.0,0.0,0.0,0.0,0.0,0.0,0.0,0.0,0.0,0.0,0.0,0.0,0.0,0.0,0.0,0.0,0.0,0.0,0.0,0.0,0.0,0.0,0.0,0.0,0.0,0.0,0.0,0.0,0.0,0.0,0.0,0.0,0.0,0.0,0.0,0.0,0.0,0.0,0.0,0.0,0.0,0.0,3.2797,3.2442,3.3751,3.4278,3.3929,0.0,0.0,0.0,0.0,0.0,0.0,0.0,0.0,0.0,0.0,0.0,0.0,0.0,0.0,0.0,0.0,0.0,0.0,0.0,0.0,0.0,0.0,0.0,0.0,0.0,0.0,0.0,0.0,0.0,0.0,0.0,0.0,0.0,0.0,0.0,0.0,0.0,0.0,0.0,0.0,0.0,0.0,0.0,0.0,0.0,0.0,0.0,0.0,0.0,0.0,0.0,0.0,0.0,0.0,0.0,0.0,0.0,0.0,0.0,0.0,0.0,0.0,0.0,0.0,0.0,0.0,0.0,0.0,0.0,0.0,0.0,0.0,0.0,0.0,0.0,0.0,0.0,0.0,0.0,0.0,0.0,0.0,0.0,0.0,0.0,0.0,0.0,0.0,0.0,0.0,0.0,0.0,0.0,0.0,0.0,0.0,0.0,0.0,0.0,0.0,0.0,0.0,0.0,0.0,0.0,0.0,0.0,0.0,0.0,0.0,0.0,0.0,3.5118,3.5925,3.5622,0.0,0.0,0.0,0.0,0.0,0.0,0.0,0.0,0.0,0.0,0.0,0.0,0.0,0.0,0.0,0.0,0.0,0.0,0.0,0.0,0.0,0.0,0.0,0.0,0.0,0.0,0.0,0.0,0.0,0.0,0.0,0.0,0.0,0.0,0.0,0.0,0.0,0.0,0.0,0.0,0.0,0.0,0.0,0.0,0.0,0.0,0.0,0.0,0.0,0.0,0.0,0.0,0.0,0.0,0.0,0.0,0.0,0.0,0.0,0.0,0.0,0.0,0.0,0.0,0.0,0.0,0.0,0.0,0.0,0.0,0.0,0.0,0.0,0.0,0.0,0.0,0.0,0.0,0.0,0.0,0.0,0.0,0.0,0.0,0.0,0.0,0.0,0.0,0.0,0.0,0.0,0.0,0.0,0.0,0.0,0.0,0.0,0.0,0.0,0.0,0.0,0.0,0.0,0.0,0.0,0.0,0.0,0.0,0.0,0.0,3.3474,3.3423,3.4631,0.0,3.6663,0.0,0.0,0.0,0.0,0.0,0.0,0.0,0.0,0.0,0.0,0.0,0.0,0.0,0.0,0.0,0.0,0.0,0.0,0.0,0.0,0.0,0.0,0.0,0.0,0.0,0.0,0.0,0.0,0.0,0.0,0.0,0.0,0.0,0.0,0.0,0.0,0.0,0.0,0.0,0.0,0.0,0.0,0.0,0.0,0.0,0.0,0.0,0.0,0.0,0.0,0.0,0.0,0.0,0.0,0.0,0.0,0.0,0.0,0.0,0.0,0.0,0.0,0.0,0.0,0.0,0.0,0.0,0.0,0.0,0.0,0.0,0.0,0.0,0.0,0.0,0.0,0.0,0.0,0.0,0.0,0.0,0.0,0.0,0.0,0.0,0.0,0.0,0.0,0.0,0.0,0.0,0.0,0.0,0.0,0.0,0.0,0.0,0.0,0.0,0.0,0.0,0.0,0.0,0.0,0.0,0.0,0.0,0.0,0.0,0.0,3.4979,3.4715,3.546,3.6277,0.0,0.0,0.0,0.0,0.0,0.0,0.0,0.0,0.0,0.0,0.0,0.0,0.0,0.0,0.0,0.0,0.0,0.0,0.0,0.0,0.0,0.0,0.0,0.0,0.0,0.0,0.0,0.0,0.0,0.0,0.0,0.0,0.0,0.0,0.0,0.0,0.0,0.0,0.0,0.0,0.0,0.0,0.0,0.0,0.0,0.0,0.0,0.0,0.0,0.0,0.0,0.0,0.0,0.0,0.0,0.0,0.0,0.0,0.0,0.0,0.0,0.0,0.0,0.0,0.0,0.0,0.0,0.0,0.0,0.0,0.0,0.0,0.0,0.0,0.0,0.0,0.0,0.0,0.0,0.0,0.0,0.0,0.0,0.0,0.0,0.0,0.0,0.0,0.0,0.0,0.0,0.0,0.0,0.0,0.0,0.0,0.0,0.0,0.0,0.0,0.0,0.0,0.0,0.0,0.0,0.0,0.0,0.0,0.0,0.0,3.6284,3.6241,3.6133,3.6437,3.6976,3.7685,0.0,0.0,0.0,0.0,0.0,0.0,0.0,0.0,0.0,0.0,0.0,0.0,0.0,0.0,0.0,0.0,0.0,0.0,0.0,0.0,0.0,0.0,0.0,0.0,0.0,0.0,0.0,0.0,0.0,0.0,0.0,0.0,0.0,0.0,0.0,0.0,0.0,0.0,0.0,0.0,0.0,0.0,0.0,0.0,0.0,0.0,0.0,0.0,0.0,0.0,0.0,0.0,0.0,0.0,0.0,0.0,0.0,0.0,0.0,0.0,0.0,0.0,0.0,0.0,0.0,0.0,0.0,0.0,0.0,0.0,0.0,0.0,0.0,0.0,0.0,0.0,0.0,0.0,0.0,0.0,0.0,0.0,0.0,0.0,0.0,0.0,0.0,0.0,0.0,0.0,0.0,0.0,0.0,0.0,0.0,0.0,0.0,0.0,0.0,0.0,0.0,0.0,0.0,0.0,0.0,0.0,0.0,0.0,3.6305,3.6311,3.6658,3.7403,3.7441,3.7676,0.0,0.0,0.0,0.0,0.0,0.0,0.0,0.0,0.0,0.0,0.0,0.0,0.0,0.0,0.0,0.0,0.0,0.0,0.0,0.0,0.0,0.0,0.0,0.0,0.0,0.0,0.0,0.0,0.0,0.0,0.0,0.0,0.0,0.0,0.0,0.0,0.0,0.0,0.0,0.0,0.0,0.0,0.0,0.0,0.0,0.0,0.0,0.0,0.0,0.0,0.0,0.0,0.0,0.0,0.0,0.0,0.0,0.0,0.0,0.0,0.0,0.0,0.0,0.0,0.0,0.0,0.0,0.0,0.0,0.0,0.0,0.0,0.0,0.0,0.0,0.0,0.0,0.0,0.0,0.0,0.0,0.0,0.0,0.0,0.0,0.0,0.0,0.0,0.0,0.0,0.0,0.0,0.0,0.0,0.0,0.0,0.0,0.0,0.0,0.0,0.0,0.0,0.0,0.0,0.0,0.0,0.0,0.0,0.0,3.7063,3.7321,3.7953,3.8958,3.8773,3.8867,0.0,0.0,0.0,0.0,0.0,0.0,0.0,0.0,0.0,0.0,0.0,0.0,0.0,0.0,0.0,0.0,0.0,0.0,0.0,0.0,0.0,0.0,0.0,0.0,0.0,0.0,0.0,0.0,0.0,0.0,0.0,0.0,0.0,0.0,0.0,0.0,0.0,0.0,0.0,0.0,0.0,0.0,0.0,0.0,0.0,0.0,0.0,0.0,0.0,0.0,0.0,0.0,0.0,0.0,0.0,0.0,0.0,0.0,0.0,0.0,0.0,0.0,0.0,0.0,0.0,0.0,0.0,0.0,0.0,0.0,0.0,0.0,0.0,0.0,0.0,0.0,0.0,0.0,0.0,0.0,0.0,0.0,0.0,0.0,0.0,0.0,0.0,0.0,0.0,0.0,0.0,0.0,0.0,0.0,0.0,0.0,0.0,0.0,0.0,0.0,0.0,0.0,0.0,0.0,0.0,0.0,0.0,0.0,0.0,3.8272,0.0,3.9132,4.0034,3.9896,3.9888,0.0,0.0,0.0,0.0,0.0,0.0,0.0,0.0,0.0,0.0,0.0,0.0,0.0,0.0,0.0,0.0,0.0,0.0,0.0,0.0,0.0,0.0,0.0,0.0,0.0,0.0,0.0,0.0,0.0,0.0,0.0,0.0,0.0,0.0,0.0,0.0,0.0,0.0,0.0,0.0,0.0,0.0,0.0,0.0,0.0,0.0,0.0,0.0,0.0,0.0,0.0,0.0,0.0,0.0,0.0,0.0,0.0,0.0,0.0,0.0,0.0,0.0,0.0,0.0,0.0,0.0,0.0,0.0,0.0,0.0,0.0,0.0,0.0,0.0,0.0,0.0,0.0,0.0,0.0,0.0,0.0,0.0,0.0,0.0,0.0,0.0,0.0,0.0,0.0,0.0,0.0,0.0,0.0,0.0,0.0,0.0,0.0,0.0,0.0,0.0,0.0,0.0,0.0,0.0,0.0,0.0,0.0,0.0,3.9917,3.9917,3.9927,4.0152,4.0519,4.069,4.0742,0.0,0.0,0.0,0.0,0.0,0.0,0.0,0.0,0.0,0.0,0.0,0.0,0.0,0.0,0.0,0.0,0.0,0.0,0.0,0.0,0.0,0.0,0.0,0.0,0.0,0.0,0.0,0.0,0.0,0.0,0.0,0.0,0.0,0.0,0.0,0.0,0.0,0.0,0.0,0.0,0.0,0.0,0.0,0.0,0.0,0.0,0.0,0.0,0.0,0.0,0.0,0.0,0.0,0.0,0.0,0.0,0.0,0.0,0.0,0.0,0.0,0.0,0.0,0.0,0.0,0.0,0.0,0.0,0.0,0.0,0.0,0.0,0.0,0.0,0.0,0.0,0.0,0.0,0.0,0.0,0.0,0.0,0.0,0.0,0.0,0.0,0.0,0.0,0.0,0.0,0.0,0.0,0.0,0.0,0.0,0.0,0.0,0.0,0.0,0.0,0.0,0.0,0.0,0.0,0.0,0.0,0.0,0.0,0.0,4.1168,4.127,4.1651,4.2268,4.2368,4.2422,0.0,0.0,0.0,0.0,0.0,0.0,0.0,0.0,0.0,0.0,0.0,0.0,0.0,0.0,0.0,0.0,0.0,0.0,0.0,0.0,0.0,0.0,0.0,0.0,0.0,0.0,0.0,0.0,0.0,0.0,0.0,0.0,0.0,0.0,0.0,0.0,0.0,0.0,0.0,0.0,0.0,0.0,0.0,0.0,0.0,0.0,0.0,0.0,0.0,0.0,0.0,0.0,0.0,0.0,0.0,0.0,0.0,0.0,0.0,0.0,0.0,0.0,0.0,0.0,0.0,0.0,0.0,0.0,0.0,0.0,0.0,0.0,0.0,0.0,0.0,0.0,0.0,0.0,0.0,0.0,0.0,0.0,0.0,0.0,0.0,0.0,0.0,0.0,0.0,0.0,0.0,0.0,0.0,0.0,0.0,0.0,0.0,0.0,0.0,0.0,0.0,0.0,0.0,0.0,0.0,0.0,0.0,0.0,0.0,4.2305,4.2386,4.2659,4.3114,4.3233,4.3269,4.3269,0.0,0.0,0.0,0.0,0.0,0.0,0.0,0.0,0.0,0.0,0.0,0.0,0.0,0.0,0.0,0.0,0.0,0.0,0.0,0.0,0.0,0.0,0.0,0.0,0.0,0.0,0.0,0.0,0.0,0.0,0.0,0.0,0.0,0.0,0.0,0.0,0.0,0.0,0.0,0.0,0.0,0.0,0.0,0.0,0.0,0.0,0.0,0.0,0.0,0.0,0.0,0.0,0.0,0.0,0.0,0.0,0.0,0.0,0.0,0.0,0.0,0.0,0.0,0.0,0.0,0.0,0.0,0.0,0.0,0.0,0.0,0.0,0.0,0.0,0.0,0.0,0.0,0.0,0.0,0.0,0.0,0.0,0.0,0.0,0.0,0.0,0.0,0.0,0.0,0.0,0.0,0.0,0.0,0.0,0.0,0.0,0.0,0.0,0.0,0.0,0.0,0.0,0.0,0.0,0.0,0.0,0.0,0.0,4.3233,4.3205,4.3205,4.3214,4.334,4.3394,0.0,0.0,0.0,0.0,0.0,0.0,0.0,0.0,0.0,0.0,0.0,0.0,0.0,0.0,0.0,0.0,0.0,0.0,0.0,0.0,0.0,0.0,0.0,0.0,0.0,0.0,0.0,0.0,0.0,0.0,0.0,0.0,0.0,0.0,0.0,0.0,0.0,0.0,0.0,0.0,0.0,0.0,0.0,0.0,0.0,0.0,0.0,0.0,0.0,0.0,0.0,0.0,0.0,0.0,0.0,0.0,0.0,0.0,0.0,0.0,0.0,0.0,0.0,0.0,0.0,0.0,0.0,0.0,0.0,0.0,0.0,0.0,0.0,0.0,0.0,0.0,0.0,0.0,0.0,0.0,0.0,0.0,0.0,0.0,0.0,0.0,0.0,0.0,0.0,0.0,0.0,0.0,0.0,0.0,0.0,0.0,0.0,0.0,0.0,0.0,0.0,0.0,0.0,0.0,0.0,0.0,0.0,0.0,0.0,4.341,4.341,4.3393,4.3349,4.3419,4.3471,0.0,0.0,0.0,0.0,0.0,0.0,0.0,0.0,0.0,0.0,0.0,0.0,0.0,0.0,0.0,0.0,0.0,0.0,0.0,0.0,0.0,0.0,0.0,0.0,0.0,0.0,0.0,0.0,0.0,0.0,0.0,0.0,0.0,0.0,0.0,0.0,0.0,0.0,0.0,0.0,0.0,0.0,0.0,0.0,0.0,0.0,0.0,0.0,0.0,0.0,0.0,0.0,0.0,0.0,0.0,0.0,0.0,0.0,0.0,0.0,0.0,0.0,0.0,0.0,0.0,0.0,0.0,0.0,0.0,0.0,0.0,0.0,0.0,0.0,0.0,0.0,0.0,0.0,0.0,0.0,0.0,0.0,0.0,0.0,0.0,0.0,0.0,0.0,0.0,0.0,0.0,0.0,0.0,0.0,0.0,0.0,0.0,0.0,0.0,0.0,0.0,0.0,0.0,0.0,0.0,0.0,0.0,0.0,4.3791,4.3926,4.3965,4.3897,4.3699,4.3575,4.3488,0.0,0.0,0.0,0.0,0.0,0.0,0.0,0.0,0.0,0.0,0.0,0.0,0.0,0.0,0.0,0.0,0.0,0.0,0.0,0.0,0.0,0.0,0.0,0.0,0.0,0.0,0.0,0.0,0.0,0.0,0.0,0.0,0.0,0.0,0.0,0.0,0.0,0.0,0.0,0.0,0.0,0.0,0.0,0.0,0.0,0.0,0.0,0.0,0.0,0.0,0.0,0.0,0.0,0.0,0.0,0.0,0.0,0.0,0.0,0.0,0.0,0.0,0.0,0.0,0.0,0.0,0.0,0.0,0.0,0.0,0.0,0.0,0.0,0.0,0.0,0.0,0.0,0.0,0.0,0.0,0.0,0.0,0.0,0.0,0.0,0.0,0.0,0.0,0.0,0.0,0.0,0.0,0.0,0.0,0.0,0.0,0.0,0.0,0.0,0.0,0.0,0.0,0.0,0.0,0.0,0.0,0.0,0.0,4.4216,4.4487,4.4579,4.4452,4.4166,4.3769,4.3548,0.0,0.0,0.0,0.0,0.0,0.0,0.0,0.0,0.0,0.0,0.0,0.0,0.0,0.0,0.0,0.0,0.0,0.0,0.0,0.0,0.0,0.0,0.0,0.0,0.0,0.0,0.0,0.0,0.0,0.0,0.0,0.0,0.0,0.0,0.0,0.0,0.0,0.0,0.0,0.0,0.0,0.0,0.0,0.0,0.0,0.0,0.0,0.0,0.0,0.0,0.0,0.0,0.0,0.0,0.0,0.0,0.0,0.0,0.0,0.0,0.0,0.0,0.0,0.0,0.0,0.0,0.0,0.0,0.0,0.0,0.0,0.0,0.0,0.0,0.0,0.0,0.0,0.0,0.0,0.0,0.0,0.0,0.0,0.0,0.0,0.0,0.0,0.0,0.0,0.0,0.0,0.0,0.0,0.0,0.0,0.0,0.0,0.0,0.0,0.0,0.0,0.0,0.0,0.0,0.0,0.0,0.0,0.0,4.4507,4.4585,4.4586,4.4579,4.4474,4.4202,4.3897,0.0,0.0,0.0,0.0,0.0,0.0,0.0,0.0,0.0,0.0,0.0,0.0,0.0,0.0,0.0,0.0,0.0,0.0,0.0,0.0,0.0,0.0,0.0,0.0,0.0,0.0,0.0,0.0,0.0,0.0,0.0,0.0,0.0,0.0,0.0,0.0,0.0,0.0,0.0,0.0,0.0,0.0,0.0,0.0,0.0,0.0,0.0,0.0,4.0835,0.0,0.0,0.0,0.0,0.0,0.0,0.0,0.0,0.0,0.0,0.0,0.0,0.0,0.0,0.0,0.0,0.0,0.0,0.0,0.0,0.0,0.0,0.0,0.0,0.0,0.0,0.0,0.0,0.0,0.0,0.0,0.0,0.0,0.0,0.0,0.0,0.0,0.0,0.0,0.0,0.0,0.0,0.0,0.0,0.0,0.0,0.0,0.0,0.0,0.0,0.0,0.0,0.0,0.0,0.0,0.0,0.0,0.0,0.0,4.4877,4.503,4.5069,4.4994,4.483,4.4732,4.4385,0.0,0.0,0.0,0.0,0.0,0.0,0.0,0.0,0.0,0.0,0.0,0.0,0.0,0.0,0.0,0.0,0.0,0.0,0.0,0.0,0.0,0.0,0.0,0.0,0.0,0.0,0.0,0.0,0.0,0.0,0.0,0.0,0.0,0.0,0.0,0.0,0.0,0.0,0.0,0.0,0.0,0.0,0.0,0.0,0.0,0.0,0.0,0.0,0.0,0.0,0.0,0.0,0.0,0.0,0.0,0.0,0.0,0.0,0.0,0.0,0.0,0.0,0.0,0.0,0.0,0.0,0.0,0.0,0.0,0.0,0.0,0.0,0.0,0.0,0.0,0.0,0.0,0.0,0.0,0.0,0.0,0.0,0.0,0.0,0.0,0.0,0.0,0.0,0.0,0.0,0.0,0.0,0.0,0.0,0.0,0.0,0.0,0.0,0.0,0.0,0.0,0.0,0.0,0.0,0.0,0.0,0.0,4.5005,4.5256,4.5504,4.5573,4.5452,4.5191,4.5232,4.49,4.4139,0.0,0.0,0.0,0.0,0.0,0.0,0.0,0.0,0.0,0.0,0.0,0.0,0.0,0.0,0.0,0.0,0.0,0.0,0.0,0.0,0.0,0.0,0.0,0.0,0.0,0.0,0.0,0.0,0.0,0.0,0.0,0.0,0.0,0.0,0.0,0.0,0.0,0.0,4.1266,4.1255,0.0,0.0,0.0,0.0,0.0,0.0,0.0,0.0,4.117,0.0,0.0,0.0,0.0,0.0,0.0,0.0,0.0,0.0,0.0,0.0,0.0,0.0,0.0,0.0,0.0,0.0,0.0,0.0,0.0,0.0,0.0,0.0,0.0,0.0,0.0,0.0,0.0,0.0,0.0,0.0,0.0,0.0,0.0,0.0,0.0,0.0,0.0,0.0,0.0,0.0,0.0,0.0,0.0,0.0,0.0,0.0,0.0,0.0,0.0,0.0,0.0,0.0,0.0,0.0,0.0,4.5457,4.5287,4.5312,4.5577,4.559,4.5573,4.5537,4.5541,4.5237,4.4612,0.0,0.0,0.0,0.0,0.0,0.0,0.0,0.0,0.0,0.0,0.0,0.0,0.0,0.0,0.0,0.0,0.0,0.0,0.0,0.0,0.0,0.0,0.0,0.0,0.0,0.0,0.0,0.0,0.0,0.0,0.0,0.0,0.0,0.0,0.0,0.0,0.0,0.0,0.0,4.152,4.152,0.0,0.0,0.0,0.0,0.0,0.0,0.0,0.0,4.2827,0.0,0.0,0.0,0.0,0.0,0.0,0.0,0.0,0.0,0.0,0.0,0.0,0.0,0.0,0.0,0.0,0.0,0.0,0.0,0.0,0.0,0.0,0.0,0.0,0.0,0.0,0.0,0.0,0.0,0.0,0.0,0.0,0.0,0.0,0.0,0.0,0.0,0.0,0.0,0.0,0.0,0.0,0.0,0.0,0.0,0.0,0.0,0.0,0.0,0.0,0.0,0.0,0.0,0.0,0.0,4.5434,4.5448,4.5504,4.559,4.5594,4.5594,4.5594,4.5594,4.5405,0.0,0.0,0.0,0.0,0.0,0.0,0.0,0.0,0.0,0.0,0.0,0.0,0.0,0.0,0.0,0.0,0.0,0.0,0.0,0.0,0.0,0.0,0.0,0.0,0.0,0.0,0.0,0.0,0.0,0.0,0.0,0.0,0.0,0.0,0.0,0.0,0.0,0.0,0.0,0.0,4.2379,4.2531,4.2919,0.0,0.0,0.0,0.0,0.0,0.0,4.3105,4.3333,0.0,0.0,0.0,0.0,0.0,0.0,0.0,0.0,0.0,0.0,0.0,0.0,0.0,0.0,0.0,0.0,0.0,0.0,0.0,0.0,0.0,0.0,0.0,0.0,0.0,0.0,0.0,0.0,0.0,0.0,0.0,0.0,0.0,0.0,0.0,0.0,0.0,0.0,0.0,0.0,0.0,0.0,0.0,0.0,0.0,0.0,0.0,0.0,0.0,0.0,0.0,0.0,0.0,0.0,0.0,4.5395,4.554,4.562,4.562,4.5631,4.5627,4.5627,4.5599,4.5462,0.0,0.0,0.0,0.0,0.0,0.0,0.0,0.0,0.0,0.0,0.0,0.0,0.0,0.0,0.0,0.0,0.0,0.0,0.0,0.0,0.0,0.0,0.0,0.0,0.0,0.0,0.0,0.0,0.0,0.0,0.0,0.0,0.0,0.0,0.0,0.0,0.0,0.0,0.0,0.0,0.0,4.364,4.429,4.4361,0.0,0.0,0.0,0.0,4.386,4.3963,0.0,0.0,0.0,0.0,0.0,0.0,0.0,0.0,0.0,0.0,0.0,0.0,0.0,0.0,0.0,0.0,0.0,0.0,0.0,0.0,0.0,0.0,0.0,0.0,0.0,0.0,0.0,0.0,0.0,0.0,0.0,0.0,0.0,0.0,0.0,0.0,0.0,0.0,0.0,0.0,0.0,0.0,0.0,0.0,0.0,0.0,0.0,0.0,0.0,0.0,0.0,0.0,0.0,0.0,0.0,0.0,4.5636,4.545,4.5473,4.568,4.5694,4.5693,4.5693,4.5616,4.5462,0.0,0.0,0.0,0.0,0.0,0.0,0.0,0.0,0.0,0.0,0.0,0.0,0.0,0.0,0.0,0.0,0.0,0.0,0.0,0.0,0.0,0.0,0.0,0.0,0.0,0.0,0.0,0.0,0.0,0.0,0.0,0.0,0.0,0.0,0.0,0.0,0.0,0.0,0.0,0.0,0.0,4.4463,4.4552,4.457,4.4493,0.0,0.0,4.5152,4.4958,4.546,0.0,0.0,0.0,0.0,0.0,0.0,0.0,0.0,0.0,0.0,0.0,0.0,0.0,0.0,0.0,0.0,0.0,0.0,0.0,0.0,0.0,0.0,0.0,0.0,0.0,0.0,0.0,0.0,0.0,0.0,0.0,0.0,0.0,0.0,0.0,0.0,0.0,0.0,0.0,0.0,0.0,0.0,0.0,0.0,0.0,0.0,0.0,0.0,0.0,0.0,0.0,0.0,0.0,0.0,0.0,4.5634,4.5754,4.5629,4.5617,4.5684,4.5688,4.568,4.568,4.5679,4.5575,0.0,0.0,0.0,0.0,0.0,0.0,0.0,0.0,0.0,0.0,0.0,0.0,0.0,0.0,0.0,0.0,0.0,0.0,0.0,0.0,0.0,0.0,0.0,0.0,0.0,0.0,0.0,0.0,0.0,0.0,0.0,0.0,0.0,0.0,0.0,0.0,0.0,0.0,0.0,0.0,0.0,0.0,4.5891,4.5963,0.0,0.0,0.0,4.6222,4.5988,0.0,0.0,0.0,0.0,0.0,0.0,0.0,0.0,0.0,0.0,0.0,0.0,0.0,0.0,0.0,0.0,0.0,0.0,0.0,0.0,0.0,0.0,0.0,0.0,0.0,0.0,0.0,0.0,0.0,0.0,0.0,0.0,0.0,0.0,0.0,0.0,0.0,0.0,0.0,0.0,0.0,0.0,0.0,0.0,0.0,0.0,0.0,0.0,0.0,0.0,0.0,0.0,0.0,0.0,0.0,0.0,0.0,4.6108,4.6131,4.6213,4.6376,4.6364,4.6356,4.6356,4.6348,0.0,0.0,0.0,0.0,0.0,0.0,0.0,0.0,0.0,0.0,0.0,0.0,0.0,0.0,0.0,0.0,0.0,0.0,0.0,0.0,0.0,0.0,0.0,0.0,0.0,0.0,0.0,4.3779,0.0,0.0,0.0,0.0,0.0,0.0,0.0,0.0,0.0,0.0,0.0,0.0,0.0,0.0,4.6469,4.716,4.7422,4.7541,0.0,0.0,4.7695,4.7572,4.7393,4.7222,0.0,0.0,0.0,0.0,0.0,0.0,0.0,0.0,0.0,0.0,0.0,0.0,0.0,0.0,0.0,0.0,0.0,0.0,0.0,0.0,0.0,0.0,0.0,0.0,0.0,0.0,0.0,0.0,0.0,0.0,0.0,0.0,0.0,0.0,0.0,0.0,0.0,0.0,0.0,0.0,0.0,0.0,0.0,0.0,0.0,0.0,0.0,0.0,0.0,0.0,0.0,0.0,0.0,0.0,0.0,4.698,4.6999,4.7401,4.8171,4.8153,4.8118,4.8118,4.8121,4.8096,0.0,0.0,0.0,0.0,0.0,0.0,0.0,0.0,0.0,0.0,0.0,0.0,0.0,0.0,0.0,0.0,0.0,0.0,0.0,0.0,0.0,0.0,0.0,0.0,0.0,0.0,0.0,0.0,0.0,0.0,0.0,0.0,0.0,0.0,0.0,0.0,0.0,0.0,0.0,0.0,0.0,4.7514,4.7891,4.8579,4.9045,0.0,0.0,4.9813,5.0085,4.9545,4.9156,4.9245,0.0,0.0,0.0,0.0,0.0,0.0,0.0,0.0,0.0,0.0,0.0,0.0,0.0,0.0,0.0,0.0,0.0,0.0,0.0,0.0,0.0,0.0,0.0,0.0,0.0,0.0,0.0,0.0,0.0,0.0,0.0,0.0,0.0,0.0,0.0,0.0,0.0,0.0,0.0,0.0,0.0,0.0,0.0,0.0,0.0,0.0,0.0,0.0,0.0,0.0,0.0,0.0,0.0,4.7563,4.7908,4.7892,4.8063,4.8372,4.8377,4.8369,4.8369,4.8373,4.8334,0.0,0.0,0.0,0.0,0.0,0.0,0.0,0.0,0.0,0.0,0.0,0.0,0.0,0.0,0.0,0.0,0.0,0.0,0.0,0.0,0.0,0.0,0.0,0.0,0.0,0.0,0.0,0.0,4.6475,4.7046,4.7694,0.0,0.0,0.0,0.0,0.0,0.0,0.0,0.0,0.0,0.0,4.9336,4.9471,4.9747,0.0,0.0,5.0088,5.0256,5.0375,4.9984,4.9675,4.9714,4.9647,0.0,0.0,0.0,0.0,0.0,0.0,0.0,0.0,0.0,0.0,0.0,0.0,0.0,0.0,0.0,0.0,0.0,0.0,0.0,0.0,0.0,0.0,0.0,0.0,0.0,0.0,0.0,0.0,0.0,0.0,0.0,0.0,0.0,0.0,0.0,0.0,0.0,0.0,0.0,0.0,0.0,0.0,0.0,0.0,0.0,0.0,0.0,0.0,0.0,0.0,0.0,0.0,4.8546,4.8798,4.8778,4.8894,4.9142,4.9146,4.9146,4.9142,4.9142,4.9107,0.0,0.0,0.0,0.0,0.0,0.0,0.0,0.0,0.0,0.0,0.0,0.0,0.0,0.0,0.0,0.0,0.0,0.0,0.0,0.0,0.0,0.0,0.0,0.0,0.0,0.0,0.0,0.0,4.7598,4.8389,4.9169,0.0,0.0,0.0,0.0,0.0,0.0,0.0,0.0,0.0,0.0,5.0591,5.0682,5.0802,5.0916,5.0905,5.0938,5.0987,5.1113,5.0801,5.0618,5.0748,0.0,0.0,0.0,0.0,0.0,0.0,0.0,0.0,0.0,0.0,0.0,0.0,0.0,0.0,0.0,0.0,0.0,0.0,0.0,0.0,0.0,0.0,0.0,0.0,0.0,0.0,0.0,4.5899,0.0,0.0,4.598,0.0,0.0,0.0,0.0,0.0,0.0,0.0,0.0,0.0,0.0,0.0,0.0,0.0,0.0,0.0,0.0,0.0,0.0,0.0,0.0,0.0,0.0,4.8836,4.9649,4.9684,5.0051,5.0782,5.084,5.0801,5.0801,5.084,5.084,5.0817,0.0,0.0,0.0,0.0,0.0,0.0,0.0,0.0,0.0,0.0,0.0,0.0,0.0,0.0,0.0,0.0,0.0,0.0,0.0,0.0,0.0,0.0,0.0,0.0,0.0,0.0,4.7627,4.8417,4.9197,0.0,0.0,0.0,0.0,0.0,0.0,0.0,0.0,0.0,0.0,5.0871,5.1014,5.1371,5.1783,5.2064,5.2083,5.2149,5.2312,5.2718,5.2434,5.2295,0.0,0.0,0.0,0.0,0.0,0.0,0.0,0.0,0.0,0.0,0.0,0.0,0.0,0.0,0.0,0.0,0.0,0.0,0.0,0.0,0.0,0.0,0.0,0.0,0.0,0.0,0.0,4.5838,4.5905,0.0,0.0,0.0,0.0,0.0,0.0,0.0,0.0,0.0,0.0,0.0,4.8047,4.8364,0.0,0.0,0.0,0.0,0.0,0.0,0.0,0.0,0.0,0.0,0.0,0.0,5.0206,5.0492,5.0492,5.0612,5.0898,5.0898,5.0898,5.0898,5.0898,5.0898,5.0898,0.0,0.0,0.0,0.0,0.0,0.0,0.0,0.0,0.0,0.0,0.0,0.0,0.0,0.0,0.0,0.0,0.0,0.0,0.0,0.0,0.0,0.0,0.0,0.0,0.0,4.8407,0.0,0.0,0.0,0.0,0.0,0.0,0.0,0.0,0.0,0.0,0.0,5.1818,5.1721,5.2348,5.2872,5.2976,5.3133,5.3426,0.0,0.0,0.0,0.0,0.0,0.0,0.0,0.0,0.0,0.0,0.0,0.0,0.0,0.0,5.3953,5.2801,5.2725,5.2802,5.2648,0.0,0.0,0.0,0.0,0.0,0.0,0.0,0.0,0.0,0.0,0.0,0.0,0.0,0.0,4.6506,0.0,4.6771,0.0,0.0,0.0,0.0,0.0,0.0,0.0,0.0,4.8871,4.8983,4.8899,4.9259,4.9411,0.0,4.9372,4.9417,0.0,0.0,0.0,0.0,0.0,0.0,0.0,0.0,5.1084,5.1351,5.1347,5.1501,5.1792,5.1815,5.1811,5.1811,5.1792,5.1796,5.1811,5.1521,5.1347,0.0,0.0,0.0,0.0,0.0,0.0,0.0,0.0,0.0,0.0,0.0,0.0,0.0,0.0,0.0,0.0,0.0,0.0,0.0,0.0,0.0,0.0,0.0,5.0035,0.0,0.0,0.0,0.0,0.0,0.0,0.0,0.0,0.0,5.1655,5.2381,5.304,5.3097,5.3753,5.4333,5.4611,0.0,0.0,0.0,0.0,0.0,0.0,0.0,5.5693,5.5693,5.5818,5.5847,5.5625,5.5765,5.5983,5.6262,0.0,0.0,5.4829,5.4615,5.4548,5.443,5.442,5.4371,5.4281,5.4227,5.4173,0.0,0.0,0.0,0.0,0.0,0.0,0.0,0.0,4.7243,4.7685,0.0,4.8373,0.0,0.0,0.0,0.0,0.0,4.8808,0.0,0.0,4.9501,4.9853,4.994,5.0794,5.1222,5.1194,5.1227,5.1229,5.115,5.0289,0.0,0.0,0.0,0.0,0.0,0.0,5.1465,5.221,5.2244,5.2631,5.3424,5.3459,5.3478,5.3459,5.3459,5.3463,5.3463,5.267,5.2225,5.2225,5.1327,0.0,0.0,0.0,0.0,0.0,0.0,0.0,0.0,0.0,0.0,0.0,0.0,0.0,0.0,0.0,0.0,0.0,0.0,0.0,0.0,5.1174,0.0,0.0,0.0,0.0,0.0,0.0,0.0,0.0,0.0,0.0,5.2967,5.3413,5.4156,5.4917,0.0,0.0,0.0,0.0,5.5707,5.5773,5.5482,5.5291,5.5357,5.5622,5.5836,5.5836,0.0,0.0,5.6385,5.6385,5.6422,5.6395,5.6469,5.6395,5.6376,5.6255,5.6169,5.608,5.5994,5.6068,5.6047,5.5742,5.5681,4.7698,0.0,0.0,0.0,0.0,4.7942,4.8016,4.8131,4.8112,4.8264,4.8496,4.8496,0.0,0.0,0.0,0.0,0.0,0.0,5.0375,5.0332,5.0593,5.1039,5.1575,5.1921,5.2375,5.2937,5.2969,5.2969,5.2937,5.2723,5.2307,5.1693,0.0,0.0,0.0,0.0,5.2903,5.3115,5.3115,5.325,5.3498,5.3498,5.3498,5.3498,5.3498,5.3498,5.3498,5.327,5.3134,5.3115,5.2865,0.0,0.0,0.0,0.0,0.0,0.0,0.0,0.0,0.0,0.0,0.0,0.0,0.0,0.0,0.0,0.0,0.0,0.0,0.0,5.1493,5.2192,5.2621,0.0,0.0,0.0,0.0,0.0,0.0,0.0,0.0,0.0,5.5307,5.5429,5.567,0.0,0.0,5.6004,5.6265,5.6203,5.6327,5.6901,5.6903,0.0,5.7627,5.7775,5.7846,5.7828,5.792,5.8019,5.8019,5.8019,5.8,5.8019,5.8,5.8,5.7945,5.7063,5.6385,5.6262,5.6243,5.6164,5.5992,5.5916,5.5889,4.8962,4.8514,4.873,4.8753,4.8669,4.865,4.8777,4.8979,4.8979,4.9134,4.944,4.9459,4.9481,4.9607,5.0462,0.0,0.0,0.0,5.2174,5.2103,5.211,5.2392,5.284,5.2921,5.322,5.3687,5.3717,5.3738,5.3706,5.4104,5.3989,5.3444,0.0,0.0,5.3643,5.3605,5.3739,5.4037,5.4057,5.4192,5.4484,5.4503,5.4484,5.4484,5.4484,5.4484,5.4503,5.4179,5.4005,5.4,5.3672,5.3404,0.0,0.0,0.0,0.0,0.0,0.0,0.0,0.0,0.0,0.0,0.0,5.1672,5.1672,0.0,0.0,0.0,5.2488,5.2775,5.3057,5.3712,0.0,0.0,0.0,0.0,0.0,0.0,0.0,5.5522,5.6265,5.6775,5.6803,5.7063,5.7127,5.6822,5.6766,5.6896,5.7202,0.0,5.7536,5.8345,5.8446,5.8743,5.9542,5.969,5.9682,5.969,5.9672,5.969,5.969,5.969,5.969,5.9672,5.969,5.969,5.969,5.8865,5.8122,5.7825,5.8011,5.8153,5.7973,5.7922,5.7868,5.0205,5.0146,4.9503,4.9078,4.8796,4.8794,4.9185,4.9788,4.9873,5.0325,5.0999,5.1111,5.1159,5.1292,5.22,0.0,5.2743,5.354,5.3844,5.38,5.3741,5.3751,5.3834,5.3876,5.3916,5.394,5.3978,5.3997,5.3999,5.4734,5.5136,5.5087,5.439,5.3982,5.3923,5.3908,5.4259,5.4981,5.5001,5.5308,5.5973,5.6008,5.6008,5.5988,5.6008,5.5988,5.5969,5.5277,5.4909,5.4871,5.414,5.3621,5.3422,0.0,0.0,0.0,0.0,0.0,0.0,0.0,0.0,0.0,0.0,0.0,0.0,0.0,0.0,0.0,5.3127,0.0,5.5,5.5473,0.0,0.0,0.0,5.634,5.6395,5.6395,5.6432,5.6487,0.0,0.0,5.7685,5.839,5.8613,5.7889,5.774,5.7982,5.878,5.8921,5.917,5.9858,5.9988,6.0266,6.0908,6.1057,6.1038,6.1038,6.1187,6.1113,6.1094,6.1102,6.1168,6.1094,6.1168,6.115,6.1168,6.1065,6.1046,6.0192,6.0611,6.1062,6.0774,6.0704,6.0633,5.2068,5.2106,5.2511,5.1858,5.0522,5.0503,5.0562,5.0681,5.1447,5.1865,5.2085,5.2785,5.312,5.3154,5.3381,5.3506,5.353,5.3728,5.3793,5.3721,5.3745,5.4138,5.4818,5.4863,5.5233,5.5891,5.5927,5.5928,5.593,5.611,5.617,5.6092,5.6512,5.6387,5.5701,5.5613,5.5676,5.5811,5.5811,5.5866,5.5993,5.6008,5.6008,5.6008,5.6008,5.6008,5.6008,5.5814,5.5718,5.5718,5.5524,5.5376,5.535,5.5345,0.0,0.0,0.0,0.0,0.0,0.0,0.0,0.0,0.0,5.3397,5.3397,0.0,5.4299,0.0,5.5045,5.5894,5.6739,5.6776,0.0,0.0,5.6472,5.6665,5.7148,5.7212,5.7453,5.8056,5.8836,5.9337,5.9319,6.0062,6.0555,6.0333,5.9746,5.9635,6.0452,6.06,6.0667,6.0842,6.0908,6.0953,6.1206,6.1187,6.1243,6.1187,6.1206,6.1187,6.1206,6.1187,6.1187,6.1187,6.1187,6.1187,6.1243,6.1678,6.203,6.1826,6.1492,6.1173,6.1044,6.1022,6.0937,5.3285,5.3324,5.3769,5.3317,5.2334,5.2351,5.2304,5.2226,5.2783,5.3025,5.3047,5.355,5.3804,5.3891,5.4245,5.4458,5.4483,5.4861,5.5021,5.5006,5.5034,5.5332,5.58,5.5817,5.6299,5.7166,5.7186,5.7361,5.7695,5.7671,5.7616,5.7554,5.7972,5.7934,5.7434,5.7401,5.7389,5.7334,5.7283,5.7226,5.7157,5.7153,5.7172,5.7153,5.7172,5.7153,5.7153,5.7153,5.7153,5.7172,5.7172,5.7153,5.7172,5.7153,5.7172,0.0,0.0,0.0,0.0,0.0,0.0,0.0,0.0,0.0,0.0,0.0,5.6019,5.6019,5.6455,5.691,5.7373,5.7573,5.763,5.7518,5.7649,5.7996,5.8649,5.8693,5.8987,5.972,6.021,6.0489,6.0481,6.0898,6.1325,6.1689,6.1325,6.1046,6.115,6.1187,6.1317,6.1659,6.1715,6.1893,6.2198,6.2264,6.2272,6.2253,6.2264,6.2264,6.2272,6.2253,6.2253,6.2283,6.2253,6.2264,6.229,6.2606,6.2922,6.2866,6.2588,6.2246,6.209,6.2112,6.2078,5.418,5.418,5.4295,5.4286,5.4249,5.4246,5.4066,5.3806,5.3933,5.4041,5.4167,5.4165,5.4198,5.4293,5.5036,5.5402,5.5527,5.6366,5.6775,5.6774,5.6868,5.6925,5.6905,5.6925,5.7315,5.8038,5.8057,5.8428,5.9074,5.9021,5.899,5.8985,5.8968,5.8959,5.8968,5.9127,5.9099,5.8873,5.8752,5.8659,5.8589,5.8602,5.8621,5.8589,5.8589,5.8589,5.8589,5.8589,5.8589,5.8589,5.8589,5.8589,5.8589,5.8589,5.8589,0.0,5.8428,0.0,0.0,0.0,0.0,0.0,0.0,0.0,0.0,5.7092,5.7441,5.7543,5.7554,5.7657,5.7858,5.8377,5.8758,5.8881,5.9306,5.9815,6.0285,6.0377,6.0584,6.1134,6.1298,6.1373,6.1373,6.1428,6.1789,6.2432,6.2513,6.2272,6.1696,6.1596,6.1863,6.2476,6.255,6.2773,6.3312,6.3516,6.3516,6.3553,6.3479,6.359,6.3498,6.3516,6.3553,6.3535,6.3479,6.3516,6.359,6.3553,6.3572,6.3535,6.3479,6.3438,6.3358,6.3363,6.3511,5.5057,5.5116,5.582,5.6094,5.6074,5.6092,5.5228,5.3849,5.4608,5.5348,5.605,5.607,5.6071,5.6093,5.6268,5.6328,5.6405,5.7264,5.7652,5.7688,5.8312,5.8624,5.8624,5.8644,5.8702,5.8878,5.8859,5.8956,5.9094,5.9021,5.8983,5.9014,5.957,5.9844,5.9889,0.0,0.0,0.0,5.8715,5.8659,5.8598,5.8662,5.8662,5.8593,5.8589,0.0,5.8589,5.8589,5.8589,5.8589,5.8589,0.0,0.0,0.0,0.0,0.0,0.0,0.0,0.0,0.0,0.0,0.0,5.8635,5.8354,5.7531,5.7422,5.7695,5.8377,5.8453,5.8984,6.0273,6.0408,6.0691,6.1332,6.1347,6.1297,6.1277,6.1256,6.1247,6.1219,6.177,6.216,6.2216,6.2718,6.3163,6.3293,6.3368,6.333,6.3126,6.3052,6.3182,6.3349,6.3293,6.3405,6.3572,6.359,6.359,6.359,6.359,6.359,6.359,6.359,6.359,6.359,6.359,6.359,6.359,6.359,6.359,6.359,6.359,6.359,6.3568,6.3598,6.3545,5.5955,5.5994,5.6425,5.662,0.0,5.7051,5.6695,5.5811,5.5867,5.6169,5.664,5.7051,5.7226,5.7265,5.7695,5.789,5.789,5.8359,5.8534,5.8572,5.8962,5.9139,5.9158,5.9158,5.9373,5.9724,5.9744,5.9978,6.035,6.025,6.0181,6.0192,6.0459,6.0596,6.0599,6.1026,6.0813,5.9936,5.994,5.9899,5.9851,5.9871,5.9871,5.9846,5.9841,0.0,0.0,0.0,0.0,0.0,0.0,0.0,0.0,5.9841,0.0,5.9841,5.9827,5.9827,5.9841,5.9751,5.9915,6.0432,6.0996,6.0705,5.9183,5.938,5.9724,6.0045,6.0426,6.0949,6.1646,6.1774,6.1919,6.2191,6.2157,6.2136,6.2206,6.2157,6.2188,6.2383,6.2736,6.2978,6.2996,6.3312,6.359,6.359,6.359,6.359,6.359,6.359,6.359,6.359,6.359,6.359,6.359,6.359,6.359,6.359,6.359,6.359,6.359,6.359,6.359,6.359,6.359,6.359,6.359,6.359,6.359,6.359,6.359,6.359,6.359,6.359,6.3557,5.6914,5.7051,5.707,5.707,5.7129,5.7812,5.8125,5.8066,0.0,0.0,0.0,5.7832,5.8144,5.8183,5.8887,5.9199,5.9219,5.9336,5.9414,5.9414,5.957,5.9648,5.9648,5.9648,5.998,6.0605,6.0624,6.0996,6.1679,6.1493,6.15,6.1636,6.1486,6.146,6.156,6.1562,6.1585,6.1641,6.1502,6.1468,6.1568,6.1558,6.1577,6.1543,6.1543,6.1543,6.1563,6.1563,6.1563,6.1543,6.1563,6.1563,6.1563,6.1563,6.1563,6.1543,6.1563,6.1543,6.1563,6.1563,6.1872,6.2583,6.3148,6.2762,6.1115,6.164,6.1969,6.1779,6.2389,6.2754,6.2724,6.2844,6.2932,6.2897,6.2844,6.2909,6.3151,6.3023,6.3073,6.3517,6.3553,6.359,6.3553,6.3572,6.359,6.359,6.359,6.359,6.359,6.359,6.359,6.359,6.359,6.359,6.359,6.359,6.359,6.359,6.359,6.359,6.359,6.359,6.359,6.359,6.359,6.359,6.359,6.359,6.359,6.359,6.359,6.359,6.359,6.359,6.3568,5.8164,5.8828,5.8848,5.8848,5.8848,5.8965,5.9004,5.9004,5.8887,5.8828,5.8848,5.8965,5.9023,5.9023,5.916,5.9199,5.9238,5.9902,6.0234,6.0273,6.0996,6.1367,6.1348,6.1348,6.1406,6.1504,6.1472,6.1532,6.1658,6.1514,6.1824,6.2595,6.2541,6.2775,6.3359,6.3377,6.3337,6.3332,6.267,6.265,6.3313,6.3388,6.3407,6.3333,6.3308,6.3347,6.3347,6.3308,6.3347,6.3328,6.3328,6.3328,6.3328,6.3289,6.3328,6.3328,6.3328,6.3328,6.3308,6.3328,6.3386,6.3502,6.3598,6.3445,6.3043,6.2938,6.2899,6.2865,6.3038,6.3338,6.3895,6.3904,6.4085,6.4619,6.448,6.4247,6.4053,6.3832,6.3697,6.3665,6.359,6.3635,6.3662,6.3647,6.3635,6.3613,6.3613,6.359,6.359,6.359,6.359,6.359,6.359,6.359,6.359,6.359,6.359,6.359,6.359,6.359,6.359,6.359,6.359,6.359,6.359,6.359,6.359,6.359,6.359,6.359,6.359,6.359,6.359,6.359,6.3609,5.8848,5.9199,5.9199,5.9199,5.9238,5.9648,6.0137,6.0527,6.0547,6.0039,5.9277,5.9668,5.9863,5.9902,6.0332,6.0547,6.0586,6.0937,6.1113,6.1133,6.1504,6.1699,6.1758,6.2168,6.2422,6.2441,6.2868,6.3083,6.3105,6.2973,6.3143,6.3572,6.3402,6.3455,6.3725,6.3724,6.3927,6.4372,6.3583,6.3336,6.3681,6.3738,6.3719,6.3695,6.3695,6.3695,6.3695,6.3695,6.3695,6.3695,6.3695,6.3695,6.3695,6.3695,6.3695,6.3695,6.3695,6.3695,6.3695,6.414,6.4392,6.4435,6.4817,6.5019,6.4927,6.4426,6.4051,6.3948,6.4321,6.4712,6.499,6.5022,6.5134,6.5388,6.5226,6.4967,6.4718,6.4473,6.4283,6.4214,6.4203,6.4203,6.4184,6.4038,6.3929,6.3907,6.3753,6.3613,6.3602,6.3602,6.3602,6.359,6.359,6.359,6.359,6.359,6.359,6.359,6.359,6.359,6.359,6.359,6.359,6.359,6.359,6.359,6.359,6.359,6.359,6.359,6.359,6.359,6.359,6.359,6.359,5.9609,5.9765,5.9765,5.9765,5.9824,6.043,6.1074,6.168,6.1699,6.0976,5.9941,6.043,6.0703,6.0781,6.1406,6.1699,6.1719,6.1914,6.1992,6.2012,6.2187,6.2265,6.2344,6.2988,6.3301,6.3359,6.3983,6.4276,6.4296,6.4195,6.4261,6.4424,6.4404,6.4353,6.4313,6.428,6.4604,6.5185,6.4604,6.4275,6.4256,6.4256,6.4275,6.4275,6.4275,6.4256,6.4275,6.4275,6.4275,6.4275,6.4275,6.4275,6.4261,6.4256,6.4256,6.4256,6.4256,6.4256,6.4295,6.4875,6.5262,6.5281,6.5837,6.6185,6.6147,6.5649,6.5192,6.5068,6.5541,6.5848,6.5743,6.5807,6.5845,6.5684,6.5517,6.5275,6.5096,6.4852,6.4699,6.4699,6.4699,6.4681,6.4655,6.4483,6.4311,6.4252,6.4038,6.3843,6.3753,6.3728,6.3717,6.3613,6.359,6.359,6.359,6.359,6.359,6.359,6.359,6.359,6.359,6.359,6.359,6.359,6.359,6.359,6.359,6.359,6.359,6.359,6.359,6.359,6.359,6.359,6.359,6.0742,6.1406,6.1406,6.1484,6.1406,6.1523,6.1621,6.1719,6.1719,6.164,6.1504,6.1562,6.1582,6.1582,6.168,6.1758,6.1836,6.2519,6.2871,6.2969,6.3711,6.4043,6.3984,6.414,6.416,6.418,6.4285,6.4403,6.4433,6.4213,6.4466,6.5187,6.5845,6.6089,6.6093,6.5988,6.5992,6.6089,6.6011,6.5973,6.5973,6.5973,6.5973,6.5973,6.5953,6.5973,6.5857,6.5973,6.5953,6.5973,6.5915,6.5953,6.5934,6.5934,6.5953,6.5934,6.5934,6.5973,6.5953,6.605,6.605,6.6089,6.6127,6.6205,6.6205,6.6127,6.6064,6.6019,6.6102,6.6139,6.6134,6.6005,6.5918,6.587,6.5479,6.5111,6.5122,6.4852,6.4699,6.4699,6.4786,6.4708,6.4786,6.4727,6.4646,6.4611,6.451,6.4379,6.4182,6.413,6.4013,6.3728,6.3632,6.3613,6.3602,6.359,6.359,6.359,6.359,6.359,6.359,6.359,6.359,6.359,6.359,6.359,6.359,6.359,6.359,6.359,6.359,6.359,6.359,6.359,6.359,6.1387,6.1699,6.1699,6.1699,6.1699,6.1699,6.1992,6.2441,6.2461,6.2754,6.3203,6.3242,6.2949,6.2461,6.2461,6.2734,6.3242,6.3594,6.3789,6.3789,6.414,6.4297,6.4336,6.4863,6.5058,6.5117,6.5471,6.5714,6.5697,6.5586,6.5681,6.5936,6.6263,6.636,6.6276,6.623,6.6205,6.6205,6.6205,6.6205,6.6205,6.6205,6.6205,6.6205,6.6205,6.6205,6.6205,6.6205,6.6205,6.6205,6.6205,6.6205,6.6205,6.6205,6.6205,6.6205,6.6205,6.6205,6.6205,6.6205,6.6205,6.6205,6.6205,6.6205,6.6205,6.6205,6.6205,6.6205,6.6205,6.6205,6.62,6.6123,6.6085,6.6039,6.5819,6.5627,6.5634,6.5496,6.5407,6.5415,6.5407,6.54,6.5378,6.5203,6.4984,6.4777,6.4708,6.4674,6.451,6.4511,6.434,6.4056,6.395,6.384,6.3662,6.359,6.359,6.359,6.359,6.359,6.359,6.359,6.359,6.359,6.359,6.359,6.359,6.359,6.359,6.359,6.359,6.359,6.359,6.359,6.359,6.1699,6.1719,6.1953,6.207,6.207,6.2324,6.2773,6.332,6.3359,6.3711,6.4277,6.4297,6.4101,6.373,6.3476,6.3711,6.4277,6.4551,6.4648,6.4687,6.4883,6.5,6.5098,6.5625,6.5937,6.5992,6.6422,6.6643,6.6623,6.6573,6.6478,6.6364,6.634,6.6314,6.62,6.6205,6.6205,6.6205,6.6205,6.6205,6.6205,6.6205,6.6205,6.6205,6.6205,6.6205,6.6205,6.6205,6.6205,6.6205,6.6205,6.6205,6.6205,6.6205,6.6205,6.6205,6.6205,6.6205,6.6205,6.6205,6.6205,6.6205,6.6205,6.6205,6.6205,6.6205,6.6205,6.6205,6.6205,6.6205,6.6205,6.6205,6.62,6.616,6.6069,6.6007,6.5986,6.5927,6.5865,6.5884,6.5808,6.5884,6.5853,6.5635,6.537,6.5137,6.5046,6.4957,6.4898,6.4865,6.4763,6.4407,6.4349,6.4111,6.3728,6.359,6.359,6.359,6.359,6.359,6.359,6.359,6.359,6.359,6.359,6.359,6.359,6.359,6.359,6.359,6.359,6.359,6.359,6.359,6.359,6.1699,6.1836,6.2598,6.2949,6.2988,6.375,6.418,6.4258,6.4238,6.4277,6.4433,6.4414,6.4765,6.5351,6.4648,6.4297,6.4473,6.5195,6.5527,6.5625,6.6308,6.6738,6.6777,6.6836,6.6753,6.6553,6.6611,6.6596,6.6433,6.6403,6.6355,6.6201,6.622,6.622,6.6205,6.6205,6.6205,6.6205,6.6205,6.6205,6.6205,6.6205,6.6205,6.6205,6.6205,6.6205,6.6205,6.6205,6.6205,6.6205,6.6205,6.6205,6.6205,6.6205,6.6205,6.6205,6.6205,6.6205,6.6205,6.6205,6.6205,6.6205,6.6205,6.6205,6.6205,6.6205,6.6205,6.6205,6.6205,6.6205,6.6205,6.6205,6.6184,6.6132,6.6047,6.6009,6.6014,6.5934,6.5884,6.5884,6.5884,6.5884,6.5884,6.5897,6.5808,6.5749,6.5795,6.5689,6.5344,6.5276,6.5109,6.4822,6.4656,6.4436,6.3789,6.3767,6.3731,6.3753,6.3854,6.3662,6.3613,6.359,6.3624,6.3602,6.359,6.359,6.359,6.359,6.359,6.359,6.359,6.359,6.359,6.359,6.359,6.2031,6.2598,6.3457,6.3828,6.3867,6.416,6.4609,6.5117,6.5137,6.5449,6.5898,6.5957,6.6133,6.6426,6.6113,6.5957,6.5996,6.6308,6.6445,6.6465,6.6758,6.6894,6.6894,6.6809,6.6755,6.6673,6.6559,6.6434,6.629,6.6277,6.6245,6.6205,6.6205,6.6205,6.6205,6.6205,6.6205,6.6205,6.6205,6.6205,6.6205,6.6205,6.6205,6.6205,6.6205,6.6205,6.6205,6.6205,6.6205,6.6205,6.6205,6.6205,6.6205,6.6205,6.6205,6.6205,6.6205,6.6205,6.6205,6.6205,6.6205,6.6205,6.6205,6.6205,6.6205,6.6205,6.6205,6.6205,6.6205,6.6205,6.6205,6.6205,6.6179,6.6121,6.6041,6.6003,6.5989,6.5947,6.5884,6.5884,6.5884,6.5884,6.5884,6.5884,6.5884,6.5884,6.5884,6.5827,6.5729,6.5689,6.5513,6.5195,6.5065,6.4898,6.4417,6.4312,6.4302,6.4321,6.4311,6.4182,6.408,6.4004,6.4004,6.3728,6.365,6.3635,6.3647,6.359,6.359,6.359,6.359,6.359,6.359,6.359,6.359,6.2871,6.3515,6.4355,6.4707,6.4746,6.5019,6.5469,6.5996,6.6015,6.6348,6.6836,6.6894,6.6894,6.6894,6.6894,6.6894,6.6894,6.6894,6.6894,6.6894,6.6853,6.6851,6.6829,6.6737,6.6654,6.659,6.6424,6.6276,6.622,6.6205,6.6205,6.6205,6.6205,6.6205,6.6205,6.6205,6.6205,6.6205,6.6205,6.6205,6.6205,6.6205,6.6205,6.6205,6.6205,6.6205,6.6205,6.6205,6.6205,6.6205,6.6205,6.6205,6.6205,6.6205,6.6205,6.6205,6.6205,6.6205,6.6205,6.6205,6.6205,6.6205,6.6205,6.6205,6.6205,6.6205,6.6205,6.6205,6.6205,6.6205,6.6205,6.6205,6.6155,6.6085,6.603,6.5973,6.5978,6.5929,6.5884,6.5884,6.5884,6.5884,6.5884,6.5884,6.5884,6.5884,6.5884,6.5884,6.5884,6.5878,6.5833,6.5554,6.5492,6.5393,6.5156,6.5081,6.4751,6.4709,6.4674,6.4584,6.4492,6.4388,6.4212,6.391,6.3742,6.3706,6.3669,6.3613,6.359,6.359,6.359,6.359,6.359,6.359,6.359,6.4297,6.4433,6.5254,6.5625,6.5703,6.6367,6.6816,6.6797,6.6816,6.6816,6.6894,6.6894,6.6894,6.6894,6.6894,6.6894,6.6894,6.6875,6.6875,6.6874,6.6779,6.6702,6.6695,6.662,6.6512,6.6395,6.6258,6.6195,6.6185,6.6205,6.6205,6.6205,6.6205,6.6205,6.6205,6.6205,6.6205,6.6205,6.6205,6.6205,6.6205,6.6205,6.6205,6.6205,6.6205,6.6205,6.6205,6.6205,6.6205,6.6205,6.6205,6.6205,6.6205,6.6205,6.6205,6.6205,6.6205,6.6205,6.6205,6.6205,6.6205,6.6205,6.6205,6.6205,6.6205,6.6205,6.6205,6.6205,6.6205,6.6205,6.6205,6.618,6.6158,6.603,6.6007,6.5961,6.5922,6.5904,6.5884,6.5884,6.5884,6.5884,6.5884,6.5884,6.5884,6.5884,6.5884,6.5884,6.5884,6.5884,6.5897,6.5859,6.5795,6.5676,6.5781,6.5814,6.5359,6.5009,6.494,6.4884,6.4796,6.4709,6.4473,6.4192,6.3854,6.3797,6.3647,6.359,6.359,6.359,6.359,6.359,6.359,6.359,6.359,6.5195,6.5312,6.6133,6.6484,6.6523,6.6797,6.6894,6.6894,6.6894,6.6894,6.6894,6.6894,6.6894,6.6894,6.6894,6.6894,6.6894,6.6808,6.6759,6.6755,6.6704,6.6671,6.6611,6.6525,6.638,6.6263,6.622,6.6205,6.6205,6.6205,6.6205,6.6205,6.6205,6.6205,6.6205,6.6205,6.6205,6.6205,6.6205,6.6205,6.6205,6.6205,6.6205,6.6205,6.6205,6.6205,6.6205,6.6205,6.6205,6.6205,6.6205,6.6205,6.6205,6.6205,6.6205,6.6205,6.6205,6.6205,6.6205,6.6205,6.6205,6.6205,6.6205,6.6205,6.6205,6.6205,6.6205,6.6205,6.6205,6.6205,6.62,6.6169,6.6096,6.6019,6.6007,6.598,6.5922,6.5884,6.5884,6.5884,6.5884,6.5884,6.5884,6.5884,6.5884,6.5884,6.5884,6.5884,6.5884,6.5884,6.5884,6.5884,6.5884,6.5884,6.5884,6.5884,6.5663,6.5407,6.5336,6.5245,6.5164,6.5065,6.4807,6.4407,6.4099,6.384,6.3673,6.359,6.359,6.359,6.359,6.359,6.359,6.359,6.359,6.6074,6.6133,6.666,6.6894,6.6894,6.6894,6.6894,6.6894,6.6894,6.6894,6.6894,6.6894,6.6894,6.6894,6.6894,6.6855,6.681,6.673,6.6653,6.6586,6.6594,6.6556,6.6494,6.6377,6.6281,6.621,6.6205,6.6205,6.6205,6.6205,6.6205,6.6205,6.6205,6.6205,6.6205,6.6205,6.6205,6.6205,6.6205,6.6205,6.6205,6.6205,6.6205,6.6205,6.6205,6.6205,6.6205,6.6205,6.6205,6.6205,6.6205,6.6205,6.6205,6.6205,6.6205,6.6205,6.6205,6.6205,6.6205,6.6205,6.6205,6.6205,6.6205,6.6205,6.6205,6.6205,6.6205,6.6205,6.6205,6.6205,6.618,6.616,6.6107,6.6047,6.6019,6.5992,6.5946,6.5934,6.5941,6.5941,6.5923,6.5884,6.5884,6.5884,6.5884,6.5884,6.5884,6.5884,6.5884,6.5884,6.5884,6.5884,6.5884,6.5884,6.5884,6.5884,6.5884,6.5814,6.5781,6.5656,6.5554,6.5506,6.5333,6.4675,6.4232,6.3907,6.3717,6.3635,6.359,6.359,6.359,6.359,6.359,6.359,6.359,6.6894,6.6894,6.6894,6.6894,6.6894,6.6894,6.6894,6.6894,6.6894,6.6894,6.6894,6.6894,6.6894,6.6894,6.6875,6.6808,6.6704,6.6676,6.6561,6.6458,6.6411,6.6388,6.6372,6.6277,6.6215,6.619,6.6205,6.6205,6.6205,6.6205,6.6205,6.6205,6.6205,6.6205,6.6205,6.6205,6.6205,6.6205,6.6205,6.6205,6.6205,6.6205,6.6205,6.6205,6.6205,6.6205,6.6205,6.6205,6.6205,6.6205,6.6205,6.6205,6.6205,6.6205,6.6205,6.6205,6.6205,6.6205,6.6205,6.6205,6.6205,6.6205,6.6205,6.6205,6.6205,6.6205,6.6205,6.6205,6.6205,6.6205,6.6205,6.617,6.6144,6.6102,6.6041,6.6001,6.6001,6.5993,6.5996,6.5984,6.5947,6.5884,6.5884,6.5884,6.5884,6.5884,6.5884,6.5884,6.5884,6.5884,6.5884,6.5884,6.5884,6.5884,6.5884,6.5884,6.5884,6.5884,6.5884,6.5853,6.5755,6.5702,6.5589,6.4951,6.4398,6.4058,6.3808,6.3728,6.3635,6.359,6.359,6.359,6.359,6.359,6.359,6.6894,6.6894,6.6894,6.6894,6.6894,6.6894,6.6894,6.6894,6.6894,6.6894,6.6894,6.6894,6.6894,6.6894,6.6787,6.6729,6.6681,6.6556,6.6468,6.6384,6.6285,6.6254,6.6245,6.622,6.6205,6.6205,6.6205,6.6205,6.6205,6.6205,6.6205,6.6205,6.6205,6.6205,6.6205,6.6205,6.6205,6.6205,6.6205,6.6205,6.6205,6.6205,6.6205,6.6205,6.6205,6.6205,6.6205,6.6205,6.6205,6.6205,6.6205,6.6205,6.6205,6.6205,6.6205,6.6205,6.6205,6.6205,6.6205,6.6205,6.6205,6.6205,6.6205,6.6205,6.6205,6.6205,6.6205,6.6205,6.6205,6.6205,6.62,6.6169,6.6142,6.6116,6.6052,6.6013,6.6021,6.6019,6.6008,6.5996,6.5922,6.5891,6.5884,6.5884,6.5884,6.5884,6.5884,6.5884,6.5884,6.5884,6.5884,6.5884,6.5884,6.5884,6.5884,6.5884,6.5884,6.5884,6.5884,6.5878,6.5749,6.5635,6.5477,6.5132,6.4685,6.4291,6.4036,6.3873,6.3772,6.3647,6.359,6.359,6.359,6.359,6.359,6.6894,6.6894,6.6894,6.6894,6.6894,6.6894,6.6894,6.6894,6.6894,6.6894,6.6894,6.6894,6.6894,6.6875,6.6778,6.6684,6.6641,6.6481,6.6357,6.6308,6.6225,6.6195,6.619,6.6205,6.6205,6.6205,6.6205,6.6205,6.6205,6.6205,6.6205,6.6205,6.6205,6.6205,6.6205,6.6205,6.6205,6.6205,6.6205,6.6205,6.6205,6.6205,6.6205,6.6205,6.6205,6.6205,6.6205,6.6205,6.6205,6.6205,6.6205,6.6205,6.6205,6.6205,6.6205,6.6205,6.6205,6.6205,6.6205,6.6205,6.6205,6.6205,6.6205,6.6205,6.6205,6.6205,6.6205,6.6205,6.6205,6.6205,6.62,6.6174,6.6139,6.6134,6.608,6.6047,6.6047,6.6021,6.6013,6.5996,6.5947,6.5884,6.5884,6.5884,6.5884,6.5884,6.5884,6.5884,6.5884,6.5884,6.5884,6.5884,6.5884,6.5884,6.5884,6.5884,6.5884,6.5884,6.5884,6.5884,6.5808,6.5649,6.5513,6.5318,6.4903,6.4558,6.427,6.4004,6.3862,6.3761,6.3669,6.359,6.359,6.359,6.359,6.6894,6.6894,6.6894,6.6894,6.6894,6.6894,6.6894,6.6894,6.6894,6.6894,6.6894,6.6894,6.6875,6.6855,6.6743,6.6649,6.6549,6.6438,6.6301,6.623,6.6185,6.6205,6.6205,6.6205,6.6205,6.6205,6.6205,6.6205,6.6205,6.6205,6.6205,6.6205,6.6205,6.6205,6.6205,6.6205,6.6205,6.6205,6.6205,6.6205,6.6205,6.6205,6.6205,6.6205,6.6205,6.6205,6.6205,6.6205,6.6205,6.6205,6.6205,6.6205,6.6205,6.6205,6.6205,6.6205,6.6205,6.6205,6.6205,6.6205,6.6205,6.6205,6.6205,6.6205,6.6205,6.6205,6.6205,6.6205,6.6205,6.6205,6.62,6.6194,6.6179,6.6144,6.6112,6.6091,6.6074,6.6049,6.6017,6.6008,6.5941,6.5891,6.5884,6.5884,6.5884,6.5884,6.5884,6.5884,6.5884,6.5884,6.5884,6.5884,6.5884,6.5884,6.5884,6.5884,6.5884,6.5884,6.5884,6.5884,6.5884,6.5775,6.5656,6.5448,6.5159,6.48,6.4398,6.4182,6.3994,6.3783,6.3624,6.359,6.359,6.359,6.359,6.6894,6.6894,6.6894,6.6894,6.6894,6.6894,6.6894,6.6894,6.6894,6.6894,6.6894,6.6894,6.6836,6.6733,6.6675,6.6546,6.6427,6.6329,6.6215,6.62,6.6205,6.6205,6.6205,6.6205,6.6205,6.6205,6.6205,6.6205,6.6205,6.6205,6.6205,6.6205,6.6205,6.6205,6.6205,6.6205,6.6205,6.6205,6.6205,6.6205,6.6205,6.6205,6.6205,6.6205,6.6205,6.6205,6.6205,6.6205,6.6205,6.6205,6.6205,6.6205,6.6205,6.6205,6.6205,6.6205,6.6205,6.6205,6.6205,6.6205,6.6205,6.6205,6.6205,6.6205,6.6205,6.6205,6.6205,6.6205,6.6205,6.618,6.6189,6.6139,6.6123,6.6107,6.6063,6.6032,6.6017,6.6013,6.602,6.599,6.5941,6.5884,6.5884,6.5884,6.5884,6.5884,6.5884,6.5884,6.5884,6.5884,6.5884,6.5884,6.5884,6.5884,6.5884,6.5884,6.5884,6.5884,6.5884,6.5884,6.5884,6.5878,6.5775,6.5635,6.547,6.5068,6.4621,6.433,6.414,6.3865,6.359,6.359,6.359,6.359,6.359,6.6894,6.6894,6.6894,6.6894,6.6894,6.6894,6.6894,6.6894,6.6894,6.6894,6.6894,6.6894,6.6836,6.6716,6.664,6.6528,6.6384,6.6263,6.6185,6.6205,6.6205,6.6205,6.6205,6.6205,6.6205,6.6205,6.6205,6.6205,6.6205,6.6205,6.6205,6.6205,6.6205,6.6205,6.6205,6.6205,6.6205,6.6205,6.6205,6.6205,6.6205,6.6205,6.6205,6.6205,6.6205,6.6205,6.6205,6.6205,6.6205,6.6205,6.6205,6.6205,6.6205,6.6205,6.6205,6.6205,6.6205,6.6205,6.6205,6.6205,6.6205,6.6205,6.6205,6.6205,6.6205,6.6205,6.6205,6.62,6.6179,6.6134,6.6107,6.608,6.6058,6.6047,6.6021,6.6013,6.6014,6.6002,6.5984,6.596,6.5923,6.5904,6.5884,6.5884,6.5884,6.5884,6.5884,6.5884,6.5884,6.5884,6.5884,6.5884,6.5884,6.5884,6.5884,6.5884,6.5884,6.5884,6.5884,6.5884,6.5884,6.5884,6.5872,6.5742,6.5629,6.5276,6.4839,6.4575,6.4222,6.384,6.3613,6.3602,6.359,6.359,6.359,6.6894,6.6894,6.6894,6.6894,6.6894,6.6894,6.6894,6.6894,6.6894,6.6894,6.6894,6.6894,6.6781,6.6678,6.659,6.6475,6.6364,6.6268,6.6205,6.6205,6.6205,6.6205,6.6205,6.6205,6.6205,6.6205,6.6205,6.6205,6.6205,6.6205,6.6205,6.6205,6.6205,6.6205,6.6205,6.6205,6.6205,6.6205,6.6205,6.6205,6.6205,6.6205,6.6205,6.6205,6.6205,6.6205,6.6205,6.6205,6.6205,6.6205,6.6205,6.6205,6.6205,6.6205,6.6205,6.6205,6.6205,6.6205,6.6205,6.6205,6.6205,6.6205,6.6205,6.6205,6.6205,6.618,6.6175,6.6149,6.6118,6.6063,6.6013,6.6021,6.6021,6.6003,6.5982,6.5971,6.5965,6.599,6.5954,6.5923,6.591,6.5884,6.5884,6.5884,6.5884,6.5884,6.5884,6.5884,6.5884,6.5884,6.5884,6.5884,6.5884,6.5884,6.5884,6.5884,6.5884,6.5884,6.5884,6.5884,6.5884,6.5884,6.5884,6.5884,6.5722,6.5393,6.5073,6.4762,6.435,6.3854,6.3613,6.3602,6.359,6.359,6.359,6.6894,6.6894,6.6894,6.6894,6.6894,6.6894,6.6894,6.6894,6.6894,6.6894,6.6875,6.6803,6.6729,6.6622,6.6478,6.6364,6.6277,6.62,6.6205,6.6205,6.6205,6.6205,6.6205,6.6205,6.6205,6.6205,6.6205,6.6205,6.6205,6.6205,6.6205,6.6205,6.6205,6.6205,6.6205,6.6205,6.6205,6.6205,6.6205,6.6205,6.6205,6.6205,6.6205,6.6205,6.6205,6.6205,6.6205,6.6205,6.6205,6.6205,6.6205,6.6205,6.6205,6.6205,6.6205,6.6205,6.6205,6.6205,6.6205,6.6205,6.6205,6.6205,6.6205,6.6205,6.6205,6.6194,6.6155,6.6121,6.6077,6.6013,6.6007,6.5999,6.6001,6.5983,6.5947,6.591,6.5923,6.5903,6.5903,6.5884,6.5884,6.5884,6.5884,6.5884,6.5884,6.5884,6.5884,6.5884,6.5884,6.5884,6.5884,6.5884,6.5884,6.5884,6.5884,6.5884,6.5884,6.5884,6.5884,6.5884,6.5884,6.5884,6.5884,6.5884,6.584,6.5622,6.5299,6.4951,6.4538,6.4058,6.384,6.3613,6.359,6.359,6.359,6.6894,6.6894,6.6894,6.6894,6.6894,6.6894,6.6894,6.6894,6.6894,6.6894,6.6875,6.683,6.6731,6.6615,6.654,6.6404,6.625,6.6205,6.6205,6.6205,6.6205,6.6205,6.6205,6.6205,6.6205,6.6205,6.6205,6.6205,6.6205,6.6205,6.6205,6.6205,6.6205,6.6205,6.6205,6.6205,6.6205,6.6205,6.6205,6.6205,6.6205,6.6205,6.6205,6.6205,6.6205,6.6205,6.6205,6.6205,6.6205,6.6205,6.6205,6.6205,6.6205,6.6205,6.6205,6.6205,6.6205,6.6205,6.6205,6.6205,6.6205,6.6205,6.6185,6.6205,6.6175,6.6155,6.6126,6.6074,6.6034,6.5988,6.5952,6.5947,6.5954,6.5922,6.5923,6.5904,6.5884,6.5884,6.5884,6.5884,6.5884,6.5884,6.5884,6.5884,6.5884,6.5884,6.5884,6.5884,6.5884,6.5884,6.5884,6.5884,6.5884,6.5884,6.5884,6.5884,6.5884,6.5884,6.5884,6.5884,6.5884,6.5884,6.5884,6.5884,6.5801,6.5755,6.5385,6.4984,6.4621,6.4271,6.395,6.3673,6.3624,6.359,6.359,6.6894,6.6894,6.6894,6.6894,6.6894,6.6894,6.6894,6.6894,6.6894,6.6894,6.6894,6.685,6.6729,6.6612,6.6516,6.6396,6.6205,6.6205,6.6205,6.6205,6.6205,6.6205,6.6205,6.6205,6.6205,6.6205,6.6205,6.6205,6.6205,6.6205,6.6205,6.6205,6.6205,6.6205,6.6205,6.6205,6.6205,6.6205,6.6205,6.6205,6.6205,6.6205,6.6205,6.6205,6.6205,6.6205,6.6205,6.6205,6.6205,6.6205,6.6205,6.6205,6.6205,6.6205,6.6205,6.6205,6.6205,6.6205,6.6205,6.6205,6.62,6.6179,6.6165,6.616,6.6134,6.6099,6.6044,6.602,6.5984,6.5953,6.5929,6.5884,6.5904,6.5904,6.5884,6.5884,6.5884,6.5884,6.5884,6.5884,6.5884,6.5884,6.5884,6.5884,6.5884,6.5884,6.5884,6.5884,6.5884,6.5884,6.5884,6.5884,6.5884,6.5884,6.5884,6.5884,6.5884,6.5884,6.5884,6.5884,6.5884,6.5884,6.5884,6.5884,6.5872,6.5775,6.5393,6.5081,6.4824,6.4483,6.4025,6.3739,6.3658,6.3602,6.359,6.6894,6.6894,6.6894,6.6894,6.6894,6.6894,6.6894,6.6894,6.6894,6.6894,6.6894,6.6745,6.6664,6.656,6.6348,6.6259,6.622,6.6205,6.6205,6.6205,6.6205,6.6205,6.6205,6.6205,6.6205,6.6205,6.6205,6.6205,6.6205,6.6205,6.6205,6.6205,6.6205,6.6205,6.6205,6.6205,6.6205,6.6205,6.6205,6.6205,6.6205,6.6205,6.6205,6.6205,6.6205,6.6205,6.6205,6.6205,6.6205,6.6205,6.6205,6.6205,6.6205,6.6205,6.6205,6.6205,6.6205,6.6205,6.6205,6.6194,6.6179,6.6148,6.6112,6.608,6.606,6.604,6.6013,6.6014,6.5954,6.5903,6.5904,6.5884,6.5884,6.5884,6.5884,6.5884,6.5884,6.5884,6.5884,6.5884,6.5884,6.5884,6.5884,6.5884,6.5884,6.5884,6.5884,6.5884,6.5884,6.5884,6.5884,6.5884,6.5884,6.5884,6.5884,6.5884,6.5884,6.5884,6.5884,6.5884,6.5884,6.5884,6.5884,6.5884,6.5884,6.5878,6.5663,6.5385,6.5093,6.471,6.4282,6.3942,6.3639,6.3624,6.3602,6.6894,6.6894,6.6894,6.6894,6.6894,6.6894,6.6894,6.6894,6.6894,6.6894,6.6894,6.6803,6.6712,6.6538,6.6325,6.619,6.6205,6.6205,6.6205,6.6205,6.6205,6.6205,6.6205,6.6205,6.6205,6.6205,6.6205,6.6205,6.6205,6.6205,6.6205,6.6205,6.6205,6.6205,6.6205,6.6205,6.6205,6.6205,6.6205,6.6205,6.6205,6.6205,6.6205,6.6205,6.6205,6.6205,6.6205,6.6205,6.6205,6.6205,6.6205,6.6205,6.6205,6.6205,6.6205,6.62,6.6149,6.6174,6.6194,6.6169,6.6142,6.6096,6.6063,6.6024,6.6011,6.5995,6.5978,6.5947,6.5903,6.5884,6.5884,6.5884,6.5884,6.5884,6.5884,6.5884,6.5884,6.5884,6.5884,6.5884,6.5884,6.5884,6.5884,6.5884,6.5884,6.5884,6.5884,6.5884,6.5884,6.5884,6.5884,6.5884,6.5884,6.5884,6.5884,6.5884,6.5884,6.5884,6.5884,6.5884,6.5884,6.5884,6.5884,6.5884,6.5884,6.5872,6.5859,6.5615,6.5238,6.4901,6.4575,6.4192,6.38,6.3635,6.3613,6.6894,6.6894,6.6894,6.6894,6.6894,6.6894,6.6894,6.6894,6.6894,6.6894,6.6875,6.6827,6.6684,6.6497,6.629,6.6205,6.6205,6.6205,6.6205,6.6205,6.6205,6.6205,6.6205,6.6205,6.6205,6.6205,6.6205,6.6205,6.6205,6.6205,6.6205,6.6205,6.6205,6.6205,6.6205,6.6205,6.6205,6.6205,6.6205,6.6205,6.6205,6.6205,6.6205,6.6205,6.6205,6.6205,6.6205,6.6205,6.6205,6.6205,6.6205,6.6205,6.6185,6.6184,6.616,6.6144,6.6107,6.6091,6.6107,6.6096,6.6074,6.6041,6.6001,6.5956,6.5971,6.5959,6.5966,6.591,6.5904,6.5884,6.5884,6.5884,6.5884,6.5884,6.5884,6.5884,6.5884,6.5884,6.5884,6.5884,6.5884,6.5884,6.5884,6.5884,6.5884,6.5884,6.5884,6.5884,6.5884,6.5884,6.5884,6.5884,6.5884,6.5884,6.5884,6.5884,6.5884,6.5884,6.5884,6.5884,6.5884,6.5884,6.5884,6.5884,6.5884,6.5878,6.5872,6.5629,6.5363,6.4959,6.4575,6.4291,6.4004,6.3775,6.3624,6.6894,6.6894,6.6894,6.6894,6.6894,6.6894,6.6894,6.6894,6.6894,6.6894,6.6855,6.6714,6.65,6.6294,6.6254,6.6205,6.6205,6.6205,6.6205,6.6205,6.6205,6.6205,6.6205,6.6205,6.6205,6.6205,6.6205,6.6205,6.6205,6.6205,6.6205,6.6205,6.6205,6.6205,6.6205,6.6205,6.6205,6.6205,6.6205,6.6205,6.6205,6.6205,6.6205,6.6205,6.6205,6.6205,6.6205,6.6205,6.6205,6.6205,6.6205,6.6175,6.6165,6.6139,6.6123,6.6091,6.6066,6.6049,6.6049,6.6044,6.6029,6.6001,6.5953,6.5916,6.591,6.5897,6.5884,6.5884,6.5884,6.5884,6.5884,6.5884,6.5884,6.5884,6.5884,6.5884,6.5884,6.5884,6.5884,6.5884,6.5884,6.5884,6.5884,6.5884,6.5884,6.5884,6.5884,6.5884,6.5884,6.5884,6.5884,6.5884,6.5884,6.5884,6.5884,6.5884,6.5884,6.5884,6.5884,6.5884,6.5884,6.5884,6.5884,6.5884,6.5884,6.5884,6.5878,6.5736,6.5477,6.4965,6.4574,6.4321,6.3996,6.3695,6.3602,6.6894,6.6894,6.6894,6.6894,6.6894,6.6894,6.6894,6.6894,6.6894,6.6853,6.6778,6.6652,6.65,6.6355,6.6225,6.6205,6.6205,6.6205,6.6205,6.6205,6.6205,6.6205,6.6205,6.6205,6.6205,6.6205,6.6205,6.6205,6.6205,6.6205,6.6205,6.6205,6.6205,6.6205,6.6205,6.6205,6.6205,6.6205,6.6205,6.6205,6.6205,6.6205,6.6205,6.6205,6.6205,6.6205,6.6205,6.6205,6.6205,6.6205,6.6205,6.6165,6.6139,6.6107,6.6074,6.606,6.6009,6.5999,6.5993,6.5993,6.5989,6.5954,6.5916,6.5884,6.5884,6.5884,6.5884,6.5884,6.5884,6.5884,6.5884,6.5884,6.5884,6.5884,6.5884,6.5884,6.5884,6.5884,6.5884,6.5884,6.5884,6.5884,6.5884,6.5884,6.5884,6.5884,6.5884,6.5884,6.5884,6.5884,6.5884,6.5884,6.5884,6.5884,6.5884,6.5884,6.5884,6.5884,6.5884,6.5884,6.5884,6.5884,6.5884,6.5884,6.5884,6.5884,6.5884,6.5884,6.5589,6.5073,6.4681,6.4389,6.4039,6.3647,6.359,6.6894,6.6894,6.6894,6.6894,6.6894,6.6894,6.6894,6.6894,6.6894,6.6797,6.6647,6.6573,6.6484,6.6351,6.6249,6.6185,6.6205,6.6205,6.6205,6.6205,6.6205,6.6205,6.6205,6.6205,6.6205,6.6205,6.6205,6.6205,6.6205,6.6205,6.6205,6.6205,6.6205,6.6205,6.6205,6.6205,6.6205,6.6205,6.6205,6.6205,6.6205,6.6205,6.6205,6.6205,6.6205,6.6205,6.6205,6.6205,6.6205,6.62,6.6184,6.6139,6.6102,6.6063,6.6049,6.6003,6.5976,6.5978,6.5978,6.5966,6.5954,6.5916,6.5904,6.5884,6.5884,6.5884,6.5884,6.5884,6.5884,6.5884,6.5884,6.5884,6.5884,6.5884,6.5884,6.5884,6.5884,6.5884,6.5884,6.5884,6.5884,6.5884,6.5884,6.5884,6.5884,6.5884,6.5884,6.5884,6.5884,6.5884,6.5884,6.5884,6.5884,6.5884,6.5884,6.5884,6.5884,6.5884,6.5884,6.5884,6.5884,6.5884,6.5884,6.5884,6.5884,6.5884,6.5878,6.5872,6.5575,6.5156,6.4674,6.4102,6.3954,6.359,6.359,6.6894,6.6894,6.6894,6.6894,6.6894,6.6894,6.6894,6.6894,6.6894,6.6773,6.6593,6.6461,6.6363,6.623,6.6195,6.6185,6.6205,6.6205,6.6205,6.6205,6.6205,6.6205,6.6205,6.6205,6.6205,6.6205,6.6205,6.6205,6.6205,6.6205,6.6205,6.6205,6.6205,6.6205,6.6205,6.6205,6.6205,6.6205,6.6205,6.6205,6.6205,6.6205,6.6205,6.6205,6.6205,6.6205,6.6189,6.6189,6.6184,6.6169,6.6118,6.6091,6.6069,6.6029,6.6007,6.5983,6.5947,6.5916,6.5891,6.5904,6.5904,6.5884,6.5884,6.5884,6.5884,6.5884,6.5884,6.5884,6.5884,6.5884,6.5884,6.5884,6.5884,6.5884,6.5884,6.5884,6.5884,6.5884,6.5884,6.5884,6.5884,6.5884,6.5884,6.5884,6.5884,6.5884,6.5884,6.5884,6.5884,6.5884,6.5884,6.5884,6.5884,6.5884,6.5884,6.5884,6.5884,6.5884,6.5884,6.5884,6.5884,6.5884,6.5884,6.5884,6.5884,6.5884,6.5872,6.5859,6.5407,6.4898,6.4193,6.3709,6.3624,6.359,6.359,6.6894,6.6894,6.6894,6.6894,6.6894,6.6894,6.6894,6.6875,6.6807,6.6702,6.6592,6.6457,6.6334,6.624,6.6205,6.6205,6.6205,6.6205,6.6205,6.6205,6.6205,6.6205,6.6205,6.6205,6.6205,6.6205,6.6205,6.6205,6.6205,6.6205,6.6205,6.6205,6.6205,6.6205,6.6205,6.6205,6.6205,6.6205,6.6205,6.6205,6.6205,6.6205,6.6205,6.6205,6.6205,6.6184,6.6153,6.6153,6.6112,6.6085,6.6047,6.6049,6.604,6.5989,6.5984,6.5934,6.5904,6.5904,6.5884,6.5904,6.5904,6.5884,6.5884,6.5884,6.5884,6.5884,6.5884,6.5884,6.5884,6.5884,6.5884,6.5884,6.5884,6.5884,6.5884,6.5884,6.5884,6.5884,6.5884,6.5884,6.5884,6.5884,6.5884,6.5884,6.5884,6.5884,6.5884,6.5884,6.5884,6.5884,6.5884,6.5884,6.5884,6.5884,6.5884,6.5884,6.5884,6.5884,6.5884,6.5884,6.5884,6.5884,6.5884,6.5884,6.5884,6.5878,6.5821,6.567,6.5145,6.4593,6.406,6.3673,6.359,6.359,6.359,6.6894,6.6894,6.6894,6.6894,6.6894,6.6894,6.6894,6.6875,6.6743,6.6652,6.6571,6.6407,6.6276,6.621,6.6205,6.6205,6.6205,6.6205,6.6205,6.6205,6.6205,6.6205,6.6205,6.6205,6.6205,6.6205,6.6205,6.6205,6.6205,6.6205,6.6205,6.6205,6.6205,6.6205,6.6205,6.6205,6.6205,6.6205,6.6205,6.6205,6.6205,6.6205,6.6205,6.62,6.6184,6.6139,6.6107,6.6074,6.6027,6.6013,6.6003,6.6005,6.5989,6.5959,6.5934,6.5891,6.5884,6.5884,6.5884,6.5884,6.5884,6.5884,6.5884,6.5884,6.5884,6.5884,6.5884,6.5884,6.5884,6.5884,6.5884,6.5884,6.5884,6.5884,6.5884,6.5884,6.5827,6.5807,6.5769,6.5769,6.5788,6.5827,6.5884,6.5884,6.5884,6.5884,6.5884,6.5884,6.5884,6.5884,6.5884,6.5884,6.5884,6.5884,6.5884,6.5884,6.5884,6.5884,6.5884,6.5884,6.5884,6.5884,6.5884,6.5884,6.5884,6.5859,6.5742,6.5492,6.5073,6.4665,6.4242,6.3929,6.3662,6.359,6.359,6.6894,6.6894,6.6894,6.6894,6.6894,6.6894,6.6894,6.6894,6.6683,6.6605,6.6579,6.6351,6.623,6.6195,6.6205,6.6205,6.6205,6.6205,6.6205,6.6205,6.6205,6.6205,6.6205,6.6205,6.6205,6.6205,6.6205,6.6205,6.6205,6.6205,6.6205,6.6205,6.6205,6.6205,6.6205,6.6194,6.6194,6.62,6.6205,6.618,6.617,6.617,6.616,6.6144,6.6118,6.6091,6.6077,6.6049,6.6001,6.5992,6.5988,6.5989,6.5959,6.5916,6.5891,6.5884,6.5884,6.5884,6.5884,6.5884,6.5884,6.5884,6.5884,6.5884,6.5884,6.5884,6.5884,6.5884,6.5884,6.5884,6.5884,6.5884,6.5884,6.5884,6.5884,6.5827,6.5724,6.5667,6.559,6.5577,6.5596,6.5673,6.5846,6.5884,6.5807,6.5884,6.5884,6.5884,6.5884,6.5884,6.5884,6.5884,6.5884,6.5884,6.5884,6.5884,6.5884,6.5884,6.5884,6.5884,6.5884,6.5884,6.5884,6.5884,6.5884,6.5853,6.5788,6.5506,6.5081,6.4682,6.4272,6.3931,6.3624,6.3602,6.359,6.6894,6.6894,6.6894,6.6894,6.6894,6.6894,6.6894,6.6875,6.6741,6.6645,6.6582,6.6414,6.6282,6.6195,6.6205,6.6205,6.6205,6.6205,6.6205,6.6205,6.6205,6.6205,6.6205,6.6205,6.6205,6.6205,6.6205,6.618,6.62,6.62,6.618,6.6205,6.6175,6.618,6.6184,6.6163,6.6174,6.6184,6.617,6.6149,6.6134,6.6123,6.6107,6.6074,6.6052,6.6044,6.6029,6.6005,6.597,6.594,6.5928,6.591,6.5903,6.5891,6.5884,6.5884,6.5884,6.5884,6.5884,6.5884,6.5884,6.5884,6.5884,6.5884,6.5884,6.5884,6.5884,6.5884,6.5884,6.5884,6.5884,6.5884,6.5884,6.5884,6.5865,6.5743,6.559,6.5263,6.5147,6.4666,6.4705,6.5128,6.5359,6.5724,6.5667,6.5807,6.5884,6.5884,6.5884,6.5884,6.5884,6.5884,6.5884,6.5884,6.5884,6.5884,6.5884,6.5884,6.5884,6.5884,6.5884,6.5884,6.5884,6.5884,6.5884,6.5884,6.5872,6.5506,6.5049,6.4629,6.4223,6.3899,6.3628,6.3613,6.359,6.6894,6.6894,6.6894,6.6894,6.6894,6.6894,6.6894,6.6872,6.6716,6.6627,6.6577,6.6384,6.6263,6.6205,6.6205,6.6205,6.6205,6.6205,6.6205,6.6205,6.62,6.6205,6.6205,6.62,6.6205,6.62,6.6165,6.6144,6.6155,6.6155,6.6149,6.6149,6.6149,6.6155,6.6134,6.6096,6.6085,6.6102,6.6107,6.6091,6.6074,6.6063,6.6036,6.6007,6.6009,6.6013,6.6002,6.5965,6.5941,6.5904,6.5884,6.5884,6.5884,6.5884,6.5884,6.5884,6.5884,6.5884,6.5884,6.5884,6.5884,6.5884,6.5884,6.5884,6.5884,6.5884,6.5884,6.5884,6.5884,6.5884,6.5884,6.5884,6.5884,6.5884,6.5782,6.5667,6.5282,6.4878,6.432,6.3666,6.3775,6.4243,6.4666,6.5128,6.5436,6.5397,6.559,6.5884,6.5884,6.5884,6.5884,6.5884,6.5884,6.5884,6.5884,6.5884,6.5884,6.5884,6.5884,6.5884,6.5884,6.5884,6.5884,6.5884,6.5884,6.5872,6.5846,6.5422,6.4992,6.4593,6.4223,6.3931,6.3706,6.3613,6.359,6.6894,6.6894,6.6894,6.6894,6.6894,6.6894,6.6894,6.6868,6.6686,6.6585,6.654,6.6335,6.624,6.617,6.6144,6.6149,6.6144,6.6144,6.6139,6.617,6.6169,6.6163,6.6169,6.6184,6.6139,6.6158,6.6148,6.6091,6.6072,6.6091,6.6091,6.6091,6.6091,6.6091,6.6085,6.6049,6.6032,6.6038,6.6027,6.6009,6.6021,6.6021,6.6015,6.5998,6.5988,6.599,6.5959,6.5928,6.5884,6.5884,6.5884,6.5884,6.5884,6.5884,6.5884,6.5884,6.5884,6.5884,6.5884,6.5884,6.5884,6.5884,6.5884,6.5884,6.5884,6.5884,6.5884,6.5884,6.5884,6.5884,6.5884,6.5884,6.5884,6.5884,6.582,6.557,6.5166,6.4493,6.3518,6.3012,6.3031,6.3474,6.3891,6.432,6.4512,6.4666,6.5089,6.5532,6.5686,6.5686,6.5801,6.582,6.5884,6.5884,6.5884,6.5884,6.5884,6.5884,6.5884,6.5884,6.5884,6.5884,6.5884,6.5884,6.5878,6.5814,6.5709,6.5284,6.4901,6.4566,6.4241,6.3973,6.3786,6.3635,6.359,6.6894,6.6892,6.689,6.6888,6.6888,6.6888,6.6888,6.6881,6.6622,6.6528,6.651,6.6436,6.6279,6.6085,6.6069,6.6069,6.6063,6.6074,6.6052,6.6063,6.6063,6.608,6.6058,6.6094,6.6063,6.6047,6.6036,6.603,6.6024,6.6024,6.603,6.603,6.603,6.6049,6.6044,6.6011,6.6001,6.6001,6.5971,6.5971,6.6001,6.5995,6.5989,6.5953,6.591,6.5916,6.591,6.5897,6.5884,6.5884,6.5884,6.5884,6.5884,6.5884,6.5884,6.5884,6.5884,6.5884,6.5884,6.5884,6.5884,6.5884,6.5884,6.5884,6.5884,6.5884,6.5884,6.5884,6.5884,6.5884,6.5884,6.5884,6.5884,6.5884,6.5846,6.5455,6.5051,6.3955,6.2845,6.2537,6.2422,6.2666,6.307,6.3372,6.3551,6.3955,6.4487,6.4897,6.5089,6.5186,6.5532,6.5628,6.5846,6.5884,6.5884,6.5884,6.5884,6.5884,6.5884,6.5884,6.5884,6.5884,6.5884,6.5884,6.5872,6.5781,6.5554,6.5081,6.4727,6.4445,6.4121,6.383,6.3728,6.3602,6.359,6.6891,6.6889,6.6905,6.6903,6.6903,6.6903,6.6854,6.676,6.6598,6.6475,6.6337,6.6276,6.6177,6.6013,6.6007,6.6001,6.6001,6.6007,6.6019,6.6013,6.5996,6.6013,6.6007,6.5996,6.6013,6.6001,6.5998,6.598,6.5962,6.5999,6.6011,6.6011,6.6011,6.6005,6.5999,6.5996,6.596,6.5954,6.5916,6.5929,6.5966,6.5954,6.5947,6.5904,6.5884,6.5884,6.5884,6.5884,6.5884,6.5884,6.5884,6.5884,6.5884,6.5884,6.5884,6.5884,6.5884,6.5884,6.5884,6.5884,6.5884,6.5884,6.5884,6.5884,6.5884,6.5884,6.5884,6.5884,6.5884,6.5884,6.5884,6.5884,6.5884,6.5884,6.5724,6.5416,6.4628,6.357,6.2454,6.1575,6.1518,6.1595,6.2012,6.2499,6.2691,6.2935,6.3531,6.3987,6.4237,6.457,6.4955,6.5282,6.5397,6.5743,6.5884,6.5884,6.5884,6.5884,6.5884,6.5884,6.5884,6.5884,6.5884,6.5878,6.5814,6.5696,6.5393,6.4923,6.4612,6.433,6.3984,6.3635,6.359,6.359,6.359,6.6903,6.6882,6.6881,6.6881,6.6881,6.6881,6.6792,6.6638,6.6569,6.6395,6.6148,6.6036,6.5971,6.5984,6.6003,6.5984,6.5973,6.5974,6.5986,6.5992,6.5986,6.5974,6.5974,6.5992,6.598,6.5968,6.5964,6.5927,6.591,6.594,6.5971,6.5971,6.5971,6.5971,6.5972,6.5941,6.5891,6.5897,6.5904,6.5904,6.5884,6.5884,6.5904,6.5904,6.5884,6.5884,6.5884,6.5884,6.5884,6.5884,6.5884,6.5884,6.5884,6.5884,6.5884,6.5884,6.5884,6.5884,6.5884,6.5884,6.5884,6.5884,6.5884,6.5884,6.5884,6.5884,6.5884,6.5884,6.5884,6.5884,6.5884,6.5884,6.5884,6.5865,6.5647,6.5243,6.4237,6.3314,6.2262,6.1127,6.0902,6.0902,6.1191,6.1652,6.1883,6.2114,6.246,6.2858,6.3275,6.3698,6.4109,6.4436,6.4647,6.5051,6.5686,6.582,6.5801,6.5884,6.5884,6.5884,6.5884,6.5884,6.5878,6.5865,6.5788,6.5554,6.523,6.4807,6.4502,6.417,6.3897,6.359,6.359,6.359,6.359,6.686,6.6814,6.6807,6.6823,6.6823,6.6822,6.6727,6.6595,6.6432,6.6266,6.6098,6.5986,6.5916,6.5916,6.5916,6.5909,6.5927,6.594,6.5922,6.5916,6.5921,6.5928,6.5928,6.5933,6.5922,6.5922,6.5922,6.5897,6.5884,6.5916,6.5923,6.591,6.591,6.591,6.5923,6.5884,6.5884,6.5884,6.5884,6.5884,6.5884,6.5884,6.5884,6.5884,6.5884,6.5884,6.5884,6.5884,6.5884,6.5884,6.5884,6.5884,6.5884,6.5884,6.5884,6.5884,6.5884,6.5884,6.5884,6.5884,6.5884,6.5884,6.5884,6.5884,6.5884,6.5884,6.5884,6.5884,6.5884,6.5884,6.5884,6.5884,6.5884,6.5884,6.5763,6.4897,6.3968,6.3314,6.2564,6.1589,6.0883,6.0864,6.0877,6.1133,6.1152,6.1441,6.1845,6.2204,6.2358,6.2801,6.3237,6.3531,6.382,6.4762,6.5551,6.5667,6.5686,6.5801,6.5884,6.5884,6.5884,6.5884,6.5872,6.5775,6.5547,6.5276,6.4934,6.4584,6.4251,6.3929,6.3764,6.359,6.359,6.359,6.359]}]]